[[{"header":{"parameterUnit":"m.s-1","parameterCategory":1,"la1":30.6,"la2":29.2853,"lo1":-89.7004,"lo2":-87.6739,"dy":0.0162,"dx":0.0183,"nx":112,"ny":82,"refTime":"2023-03-05T06:00:00:Z","depth":0,"parameterNumber":2,"parameterNumberName":"U-component_of_WINDS"},"data":[0.0,0.0,0.0,0.0,0.0,0.0,0.0,0.0,0.0,0.0,0.0,0.0,0.0,0.0,0.0,0.0,0.0,0.0,0.0,0.0,0.0,0.0,0.0,0.0,0.0,0.0,0.0,0.0,0.0,0.0,0.0,0.0,0.0,0.0,0.0,0.0,0.0,0.0,0.0,0.0,0.0,0.0,0.0,0.0,0.0,0.0,0.0,0.0,0.0,0.0,0.0,0.0,0.0,0.0,0.0,0.0,0.0,0.0,0.0,0.0,0.0,0.0,0.0,0.0,0.0,0.0,0.0,0.0,0.0,0.0,0.0,0.0,0.0,0.0,0.0,0.0,0.0,0.0,0.0,0.0,0.0,0.0,0.0,0.0,0.0,0.0,0.0,0.0,0.0,0.0,-1.5108,-1.6774,-1.9115,-2.1379,-2.3455,-2.3364,-2.2745,-2.1662,0.0,0.0,0.0,0.0,0.0,0.0,0.0,0.0,0.0,0.0,0.0,0.0,0.0,0.0,0.0,0.0,0.0,0.0,0.0,0.0,0.0,0.0,0.0,0.0,0.0,0.0,0.0,0.0,0.0,0.0,0.0,0.0,0.0,0.0,0.0,0.0,0.0,0.0,0.0,0.0,0.0,0.0,0.0,0.0,0.0,0.0,0.0,0.0,0.0,0.0,0.0,0.0,0.0,0.0,0.0,0.0,0.0,0.0,0.0,0.0,0.0,0.0,0.0,0.0,0.0,0.0,0.0,0.0,0.0,0.0,0.0,0.0,0.0,0.0,0.0,0.0,0.0,0.0,0.0,0.0,0.0,0.0,0.0,0.0,0.0,0.0,0.0,0.0,0.0,0.0,0.0,0.0,0.0,0.0,0.0,0.0,0.0,0.0,0.0,0.0,0.0,0.0,0.0,0.0,-1.378,-1.683,-1.8767,-2.0551,-2.2234,-2.289,-2.2611,-2.1197,0.0,0.0,0.0,0.0,0.0,0.0,0.0,0.0,0.0,0.0,0.0,0.0,0.0,0.0,0.0,0.0,0.0,0.0,0.0,0.0,0.0,0.0,0.0,0.0,0.0,0.0,0.0,0.0,0.0,0.0,0.0,0.0,0.0,0.0,0.0,0.0,0.0,0.0,0.0,0.0,0.0,0.0,0.0,0.0,0.0,0.0,0.0,0.0,0.0,0.0,0.0,0.0,0.0,0.0,0.0,0.0,0.0,0.0,0.0,0.0,0.0,0.0,0.0,0.0,0.0,0.0,0.0,0.0,0.0,0.0,0.0,0.0,0.0,0.0,0.0,0.0,0.0,0.0,0.0,0.0,0.0,0.0,0.0,0.0,0.0,0.0,0.0,0.0,0.0,0.0,0.0,0.0,0.0,0.0,0.0,0.0,0.0,0.0,0.0,0.0,0.0,0.0,0.0,-1.326,-1.4454,-1.7384,-1.9219,-2.0736,-2.1939,-2.2992,-2.2745,-2.0807,-2.1399,0.0,0.0,0.0,0.0,0.0,0.0,0.0,0.0,0.0,0.0,0.0,0.0,0.0,0.0,0.0,0.0,0.0,0.0,0.0,0.0,0.0,0.0,0.0,0.0,0.0,0.0,0.0,0.0,0.0,0.0,0.0,0.0,0.0,0.0,0.0,0.0,0.0,0.0,0.0,0.0,0.0,0.0,0.0,0.0,0.0,0.0,0.0,0.0,0.0,0.0,0.0,0.0,0.0,0.0,0.0,0.0,0.0,0.0,0.0,0.0,0.0,0.0,0.0,0.0,0.0,0.0,0.0,0.0,0.0,0.0,0.0,0.0,0.0,0.0,0.0,0.0,0.0,0.0,0.0,0.0,0.0,0.0,0.0,0.0,0.0,0.0,0.0,0.0,0.0,0.0,0.0,0.0,0.0,0.0,0.0,0.0,0.0,0.0,0.0,0.0,0.0,0.0,-1.3955,-1.54,-1.7544,-1.9472,-2.0934,-2.1724,-2.3026,-2.2884,-2.0723,-2.1018,0.0,0.0,0.0,0.0,0.0,0.0,0.0,0.0,0.0,0.0,0.0,0.0,0.0,0.0,0.0,0.0,0.0,0.0,0.0,0.0,0.0,0.0,0.0,0.0,0.0,0.0,0.0,0.0,0.0,0.0,0.0,0.0,0.0,0.0,0.0,0.0,0.0,0.0,0.0,0.0,0.0,0.0,0.0,0.0,0.0,0.0,0.0,0.0,0.0,0.0,0.0,0.0,0.0,0.0,0.0,0.0,0.0,0.0,0.0,0.0,0.0,0.0,0.0,0.0,0.0,0.0,0.0,0.0,0.0,0.0,0.0,0.0,0.0,0.0,0.0,0.0,0.0,0.0,0.0,0.0,0.0,0.0,0.0,0.0,0.0,0.0,0.0,0.0,0.0,0.0,0.0,0.0,0.0,0.0,0.0,0.0,0.0,0.0,0.0,0.0,0.0,0.0,-1.4194,-1.5778,-1.6693,-1.8921,-2.0558,-2.1116,-2.2615,-2.2851,-2.1233,-2.0957,0.0,0.0,0.0,0.0,0.0,0.0,0.0,0.0,0.0,0.0,0.0,0.0,0.0,0.0,0.0,0.0,0.0,0.0,0.0,0.0,0.0,0.0,0.0,0.0,0.0,0.0,0.0,0.0,0.0,0.0,0.0,0.0,0.0,0.0,0.0,0.0,0.0,0.0,0.0,0.0,0.0,0.0,0.0,0.0,0.0,0.0,0.0,0.0,0.0,0.0,0.0,0.0,0.0,0.0,0.0,0.0,0.0,0.0,0.0,0.0,0.0,0.0,0.0,0.0,0.0,0.0,0.0,0.0,0.0,0.0,0.0,0.0,0.0,0.0,0.0,0.0,0.0,0.0,0.0,0.0,0.0,0.0,0.0,0.0,0.0,0.0,0.0,0.0,0.0,0.0,0.0,0.0,0.0,0.0,0.0,0.0,0.0,0.0,0.0,0.0,0.0,0.0,-1.3925,-1.5464,0.0,-1.9359,-2.1147,-2.1393,-2.3271,-2.3656,-2.1799,0.0,0.0,0.0,0.0,0.0,0.0,0.0,0.0,0.0,0.0,0.0,0.0,0.0,0.0,0.0,0.0,0.0,0.0,0.0,0.0,0.0,0.0,0.0,0.0,0.0,0.0,0.0,0.0,0.0,0.0,0.0,0.0,0.0,0.0,0.0,0.0,0.0,0.0,0.0,0.0,0.0,0.0,0.0,0.0,0.0,0.0,0.0,0.0,0.0,0.0,0.0,0.0,0.0,0.0,0.0,0.0,0.0,0.0,0.0,0.0,0.0,0.0,0.0,0.0,0.0,0.0,0.0,0.0,0.0,0.0,0.0,0.0,0.0,0.0,0.0,0.0,0.0,0.0,0.0,0.0,0.0,0.0,0.0,0.0,0.0,0.0,0.0,0.0,0.0,0.0,0.0,0.0,0.0,0.0,0.0,0.0,0.0,0.0,0.0,0.0,0.0,0.0,-1.1891,-1.3637,-1.5359,0.0,-1.9649,-2.1569,-2.2062,-2.3869,-2.426,-2.2619,0.0,0.0,0.0,0.0,0.0,0.0,0.0,0.0,0.0,0.0,0.0,0.0,0.0,0.0,0.0,0.0,0.0,0.0,0.0,0.0,0.0,0.0,0.0,0.0,0.0,0.0,0.0,0.0,0.0,0.0,0.0,0.0,0.0,0.0,0.0,0.0,0.0,0.0,0.0,0.0,0.0,0.0,0.0,0.0,0.0,0.0,0.0,0.0,0.0,0.0,0.0,0.0,0.0,0.0,0.0,0.0,0.0,0.0,0.0,0.0,0.0,0.0,0.0,0.0,0.0,0.0,0.0,0.0,0.0,0.0,0.0,0.0,0.0,0.0,0.0,0.0,0.0,0.0,0.0,0.0,0.0,0.0,0.0,0.0,0.0,0.0,0.0,0.0,0.0,0.0,0.0,0.0,0.0,0.0,0.0,0.0,0.0,0.0,0.0,0.0,0.0,0.0,-1.1235,-1.3409,-1.556,-1.7315,-1.9658,-2.169,-2.3077,-2.4249,-2.453,0.0,0.0,0.0,0.0,0.0,0.0,0.0,0.0,0.0,0.0,0.0,0.0,0.0,0.0,0.0,0.0,0.0,0.0,0.0,0.0,0.0,0.0,0.0,0.0,0.0,0.0,0.0,0.0,0.0,0.0,0.0,0.0,0.0,0.0,0.0,0.0,0.0,0.0,0.0,0.0,0.0,0.0,0.0,0.0,0.0,0.0,0.0,0.0,0.0,0.0,0.0,0.0,0.0,0.0,0.0,0.0,0.0,0.0,0.0,0.0,0.0,0.0,0.0,0.0,0.0,0.0,0.0,0.0,0.0,0.0,0.0,0.0,0.0,0.0,0.0,0.0,0.0,0.0,0.0,0.0,0.0,0.0,0.0,0.0,0.0,0.0,0.0,0.0,0.0,0.0,0.0,0.0,0.0,0.0,0.0,0.0,0.0,0.0,0.0,0.0,0.0,0.0,0.0,-1.1631,-1.3915,-1.5954,-1.7221,-1.9937,-2.211,-2.3186,-2.4444,-2.454,-2.2983,0.0,0.0,0.0,0.0,0.0,0.0,0.0,0.0,0.0,0.0,0.0,0.0,0.0,0.0,0.0,0.0,0.0,0.0,0.0,0.0,0.0,0.0,0.0,0.0,0.0,0.0,0.0,0.0,0.0,0.0,0.0,0.0,0.0,0.0,0.0,0.0,0.0,0.0,0.0,0.0,0.0,0.0,0.0,0.0,0.0,0.0,0.0,0.0,0.0,0.0,0.0,0.0,0.0,0.0,0.0,0.0,0.0,0.0,0.0,0.0,0.0,0.0,0.0,0.0,0.0,0.0,0.0,0.0,0.0,0.0,0.0,0.0,0.0,0.0,0.0,0.0,0.0,0.0,0.0,0.0,0.0,0.0,0.0,0.0,0.0,0.0,0.0,0.0,0.0,0.0,0.0,0.0,0.0,0.0,0.0,0.0,0.0,0.0,0.0,0.0,0.0,0.0,-1.129,-1.3445,-1.5466,-1.6948,-1.9495,-2.168,-2.3148,-2.424,-2.4448,-2.3501,0.0,0.0,0.0,0.0,0.0,0.0,0.0,0.0,0.0,0.0,0.0,0.0,0.0,0.0,0.0,0.0,0.0,0.0,0.0,0.0,0.0,0.0,0.0,0.0,0.0,0.0,0.0,0.0,0.0,0.0,0.0,0.0,0.0,0.0,0.0,0.0,0.0,0.0,0.0,0.0,0.0,0.0,0.0,0.0,0.0,0.0,0.0,0.0,0.0,0.0,0.0,0.0,0.0,0.0,0.0,0.0,0.0,0.0,0.0,0.0,0.0,0.0,0.0,0.0,0.0,0.0,0.0,0.0,0.0,0.0,0.0,0.0,0.0,0.0,0.0,0.0,0.0,0.0,0.0,0.0,0.0,0.0,0.0,0.0,0.0,0.0,0.0,0.0,0.0,0.0,0.0,0.0,0.0,0.0,0.0,0.0,0.0,0.0,0.0,0.0,0.0,0.0,-1.0645,-1.2476,-1.4518,-1.6619,-1.8639,-2.0757,-2.2938,-2.3727,-2.4226,-2.4496,0.0,0.0,0.0,0.0,0.0,0.0,0.0,0.0,0.0,0.0,0.0,0.0,0.0,0.0,0.0,0.0,0.0,0.0,0.0,0.0,0.0,0.0,0.0,0.0,0.0,0.0,0.0,0.0,0.0,0.0,0.0,0.0,0.0,0.0,0.0,0.0,0.0,0.0,0.0,0.0,0.0,0.0,0.0,0.0,0.0,0.0,0.0,0.0,0.0,0.0,0.0,0.0,0.0,0.0,0.0,0.0,0.0,0.0,0.0,0.0,-2.8604,0.0,0.0,0.0,0.0,0.0,0.0,0.0,0.0,0.0,0.0,0.0,0.0,0.0,0.0,0.0,0.0,0.0,0.0,0.0,0.0,0.0,0.0,0.0,0.0,0.0,0.0,0.0,0.0,0.0,0.0,0.0,0.0,0.0,0.0,0.0,0.0,0.0,0.0,0.0,0.0,0.0,-1.1412,-1.2947,-1.4737,-1.6811,-1.8564,-2.039,-2.2405,-2.303,-2.3279,-2.3134,-2.3247,0.0,0.0,0.0,0.0,0.0,0.0,0.0,0.0,0.0,0.0,0.0,0.0,0.0,0.0,0.0,0.0,0.0,0.0,0.0,0.0,0.0,0.0,0.0,0.0,0.0,0.0,0.0,0.0,0.0,0.0,0.0,0.0,0.0,0.0,0.0,0.0,0.0,0.0,0.0,0.0,0.0,0.0,0.0,0.0,0.0,0.0,0.0,0.0,0.0,0.0,0.0,0.0,0.0,0.0,0.0,0.0,0.0,0.0,0.0,0.0,-2.8254,0.0,0.0,0.0,0.0,0.0,0.0,0.0,0.0,0.0,0.0,0.0,0.0,0.0,0.0,0.0,0.0,0.0,0.0,0.0,0.0,0.0,0.0,0.0,0.0,0.0,0.0,0.0,0.0,0.0,0.0,0.0,0.0,0.0,0.0,0.0,0.0,0.0,0.0,0.0,0.0,-1.1223,-1.2402,-1.3857,-1.5746,-1.7598,-1.9381,-2.1055,-2.1891,-2.2404,-2.2584,-2.2668,0.0,0.0,0.0,0.0,0.0,0.0,0.0,0.0,0.0,0.0,0.0,0.0,0.0,0.0,0.0,0.0,0.0,0.0,0.0,0.0,0.0,0.0,0.0,0.0,0.0,0.0,0.0,0.0,0.0,0.0,0.0,0.0,0.0,0.0,0.0,0.0,0.0,0.0,0.0,0.0,0.0,0.0,0.0,0.0,0.0,0.0,0.0,0.0,0.0,0.0,0.0,0.0,0.0,-2.7101,-2.7683,-2.8172,-2.8172,-2.851,-2.9076,-2.7786,-2.8116,-2.9291,-2.6848,0.0,0.0,0.0,0.0,0.0,0.0,0.0,0.0,0.0,0.0,0.0,0.0,0.0,0.0,0.0,0.0,0.0,0.0,0.0,0.0,0.0,0.0,0.0,0.0,-2.0688,-2.0147,-1.914,0.0,0.0,0.0,0.0,0.0,0.0,0.0,0.0,0.0,0.0,0.0,-1.0693,-1.1516,-1.2705,-1.4496,-1.6329,-1.8047,-1.9537,-2.0574,-2.1464,-2.2119,-2.2108,-2.2097,0.0,0.0,0.0,0.0,0.0,0.0,0.0,0.0,0.0,0.0,0.0,0.0,0.0,0.0,0.0,0.0,0.0,0.0,0.0,0.0,0.0,0.0,0.0,0.0,0.0,0.0,0.0,0.0,0.0,0.0,0.0,0.0,-2.7157,-2.6713,0.0,0.0,0.0,0.0,0.0,0.0,0.0,0.0,0.0,0.0,0.0,0.0,0.0,-2.2624,-2.2558,-2.379,-2.44,-2.4374,-2.5425,-2.5945,-2.6014,-2.6014,-2.6341,-2.6869,-2.615,0.0,-2.8926,-2.7,0.0,0.0,0.0,0.0,0.0,0.0,0.0,0.0,0.0,0.0,0.0,0.0,0.0,0.0,0.0,0.0,0.0,0.0,0.0,0.0,0.0,0.0,-1.9951,-1.9897,-2.0255,-2.0126,0.0,-1.7949,-1.7429,-1.6185,-1.4426,0.0,0.0,0.0,0.0,0.0,0.0,0.0,-1.036,-1.0965,-1.2134,-1.4292,-1.5389,-1.6749,-1.8612,-1.9424,-2.0139,-2.0798,-2.1569,-2.2118,-2.2342,-2.1647,0.0,0.0,0.0,0.0,0.0,0.0,0.0,0.0,0.0,0.0,0.0,0.0,0.0,0.0,0.0,0.0,0.0,0.0,0.0,0.0,0.0,0.0,0.0,0.0,0.0,0.0,0.0,0.0,0.0,-2.5617,-2.6658,-2.5206,-2.4884,-2.3736,0.0,0.0,0.0,0.0,0.0,0.0,0.0,0.0,0.0,-2.0775,-2.1711,-2.2241,-2.2241,-2.3484,-2.4381,-2.4915,-2.5389,-2.5786,-2.6106,-2.6106,-2.6259,-2.6502,-2.6196,-2.6342,-2.6671,-2.5826,-2.5145,-2.4558,0.0,0.0,0.0,0.0,-2.3187,-2.3409,-2.3694,-2.3349,-2.2472,-2.07,0.0,0.0,0.0,0.0,0.0,0.0,0.0,0.0,0.0,0.0,-1.7871,-1.7843,-1.8044,-1.7967,-1.6973,-1.6714,-1.6591,0.0,-1.4878,-1.3534,-1.2849,0.0,0.0,0.0,0.0,-0.9562,-1.0059,-1.0688,-1.1605,-1.2948,-1.429,-1.5654,-1.7133,-1.7863,-1.8727,-1.9844,-2.0381,-2.1075,-2.2012,-2.1591,-2.1081,0.0,0.0,0.0,0.0,0.0,0.0,0.0,0.0,0.0,0.0,0.0,0.0,0.0,0.0,0.0,0.0,0.0,0.0,0.0,0.0,0.0,0.0,0.0,0.0,0.0,0.0,0.0,0.0,-2.5111,-2.5949,-2.3682,-2.4006,-2.3066,0.0,0.0,0.0,0.0,0.0,0.0,-2.1377,-2.1009,-2.0564,-1.9986,-2.076,-2.1194,-2.1194,-2.2408,-2.3366,-2.4033,-2.4033,-2.4252,-2.4724,-2.4724,-2.4724,-2.4724,-2.4724,-2.4268,-2.3612,-2.4006,-2.4009,-2.3674,-2.2343,-2.184,-2.184,-2.184,-2.1912,-2.2125,-2.2851,-2.2747,-2.2034,-2.0394,-1.9146,-1.7804,-1.5359,0.0,0.0,0.0,0.0,-1.5247,-1.5505,-1.5647,-1.5795,-1.5922,-1.6,-1.5788,-1.5022,-1.4904,-1.517,0.0,-1.4874,-1.3673,-1.3002,0.0,0.0,0.0,0.0,-0.9486,-0.9735,-1.0428,-1.1115,-1.1683,-1.3296,-1.4665,-1.549,-1.64,-1.7395,-1.8493,-1.9044,-1.9921,-2.1204,-2.1114,-2.0862,-2.0456,0.0,0.0,0.0,0.0,0.0,0.0,0.0,0.0,0.0,0.0,0.0,0.0,0.0,0.0,0.0,0.0,0.0,0.0,0.0,0.0,0.0,0.0,0.0,0.0,0.0,0.0,0.0,0.0,0.0,-2.3492,-2.2776,0.0,0.0,0.0,0.0,-1.777,-1.7787,-1.8011,-1.8394,-1.8027,-1.7952,-1.8291,-1.875,-1.8993,-1.9054,-1.9494,-1.9777,-1.9819,-1.9819,-1.9827,-1.9844,-1.9844,-1.9844,-1.9844,-1.9844,-1.9844,-1.9892,-2.1678,-2.1905,-2.0912,-1.9153,-1.8435,-1.8435,-1.8435,-1.8694,-1.8987,-1.8636,-1.876,-1.8927,-1.817,-1.6831,-1.532,-1.4325,-1.4336,0.0,0.0,-1.4104,-1.4766,-1.5283,-1.4995,-1.458,-1.4681,-1.4833,-1.4463,-1.2672,-1.2482,-1.3165,0.0,-1.4069,-1.3051,-1.2935,0.0,-1.0354,-1.0139,-0.9705,-0.9416,-0.9438,-1.0113,-1.0723,-1.1027,-1.26,-1.3695,-1.3828,-1.5256,-1.6207,-1.6265,-1.7772,-1.8996,-1.9763,-2.0337,-2.0609,-2.0593,-1.8859,0.0,0.0,0.0,0.0,0.0,0.0,0.0,0.0,0.0,0.0,0.0,0.0,0.0,0.0,0.0,0.0,0.0,0.0,0.0,0.0,0.0,0.0,0.0,0.0,0.0,0.0,0.0,0.0,-2.1174,-2.1142,0.0,-1.74,-1.6937,-1.6898,-1.7067,-1.7429,-1.7908,-1.8542,-1.8728,-1.8638,-1.8216,-1.8586,-1.8748,-1.857,-1.8924,-1.915,-1.9239,-1.9426,-1.9497,-1.9497,-1.9497,-1.9497,-1.9497,-1.9497,-1.9131,-1.8556,-1.8872,-1.939,-1.9922,-1.9284,-1.9019,-1.9019,-1.9019,-1.9146,-1.9237,-1.9113,-1.8998,-1.8748,-1.7301,-1.5683,-1.4049,-1.2972,-1.2804,-1.2751,-1.1698,-1.1664,-1.1869,-1.1852,-1.1644,-1.1366,-1.1218,-1.1244,-1.1101,-1.042,-1.0353,-1.0613,-1.116,-1.1114,-1.0943,-1.0678,-1.0159,-0.9685,-0.9421,-0.9403,-0.9408,-0.9389,-1.0089,-1.0637,-1.0723,-1.2036,-1.3014,-1.3351,-1.3828,-1.462,-1.5818,-1.6625,-1.7741,-1.9259,-1.977,-2.0034,-2.0015,-1.8669,-1.7668,0.0,0.0,0.0,0.0,0.0,0.0,0.0,0.0,0.0,0.0,0.0,0.0,0.0,0.0,0.0,0.0,0.0,0.0,0.0,0.0,0.0,0.0,0.0,0.0,0.0,0.0,-2.0372,-1.8871,-1.9232,-1.8527,-1.5753,-1.5784,-1.5892,-1.5703,-1.6053,-1.6495,-1.6991,-1.6982,-1.6664,-1.6069,-1.6768,-1.6821,-1.619,-1.6866,-1.7212,-1.7212,-1.7381,-1.7485,-1.7485,-1.7485,-1.7292,-1.6944,-1.6944,-1.6577,-1.5927,-1.5538,-1.6023,-1.703,-1.7796,-1.814,-1.8148,-1.8218,-1.8257,-1.8195,-1.7697,-1.7054,-1.6276,-1.4975,-1.3698,-1.2486,-1.1708,-1.1479,-1.137,-1.0566,-1.0375,-1.0361,-1.0131,-0.9882,-0.9628,-0.9404,-0.9276,-0.9112,-0.877,-0.8637,-0.8561,-0.8389,-0.9181,-0.9682,-0.9136,-0.9332,-0.9417,-0.8964,-0.918,-0.9419,-0.9479,-1.0036,-1.0532,-1.0683,-1.1782,-1.2559,-1.2759,-1.3133,-1.3874,-1.507,-1.5393,-1.642,-1.8407,-1.8306,-1.8442,-1.8875,-1.7495,-1.6682,-1.6455,0.0,0.0,0.0,0.0,0.0,0.0,0.0,0.0,0.0,0.0,0.0,0.0,0.0,0.0,0.0,0.0,0.0,0.0,0.0,0.0,0.0,0.0,0.0,-1.6788,-1.7867,-1.8032,-1.6772,-1.7072,-1.6477,-1.4226,-1.4603,-1.4592,-1.3516,-1.3463,-1.3463,-1.3463,-1.2436,-1.1896,-1.1896,-1.3151,-1.3193,-1.1886,-1.3199,-1.3686,-1.3451,-1.3457,-1.3463,-1.3463,-1.3463,-1.2877,-1.1896,-1.1896,-1.1896,-1.1896,-1.1891,-1.1886,-1.2109,-1.4418,-1.5266,-1.5299,-1.557,-1.5663,-1.5468,-1.4094,-1.2622,-1.1283,-1.1144,-1.0875,-1.0611,-1.0567,-1.0524,-1.0524,-1.0481,-1.0401,-1.0272,-1.0272,-0.9948,-0.9546,-0.9355,-0.9116,-0.8656,-0.7672,-0.73,-0.7118,-0.6909,-0.8411,-0.9414,-0.8492,-0.9136,-0.9528,-0.8743,-0.9051,0.0,-0.9548,-0.9928,-1.0356,-1.0833,-1.1814,-1.2308,-1.192,-1.3194,-1.3961,-1.3876,-1.4056,-1.507,-1.714,-1.5973,-1.5885,-1.7191,-1.5321,-1.4543,-1.4909,0.0,0.0,0.0,0.0,0.0,0.0,0.0,0.0,0.0,0.0,0.0,0.0,0.0,0.0,0.0,0.0,0.0,0.0,0.0,0.0,0.0,0.0,-1.2447,-1.3638,-1.3761,-1.3647,-1.3277,-1.3352,-1.3136,-1.2341,-1.2592,-1.2587,-1.2145,-1.2242,-1.2339,-1.2339,-1.2047,-1.1896,-1.1896,-1.2285,-1.2197,-1.1597,-1.2149,-1.2341,-1.203,-1.2255,-1.2339,-1.2339,-1.2339,-1.2193,-1.1896,-1.1896,-1.1896,-1.1886,-1.1667,-1.1597,-1.1702,-1.2533,-1.287,-1.2853,-1.2839,-1.2778,-1.2583,-1.2026,-1.1542,-1.1089,-1.0821,-1.0574,-1.0269,-0.9579,-0.9235,-0.893,-0.8273,-0.7978,-0.7851,-0.7851,-0.7638,-0.7378,-0.7302,-0.718,-0.6949,-0.6683,-0.6477,-0.6279,-0.6118,-0.698,-0.7531,-0.7031,-0.7164,-0.7278,-0.706,-0.7933,0.0,-0.8659,-0.9561,-1.0244,-1.0384,-1.1135,-1.1587,-1.1463,-1.1655,-1.2109,-1.2901,-1.3164,-1.3875,-1.5209,-1.5256,-1.5247,-1.5259,-1.368,-1.2941,0.0,0.0,0.0,0.0,0.0,0.0,0.0,0.0,0.0,0.0,0.0,0.0,0.0,0.0,0.0,0.0,0.0,0.0,0.0,0.0,0.0,0.0,-1.022,-1.0474,-1.0391,-1.1083,-1.1609,-1.1609,-1.1609,-1.1365,-1.0828,-1.1268,-1.1365,-1.0779,-1.0877,-1.0925,-1.0925,-1.0534,-1.0288,-1.0288,-1.0828,-1.0768,-1.0018,-1.0763,-1.0958,-1.0692,-1.0865,-1.0925,-1.0925,-1.0925,-1.0681,-1.0288,-1.0288,-1.0288,-1.023,-1.0114,-1.0018,0.0,0.0,0.0,0.0,0.0,-1.1291,-1.0766,-1.0469,-1.001,-0.9486,-0.9244,-0.9052,-0.8838,-0.8321,-0.8013,-0.7797,-0.7272,-0.6994,-0.6886,-0.6886,-0.6622,-0.6354,-0.6354,-0.6169,-0.5986,-0.5986,-0.5873,-0.5743,-0.5765,-0.606,0.0,-0.6184,-0.6623,-0.6895,-0.6555,-0.7391,-0.8071,-0.8136,-0.8768,-0.9476,-1.0126,-1.0694,-1.1097,-1.1315,-1.1503,0.0,0.0,0.0,-1.2664,-1.2956,-1.314,0.0,0.0,0.0,-1.1237,-1.1495,0.0,0.0,0.0,-1.0755,-1.0225,0.0,0.0,0.0,0.0,0.0,0.0,0.0,0.0,0.0,0.0,0.0,0.0,0.0,0.0,0.0,0.0,-0.8668,-0.8528,-0.7211,-0.8957,-1.0476,-1.0725,-1.073,-1.0386,-0.9406,-1.019,-1.0288,-0.9209,-0.916,-0.9106,-0.8954,0.0,0.0,0.0,0.0,-0.9114,-0.7939,-0.9069,-0.9558,-0.9361,-0.9361,-0.941,-0.941,-0.941,-0.892,-0.7988,-0.7988,-0.7988,-0.7988,-0.7988,-0.7988,-0.817,-1.0258,-1.1062,-1.109,-1.1164,-1.0485,-0.9434,-0.9154,0.0,0.0,-0.7139,-0.7095,-0.7095,-0.7051,-0.7098,-0.7095,-0.7051,-0.6863,-0.6711,-0.6711,-0.6287,-0.5873,-0.5873,-0.5571,-0.5321,-0.5321,-0.522,-0.5165,-0.5349,-0.5368,-0.5397,-0.5574,-0.677,-0.7389,-0.6592,-0.7133,-0.7642,-0.7733,-0.7837,-0.843,-0.9781,0.0,0.0,-1.0989,-1.1677,-1.2072,-1.2016,-1.1802,-1.1333,-1.0635,-1.0363,-1.0315,-1.0456,-0.9571,-0.9387,-0.997,-0.9065,-0.8609,-0.8623,-0.9117,-0.9158,0.0,0.0,0.0,0.0,0.0,0.0,0.0,0.0,0.0,0.0,0.0,0.0,0.0,0.0,0.0,-0.4821,-0.4865,-0.4979,-0.4694,-0.5071,-0.6011,-0.7773,-0.7978,-0.7879,-0.7683,-0.7829,-0.7524,-0.647,-0.6368,-0.6016,-0.5114,-0.572,-0.6074,-0.6074,-0.7179,-0.7633,-0.7338,-0.7633,-0.7832,-0.7988,0.0,0.0,-0.8333,-0.8333,-0.8187,-0.7988,-0.7988,-0.7988,-0.7988,-0.7988,-0.7892,-0.773,-0.8303,-0.8446,-0.8367,-0.8279,-0.7962,-0.7617,-0.7556,-0.7361,-0.7136,-0.7105,-0.7095,-0.7051,-0.6925,-0.6966,0.0,-0.6653,-0.6113,-0.5623,-0.5413,-0.4608,-0.3845,-0.3845,-0.3736,-0.3593,-0.3593,-0.349,-0.3394,-0.343,-0.3979,-0.4455,-0.4492,-0.5438,-0.6115,-0.5822,-0.6511,-0.6991,-0.6875,-0.748,-0.7996,-0.8295,-0.8435,-0.8602,-0.8785,-0.886,-0.9069,-0.9475,-0.9601,-0.9607,-0.9425,-0.8871,-0.8658,-0.8856,-0.7872,-0.7354,-0.7333,-0.6709,-0.6337,-0.6186,-0.7181,-0.7618,0.0,0.0,0.0,0.0,0.0,0.0,0.0,0.0,0.0,0.0,0.0,-0.6327,0.0,0.0,-0.4302,-0.3808,-0.3771,-0.377,-0.3717,-0.3662,-0.4114,-0.5429,-0.5622,-0.5622,-0.5622,-0.5622,-0.5372,-0.482,-0.4818,-0.4568,-0.4016,-0.4518,-0.4818,-0.4818,-0.5322,-0.5622,-0.5622,-0.5622,-0.5675,-0.5777,-0.5777,-0.5874,-0.6022,-0.6022,-0.6022,-0.6022,-0.6022,-0.6326,-0.683,-0.7385,-0.754,-0.7329,-0.6792,-0.6894,-0.7352,-0.7163,-0.7021,-0.6886,-0.6767,-0.6741,-0.6741,-0.6741,-0.6425,-0.6024,-0.5938,-0.5622,-0.5307,-0.5085,-0.4738,-0.4472,-0.4342,-0.3748,-0.3165,-0.3136,-0.297,-0.2815,-0.2782,-0.2749,-0.2728,-0.2844,-0.3189,-0.3534,-0.3647,-0.4098,-0.476,-0.5635,-0.6138,-0.6463,-0.6463,-0.6745,-0.7082,-0.7469,-0.7552,-0.7778,-0.8197,-0.8317,-0.8441,-0.8651,-0.8336,-0.8107,-0.8042,-0.7264,-0.6896,-0.6936,-0.6397,-0.6039,-0.5934,-0.5696,-0.5514,-0.5414,-0.5882,-0.6172,0.0,0.0,0.0,0.0,0.0,0.0,0.0,0.0,-0.7379,-0.5632,-0.4769,-0.4153,-0.3429,-0.3165,-0.3069,-0.3068,-0.2924,-0.2774,-0.2658,-0.2566,-0.2673,-0.3071,-0.3566,-0.3867,-0.3867,-0.3867,-0.3767,-0.3566,-0.3516,-0.3466,-0.3215,-0.3416,-0.3516,-0.3516,-0.3717,-0.3867,-0.3867,-0.3867,-0.3867,-0.3917,-0.3917,-0.3966,-0.4016,-0.4016,-0.4016,-0.4016,-0.4016,-0.4468,-0.5372,-0.6226,-0.6531,-0.6423,-0.5438,-0.5589,-0.6284,-0.6192,-0.6152,-0.6077,-0.5927,-0.5847,-0.5847,-0.5847,-0.5356,-0.473,-0.4685,-0.415,-0.3571,-0.3482,-0.3339,-0.3227,-0.3176,-0.2806,-0.2432,-0.2431,-0.2197,-0.2018,-0.2018,-0.2003,-0.2074,-0.2232,-0.2388,-0.2543,-0.2735,-0.2929,-0.3548,-0.5087,-0.5518,-0.5761,-0.5931,-0.595,-0.6172,-0.6834,-0.6881,-0.7078,-0.7655,-0.795,-0.8043,-0.7843,-0.7212,-0.6784,-0.6639,-0.5859,-0.5439,-0.5441,-0.5329,-0.5243,-0.5187,-0.5211,-0.5104,-0.4935,-0.475,-0.4847,-1.1674,-1.1521,-1.0964,-0.9182,-0.8682,-0.8088,0.0,0.0,-0.5178,-0.4518,-0.3386,-0.2439,-0.2207,-0.1206,-0.044,-0.0398,-0.0223,-0.0054,-0.0053,0.0,0.0,-0.0101,-0.1964,-0.3272,-0.3272,-0.3272,-0.287,-0.1964,-0.1865,-0.1462,-0.0504,-0.1361,-0.1865,-0.1865,-0.277,-0.3272,-0.3272,-0.3272,-0.3422,-0.367,-0.367,-0.3768,-0.4016,-0.4016,-0.4016,-0.4016,-0.4016,-0.4066,-0.4166,-0.4316,-0.4218,-0.3971,-0.3862,-0.3673,-0.3506,-0.3844,-0.3966,-0.3939,-0.3929,-0.3927,-0.3927,-0.3927,-0.3837,-0.3705,-0.3486,-0.3484,-0.3527,-0.3087,-0.2516,-0.1956,-0.1694,-0.0985,-0.0337,-0.0336,-0.0289,-0.0284,-0.0284,-0.0279,-0.0275,-0.0314,-0.0941,-0.1488,-0.1488,-0.2231,-0.2913,-0.3192,-0.3997,-0.4596,-0.4699,-0.5317,-0.5837,-0.6101,-0.5875,-0.565,-0.5571,-0.5848,-0.5855,-0.5409,-0.5459,-0.5446,-0.5322,-0.5058,-0.4981,-0.5149,-0.5136,-0.5043,-0.484,-0.4858,-0.4471,-0.3691,-0.3503,-0.398,-1.0812,-0.9267,-0.7717,0.0,-0.6408,-0.5254,-0.2827,-0.2076,-0.1409,0.0224,0.1298,0.1931,0.1926,0.2367,0.2699,0.0,0.2738,0.2743,0.2614,0.2587,0.234,0.1669,0.0559,-0.0458,-0.1262,-0.1361,-0.116,-0.0707,-0.0656,-0.0454,0.0,-0.0404,-0.0656,-0.0656,-0.111,-0.1361,-0.1361,-0.1361,-0.1412,-0.1511,-0.1511,-0.1562,-0.1661,-0.1661,-0.1661,-0.1711,-0.2315,-0.2616,-0.2667,-0.327,-0.347,-0.3321,-0.2668,-0.234,-0.2248,-0.2978,-0.3205,-0.3194,-0.3194,-0.3171,-0.3184,-0.3184,-0.2798,-0.2282,-0.2194,-0.1836,-0.1478,-0.1256,-0.098,-0.0706,-0.0611,-0.0305,0.0,0.0,0.0,0.0,0.0,0.0,0.0,0.0,-0.0281,-0.0561,-0.0561,-0.0891,-0.1181,-0.1209,-0.261,-0.385,-0.439,-0.4729,-0.5126,-0.5588,-0.5604,-0.551,-0.5316,-0.5507,-0.5541,-0.5243,-0.5224,-0.5179,-0.5035,-0.4946,-0.4696,-0.4193,-0.4257,-0.4166,-0.3854,-0.3447,-0.3271,-0.3318,-0.2815,-0.2814,-0.8353,0.0,0.0,-0.3933,-0.3054,-0.1739,0.0505,0.1311,0.2139,0.3864,0.4579,0.4823,0.473,0.4688,0.4593,0.4504,0.4522,0.4505,0.4316,0.3979,0.3411,0.2495,0.1857,0.1246,0.0667,0.0255,0.0,0.0,0.0,0.0,0.0,0.0,0.0,0.0,0.0,0.0,0.0,0.0,0.0,0.0,0.0,0.0,0.0,0.0,0.0,-0.0051,-0.0807,-0.116,-0.121,-0.2017,-0.2318,-0.2217,-0.1462,-0.115,-0.1235,-0.1925,-0.2138,-0.2092,-0.2092,-0.2111,-0.2078,-0.209,-0.1608,-0.0995,-0.0995,-0.0543,0.0,0.0,0.0,0.0,0.0,0.0,0.0,0.0,0.0,0.0,0.0,0.0,0.0,0.0,0.0,0.0,0.0,0.0,0.0,0.0,-0.1265,-0.2585,-0.3514,-0.3882,-0.419,-0.4654,-0.4994,-0.5129,-0.496,-0.5275,-0.5384,-0.5251,-0.4936,-0.4717,-0.4564,-0.431,-0.3851,-0.3124,-0.3221,-0.3141,-0.2883,-0.237,-0.2292,-0.2614,-0.2062,-0.1725,0.0,0.0,-0.1188,0.1171,0.211,0.2845,0.4225,0.463,0.4775,0.4879,0.4803,0.4716,0.4673,0.4571,0.4496,0.4503,0.4621,0.466,0.4576,0.3399,0.2534,0.2436,0.1,0.0585,0.0,0.0838,0.0,0.0,0.0,0.0,0.0,0.0,0.0,0.0,0.0,0.0,0.0,0.0,0.0,0.0,0.0,0.0,0.0,0.0,0.0,0.0,-0.0051,-0.0051,-0.0051,-0.0101,-0.0101,-0.0101,-0.0051,-0.005,-0.005,-0.0101,-0.0099,-0.0095,-0.0095,-0.0094,-0.0093,-0.0095,-0.0047,-0.0046,-0.0046,0.0,0.0,0.0,0.0,0.0,0.0,0.0,0.0,0.0,0.0,0.0,0.0,0.0,0.0,0.0,0.0,0.0,0.0,0.0,0.0,0.0,-0.0042,-0.05,-0.1546,-0.2538,-0.3085,-0.2891,-0.3636,-0.4066,-0.3865,-0.4627,-0.502,-0.4833,-0.413,-0.367,-0.3449,-0.2651,-0.2179,-0.214,-0.2162,-0.2134,-0.213,-0.2109,-0.1781,-0.1177,-0.114,-0.0759,0.0,0.0,0.1667,0.3378,0.3885,0.4378,0.5848,0.6346,0.6791,0.7522,0.769,0.7454,0.6773,0.6308,0.59,0.5318,0.514,0.4984,0.4629,0.4192,0.3497,0.2531,0.2621,0.0,0.0,0.0,0.0,0.1371,0.0735,0.0262,0.0262,0.0471,0.0576,0.0576,0.0621,0.0617,0.0617,0.0617,0.0562,0.0556,0.0556,0.0455,0.0253,0.0253,0.0152,0.0,0.0,0.0,0.0,0.0,0.0,0.0,0.0,0.0,0.0,0.0,0.0,0.0,0.0,0.0,0.0,0.0,0.0,0.0,0.0,0.0,0.0,0.0,0.0,0.0,0.0,0.0,0.0,0.0,0.0,0.0,0.0,0.0,0.0,0.0,0.0,0.0,0.0,0.0,0.0,0.0,-0.051,-0.1006,-0.1372,-0.2154,-0.2683,-0.2604,-0.2882,-0.3012,-0.2934,-0.3221,-0.3359,-0.3286,-0.2948,-0.2724,-0.2686,-0.2388,-0.2,-0.1458,-0.1529,-0.1511,-0.1436,-0.0934,-0.085,-0.1076,-0.0599,-0.0248,0.0,0.4312,0.5324,0.7147,0.7809,0.8102,0.8582,0.8902,0.9023,0.8722,0.856,0.8094,0.6945,0.6358,0.5877,0.5297,0.5064,0.4812,0.4523,0.3995,0.3329,0.2358,0.2628,0.2832,0.0,0.0,0.0,0.2899,0.1816,0.1278,0.1862,0.2076,0.2175,0.2056,0.2085,0.2066,0.2001,0.2,0.1785,0.1362,0.0959,0.0707,0.0556,0.0556,0.0455,0.0303,0.0303,0.0303,0.0303,0.0303,0.0303,0.0253,0.0202,0.0152,0.0152,0.0051,0.0,0.0,0.0,0.0,0.0,0.0,0.0,0.0,0.0,0.0,0.0,0.0,0.0,0.0,0.0,0.0,0.0,0.0,0.0,0.0,0.0,0.0,0.0,0.0,0.0,0.0,0.0,0.0,0.0,0.0,-0.0478,-0.0856,-0.0843,-0.1286,-0.1597,-0.1624,-0.1881,-0.2054,-0.2075,-0.2347,-0.2503,-0.2503,-0.2162,-0.1953,-0.1953,-0.1648,-0.1217,-0.0712,-0.0804,-0.0795,-0.0721,-0.0222,-0.0255,-0.0693,-0.0215,0.0,0.6986,0.8497,0.9673,1.222,1.3421,1.3562,1.2295,1.2077,1.1359,0.8388,0.7418,0.6631,0.0,0.0,0.4358,0.4327,0.4176,0.4009,0.4028,0.2801,0.1947,0.0,0.0,0.0,0.0,0.0,0.0,0.4647,0.0,0.2982,0.4468,0.4519,0.4429,0.4248,0.4241,0.4203,0.4078,0.4074,0.3522,0.252,0.1514,0.101,0.0959,0.0959,0.0959,0.0959,0.0959,0.0959,0.0959,0.0959,0.0959,0.0959,0.0707,0.0555,0.0454,0.0202,0.0101,0.0,0.0,0.0,0.0,0.0,0.0,0.0,0.0,0.0,0.0,0.0,0.0,0.0,0.0,0.0,0.0,0.0,0.0,0.0,0.0,0.0,0.0,0.0,0.0,0.0,0.0,0.0,0.0,0.0,0.0,0.0,0.0,0.0,0.0,0.0,-0.0732,-0.1247,-0.1219,-0.1919,-0.2386,-0.2386,-0.1645,-0.1215,-0.1215,-0.0432,0.0,0.0,0.0,0.0,0.0,0.0,0.0,0.0,0.0,0.0,1.0042,1.1558,1.2652,1.3433,1.3939,1.3898,1.2464,1.2069,1.1164,0.7959,0.6934,0.6026,0.0,0.0,0.0,0.2079,0.1861,0.0,0.1401,0.1254,0.0,0.2054,0.0,0.433,0.557,0.5676,0.0,0.0,0.5579,0.4409,0.4794,0.4905,0.4916,0.4893,0.4884,0.4839,0.4818,0.4805,0.4618,0.4259,0.3949,0.3671,0.3469,0.3469,0.3369,0.3167,0.3167,0.3167,0.3167,0.3167,0.3167,0.3167,0.3116,0.2615,0.1864,0.1813,0.116,0.0303,0.0303,0.015,0.0,0.0,0.0,0.0,0.0,0.0,0.0,0.0,0.0,0.0,0.0,0.0,0.0,0.0,0.0,0.0,0.0,0.0,0.0,0.0,0.0,0.0,0.0,0.0,0.0,0.0,0.0,0.0,0.0,0.0,0.0,0.0,-0.0208,-0.0325,-0.0322,-0.0515,-0.0628,-0.0628,-0.0432,-0.0314,-0.0314,-0.0118,0.0,0.0,0.0,0.0,0.0,0.0,0.0,0.0,0.0,0.0,1.2547,1.3758,1.4652,1.5518,1.5938,1.558,1.3423,1.2915,1.1551,0.698,0.6194,0.0,0.3113,0.2827,0.0,0.0,0.0,0.0,0.2289,0.2474,0.2723,0.0,0.4325,0.0,0.5877,0.6547,0.7281,0.0,0.6614,0.5971,0.6642,0.665,0.6675,0.657,0.6611,0.6577,0.6577,0.6046,0.5784,0.5679,0.5069,0.4722,0.4572,0.4572,0.447,0.437,0.0,0.437,0.437,0.437,0.437,0.427,0.3718,0.3118,0.2517,0.1915,0.1211,0.0556,0.0556,0.0499,0.0345,0.0201,0.0251,0.0349,0.0352,0.0349,0.0344,0.0344,0.0334,0.0324,0.0324,0.0319,0.0314,0.0314,0.0226,0.0182,0.018,0.009,0.0,0.0,0.0,0.0,0.0,0.0,0.0,0.0,0.0,0.0,0.0,0.0,0.0,0.0,0.0,0.0,0.0,0.0,0.0,0.0,0.0,0.0,0.0,0.0,0.0,0.0,0.0,0.0,0.0,0.0,0.0,0.0,0.0,0.0,1.4866,1.563,1.6363,1.7896,1.8345,1.7535,1.4436,1.3593,1.1833,0.597,0.0,0.522,0.2842,0.3271,0.399,0.398,0.0,0.4664,0.4696,0.4709,0.4816,0.496,0.5159,0.539,0.5551,0.6692,0.7491,0.7491,0.7158,0.754,0.8826,0.8794,0.8648,0.8516,0.8492,0.8482,0.8482,0.7464,0.6924,0.6839,0.5785,0.5238,0.5225,0.5225,0.5225,0.5225,0.5225,0.5225,0.5225,0.5225,0.5225,0.5125,0.3922,0.3422,0.312,0.1966,0.1413,0.1262,0.1262,0.1298,0.1185,0.0653,0.0605,0.0805,0.0808,0.0798,0.0786,0.0788,0.0767,0.0697,0.0699,0.0735,0.0724,0.0724,0.0596,0.0462,0.0454,0.0229,0.0046,0.0,0.0,0.0,0.0,0.0,0.0,0.0,0.0,0.0,0.0,0.0,0.0,0.0,0.0,0.0,0.0,0.0,0.0,0.0,0.0,0.0,0.0,0.0,0.0,0.0,0.0,0.0,0.0,0.0,0.0,0.0,0.0,0.0,1.749,1.8537,1.9024,1.9356,1.87,1.7073,1.3445,1.2102,0.0,0.0,0.5425,0.5326,0.3681,0.3634,0.3876,0.397,0.4181,0.4383,0.4687,0.4821,0.5342,0.0,0.0,0.0,0.0,0.8694,0.0,0.0,0.8624,0.8657,0.8881,0.8794,0.8699,0.8672,0.855,0.8482,0.8482,0.8295,0.8059,0.7775,0.7718,0.7601,0.7434,0.7434,0.7434,0.7434,0.7434,0.0,0.7434,0.7434,0.7434,0.7434,0.7185,0.6531,0.5732,0.5532,0.4726,0.377,0.377,0.376,0.3454,0.1411,0.075,0.0792,0.0804,0.0798,0.0788,0.0801,0.0782,0.0762,0.0774,0.0766,0.0802,0.0802,0.0757,0.0711,0.0708,0.052,0.0284,0.0047,0.0,0.0,0.0,0.0,0.0,0.0,0.0,0.0,0.0,0.0,0.0,0.0,0.0,0.0,0.0,0.0,0.0,0.0,0.0,0.0,0.0,0.0,0.0,0.0,0.0,0.0,0.0,0.0,0.0,0.0,0.0,0.0079,1.9357,1.979,1.9491,1.8893,1.7785,1.597,1.2513,0.0,0.0,0.0,0.588,0.6077,0.4792,0.5213,0.0,0.5966,0.6321,0.6663,0.6999,0.7147,0.0,0.0,0.0,0.0,0.0,0.9086,0.9042,0.9042,0.8977,0.8885,0.8885,0.8794,0.871,0.871,0.8638,0.8638,0.872,0.856,0.8411,0.8269,0.8187,0.8109,0.7988,0.7988,0.7988,0.7988,0.7988,0.7988,0.7988,0.7988,0.7988,0.7939,0.7388,0.6836,0.6334,0.5782,0.5175,0.4622,0.4622,0.4622,0.4422,0.3271,0.2902,0.2886,0.2862,0.2486,0.2062,0.2032,0.1608,0.1147,0.1158,0.1152,0.1144,0.1144,0.1097,0.0956,0.0821,0.072,0.0572,0.0429,0.0429,0.043,0.0435,0.0436,0.0436,0.0436,0.0428,0.0374,0.0232,0.0227,0.0135,0.0,0.0,0.0,0.0,0.0,0.0,0.0,0.0,0.0,0.0,0.0,0.0,0.0,0.0,0.0,0.0,0.0,0.0,0.0,0.0118,0.0196,2.103,2.0771,1.9762,1.848,1.6968,1.4854,1.1443,1.0355,0.0,0.0,0.6384,0.6827,0.5938,0.0,0.7597,0.0,0.8187,0.8645,0.9064,0.9084,0.919,0.0,0.0,0.0,0.92,0.9052,0.0,0.8984,0.8902,0.8868,0.8838,0.8808,0.8743,0.8713,0.871,0.8754,0.8842,0.8601,0.8448,0.8384,0.8184,0.8022,0.7988,0.7988,0.7988,0.7988,0.7988,0.7988,0.7988,0.7988,0.7988,0.7939,0.7089,0.6736,0.6634,0.5779,0.5477,0.5477,0.5477,0.5477,0.5477,0.5477,0.5175,0.4824,0.4824,0.4217,0.3526,0.354,0.2722,0.1872,0.1881,0.169,0.1497,0.1497,0.14,0.1212,0.0935,0.0879,0.0869,0.0821,0.0821,0.0776,0.0788,0.079,0.079,0.079,0.0778,0.0715,0.0513,0.0503,0.0361,0.0135,0.0045,0.0,0.0,0.0,0.0,0.0,0.0,0.0,0.0,0.0,0.0,0.0,0.0,0.0039,0.0079,0.0079,0.0079,0.0118,0.0316,0.0396,2.2667,2.2324,2.1086,1.942,1.7185,1.4277,1.0201,0.0,0.0,0.6322,0.6612,0.7051,0.6962,0.0,0.0,0.0,0.0,0.8096,0.8669,0.8632,0.8706,0.0,0.0,0.0,0.9207,0.9197,0.919,0.919,0.9011,0.8821,0.8737,0.8849,0.8801,0.8716,0.871,0.8652,0.8526,0.8496,0.8347,0.8032,0.8197,0.8177,0.7988,0.7988,0.7988,0.7988,0.7988,0.7988,0.0,0.7988,0.7988,0.7988,0.7889,0.7839,0.7839,0.7739,0.7686,0.7686,0.7686,0.7686,0.7686,0.7686,0.6379,0.4824,0.4824,0.4712,0.4657,0.464,0.3861,0.304,0.3043,0.2309,0.1609,0.1609,0.1558,0.1509,0.1209,0.1157,0.1106,0.0854,0.0804,0.0804,0.0806,0.0806,0.0806,0.0806,0.0793,0.0778,0.0763,0.0748,0.0641,0.0404,0.0135,0.0,0.0,0.0,0.0,0.0,0.0,0.0,0.0,0.0,0.0,0.0,0.0,0.008,0.0275,0.0275,0.0353,0.055,0.0643,0.0771,2.4131,2.3512,2.1682,1.9072,1.6249,1.3167,0.955,0.0,0.756,0.6828,0.6922,0.7095,0.7095,0.7146,0.7312,0.756,0.7648,0.0,0.8781,0.875,0.892,0.9763,0.9602,0.0,0.0,0.0,0.9245,0.9022,0.8971,0.8817,0.872,0.8801,0.8814,0.8716,0.871,0.8635,0.8482,0.8397,0.8296,0.8177,0.8147,0.8099,0.7988,0.7988,0.7988,0.7988,0.7988,0.7988,0.0,0.7988,0.7988,0.7988,0.7988,0.7988,0.7988,0.7988,0.7988,0.7988,0.7988,0.7988,0.7988,0.7988,0.7434,0.6731,0.6731,0.6297,0.5775,0.5767,0.4503,0.3194,0.3217,0.2422,0.1617,0.1617,0.1617,0.1566,0.1465,0.1465,0.1415,0.1313,0.1263,0.1263,0.1263,0.1263,0.1258,0.1294,0.1271,0.1149,0.0986,0.0966,0.0814,0.0449,0.0314,0.0179,0.0,0.0,0.0,0.0,0.0,0.0,0.0,0.0,0.0,0.0,0.0167,0.0246,0.0281,0.0481,0.0558,0.0589,0.0754,0.0876,2.4654,2.3919,2.1775,1.8565,1.554,1.2452,0.0,0.0,0.7512,0.7159,0.7095,0.7095,0.7095,0.7095,0.7183,0.7489,0.7533,0.7861,0.872,0.8732,0.9072,0.0,0.0,0.9732,0.0,0.9894,0.9412,0.9147,0.9133,0.9088,0.8986,0.8975,0.8856,0.8648,0.8645,0.857,0.8421,0.8371,0.8248,0.8201,0.8092,0.7988,0.7988,0.7988,0.7988,0.7988,0.7988,0.7988,0.0,0.7988,0.7988,0.7988,0.7988,0.7988,0.7988,0.7988,0.7988,0.7988,0.7988,0.7988,0.7988,0.7988,0.7988,0.7988,0.7988,0.7487,0.6786,0.6487,0.4878,0.3123,0.2822,0.217,0.1617,0.1617,0.1617,0.1617,0.1617,0.1617,0.1617,0.1617,0.1617,0.1617,0.1617,0.1617,0.1609,0.1588,0.1566,0.1446,0.1275,0.1249,0.1048,0.0634,0.0585,0.0449,0.0045,0.009,0.0135,0.0135,0.018,0.0225,0.0225,0.0221,0.0219,0.0218,0.0386,0.0505,0.0493,0.0699,0.0775,0.0802,0.0969,0.105,2.3951,2.3287,2.1302,1.8106,1.528,1.2348,0.0,0.0,0.7512,0.7159,0.7095,0.7095,0.7095,0.7095,0.7146,0.735,0.7419,0.7663,0.8401,0.8497,0.8993,0.0,0.0,0.9766,1.0586,1.0158,0.9745,0.9581,0.9719,0.0,0.9574,0.9355,0.8962,0.8542,0.8482,0.8418,0.8327,0.8323,0.8194,0.7992,0.7988,0.7988,0.7988,0.7988,0.7988,0.7988,0.7988,0.7988,0.0,0.7988,0.7988,0.7988,0.7988,0.7988,0.7988,0.7988,0.7988,0.7988,0.7988,0.7988,0.7988,0.7988,0.7988,0.7988,0.7988,0.7988,0.7739,0.6686,0.4878,0.2973,0.1868,0.1617,0.1617,0.1617,0.1617,0.1617,0.1617,0.1617,0.1617,0.1617,0.1617,0.1617,0.1617,0.1617,0.1617,0.1616,0.1616,0.1605,0.1575,0.1544,0.1371,0.1113,0.109,0.0808,0.0045,0.0224,0.0403,0.0403,0.0583,0.0673,0.0673,0.0672,0.0711,0.0697,0.0696,0.0775,0.101,0.101,0.1094,0.1305,0.1376,0.1373,2.1472,2.0755,1.9012,1.6169,1.3529,1.0965,0.8316,0.0,0.7213,0.7115,0.7095,0.7095,0.7095,0.7095,0.7146,0.7346,0.7282,0.7552,0.0,0.0,0.0,1.1602,1.1689,1.133,0.0,0.0,1.0014,0.9742,0.9786,0.9794,0.9738,0.9572,0.9275,0.8797,0.8491,0.8265,0.8113,0.8113,0.8089,0.7988,0.7988,0.7988,0.7988,0.7988,0.7988,0.7988,0.7988,0.7988,0.7988,0.7988,0.7988,0.7988,0.7988,0.7988,0.7988,0.7988,0.7988,0.7988,0.7988,0.7988,0.7988,0.7988,0.7988,0.7988,0.7988,0.7988,0.7637,0.5829,0.4275,0.2973,0.1869,0.1617,0.1617,0.1617,0.1617,0.1617,0.1617,0.1617,0.1617,0.1617,0.1617,0.1617,0.1617,0.1617,0.1617,0.1617,0.1599,0.1582,0.1622,0.1527,0.1398,0.1111,0.109,0.0942,0.0494,0.0538,0.0583,0.0583,0.0673,0.0718,0.0718,0.0718,0.0715,0.0711,0.0888,0.0967,0.0991,0.1205,0.1281,0.1306,0.1315,0.1303,0.0,1.8036,1.658,1.3759,1.1436,0.0,0.0,0.0,0.5797,0.5797,0.5933,0.6115,0.6425,0.6609,0.6879,0.7346,0.7424,0.7791,0.0,0.0,0.0,1.2127,0.0,0.0,0.0,1.0824,1.0848,1.0198,1.0143,1.0143,1.0143,0.9869,0.9561,0.9304,0.8733,0.8346,0.8137,0.8038,0.7988,0.7988,0.7988,0.7988,0.7988,0.7988,0.7988,0.7988,0.7988,0.7988,0.0,0.7988,0.7988,0.7988,0.7988,0.7988,0.7988,0.7988,0.7988,0.7988,0.7988,0.7988,0.7988,0.7988,0.7739,0.7388,0.7388,0.7135,0.6429,0.4676,0.3423,0.2421,0.1768,0.1617,0.1617,0.1617,0.1617,0.1617,0.1617,0.1617,0.1617,0.1617,0.1617,0.1617,0.1617,0.1617,0.1617,0.1617,0.16,0.1589,0.1589,0.1546,0.1467,0.1325,0.1246,0.118,0.0998,0.0901,0.0852,0.0852,0.0942,0.0987,0.0987,0.0987,0.0987,0.0987,0.1121,0.1203,0.1145,0.132,0.1398,0.1338,0.1338,0.1322,0.0,0.0,0.0,0.0,0.0,0.0,0.0,0.0,0.0,0.3614,0.3974,0.4512,0.527,0.5766,0.6388,0.7242,0.7766,0.8291,0.0,1.0475,0.0,0.0,1.3963,0.0,1.0902,1.1705,1.1932,1.0798,1.0692,1.0688,1.0676,1.0162,0.9889,1.0002,0.9198,0.8664,0.84,0.8141,0.8041,0.7988,0.7988,0.7988,0.7988,0.7988,0.7988,0.0,0.7988,0.7988,0.7988,0.7988,0.7988,0.7988,0.7988,0.7988,0.7988,0.7988,0.7988,0.7988,0.7988,0.7988,0.7988,0.7889,0.7188,0.6387,0.6234,0.5479,0.4474,0.3473,0.2422,0.1617,0.1617,0.1617,0.1617,0.1617,0.1617,0.1617,0.1617,0.1617,0.1617,0.1617,0.1617,0.1617,0.1617,0.1617,0.1617,0.1617,0.1617,0.1617,0.1617,0.159,0.162,0.162,0.1519,0.1483,0.1481,0.1271,0.1121,0.1121,0.13,0.1391,0.1391,0.1391,0.1391,0.1391,0.1391,0.1391,0.1391,0.1391,0.1391,0.1391,0.1391,0.1418,0.0,0.0,0.0,0.0,0.0,0.0,0.0,0.0,0.0,0.0,0.0,0.4512,0.527,0.5766,0.6314,0.7053,0.7739,0.8299,0.8691,0.0,0.0,1.4537,1.5267,1.4645,1.1895,1.2105,1.1932,1.0798,1.0692,1.0635,1.0501,1.0488,1.0289,0.9919,0.9657,0.9242,0.8621,0.8396,0.8187,0.7988,0.7988,0.7988,0.7988,0.7988,0.7988,0.7988,0.7988,0.7988,0.7988,0.7988,0.7988,0.7988,0.7988,0.7988,0.7988,0.7988,0.7988,0.7988,0.7988,0.7988,0.7889,0.7036,0.6587,0.6084,0.4427,0.3775,0.3524,0.3274,0.2422,0.1617,0.1617,0.1617,0.1617,0.1617,0.1617,0.1617,0.1617,0.1617,0.1617,0.1617,0.1617,0.1617,0.1617,0.1617,0.1617,0.1617,0.1617,0.1617,0.1617,0.159,0.162,0.162,0.1538,0.1506,0.1483,0.1407,0.1345,0.1345,0.139,0.1391,0.1391,0.1391,0.1391,0.1391,0.1391,0.1391,0.1391,0.1391,0.1391,0.1391,0.1391,0.1418,0.0,0.0,0.419,0.3145,0.2846,0.2679,0.2102,0.0,0.0,0.0,0.0,0.3318,0.4475,0.5297,0.6142,0.7075,0.7898,0.0,0.0,0.0,1.4348,1.5131,1.5828,1.5379,0.0,1.3585,1.3545,1.2363,1.2254,1.2166,1.1912,1.1917,1.1773,1.149,1.1254,1.0411,0.892,0.8578,0.8333,0.8184,0.8038,0.7988,0.7988,0.7988,0.7988,0.7988,0.7988,0.7988,0.7988,0.7988,0.7988,0.7988,0.7988,0.7988,0.7988,0.7988,0.7988,0.7988,0.7988,0.769,0.7185,0.6587,0.5732,0.473,0.3575,0.2873,0.2471,0.2471,0.207,0.1617,0.1617,0.1617,0.1617,0.1617,0.1617,0.1617,0.1617,0.1617,0.1617,0.1617,0.1617,0.1617,0.1617,0.1617,0.1617,0.1617,0.1617,0.1617,0.1617,0.1603,0.1592,0.1592,0.1565,0.154,0.1523,0.1494,0.1419,0.1392,0.1391,0.1391,0.1391,0.1391,0.1391,0.1391,0.1391,0.1391,0.1391,0.1391,0.1391,0.1391,0.1391,0.1382,-0.3482,-0.1383,0.0714,-0.0312,0.0045,0.0492,-0.0135,0.0,0.0,0.0,0.0,0.0,0.3643,0.4858,0.0,0.0,0.0,0.0,1.2569,1.3805,1.4635,1.534,1.6271,0.0,1.4473,1.5293,1.5375,1.4186,1.4078,1.3981,1.3745,1.3552,1.3413,1.3282,1.2941,1.1697,0.9525,0.8977,0.8577,0.8382,0.8137,0.7988,0.7988,0.7988,0.7988,0.7988,0.0,0.0,0.7988,0.7988,0.7988,0.7988,0.7988,0.7988,0.7988,0.7988,0.7988,0.7988,0.7988,0.7288,0.6387,0.6184,0.4828,0.3173,0.3022,0.2321,0.1617,0.1617,0.1617,0.1617,0.1617,0.1617,0.1617,0.1617,0.1617,0.1617,0.1617,0.1617,0.1617,0.1617,0.1617,0.1617,0.1617,0.1617,0.1617,0.1617,0.1617,0.1617,0.1617,0.1617,0.1617,0.1617,0.1594,0.1577,0.1621,0.1548,0.1507,0.1401,0.1397,0.1395,0.1391,0.1391,0.1391,0.1391,0.1391,0.1391,0.1391,0.1391,0.1391,0.1391,0.1391,0.1391,-0.3578,-0.3255,-0.2891,-0.3015,-0.2188,-0.1387,-0.1478,0.0,0.0,0.0,0.0,0.0,0.0,0.5349,0.634,0.0,0.0,1.1317,0.0,0.0,1.6017,1.7062,0.0,1.6853,1.5327,1.5617,1.5375,1.4186,1.4078,1.4035,1.3861,1.3755,1.3499,1.3202,1.3027,1.2296,1.0935,1.0342,0.9509,0.8382,0.8137,0.7988,0.7988,0.7988,0.7988,0.7988,0.0,0.7988,0.7988,0.7988,0.7988,0.7988,0.7988,0.7988,0.7988,0.7988,0.7988,0.7988,0.7988,0.7288,0.6234,0.5327,0.4225,0.3022,0.2119,0.1717,0.1617,0.1617,0.1617,0.1617,0.1617,0.1617,0.1617,0.1617,0.1617,0.1617,0.1617,0.1617,0.1617,0.1617,0.1617,0.1617,0.1617,0.1617,0.1617,0.1617,0.1617,0.1617,0.1617,0.1617,0.1617,0.1617,0.1613,0.1599,0.1623,0.1567,0.1538,0.1478,0.1474,0.1462,0.1391,0.1391,0.1391,0.1391,0.1391,0.1391,0.1391,0.1391,0.1391,0.1391,0.1391,0.1391,-0.353,-0.3609,-0.3638,-0.3608,-0.2538,-0.1384,-0.0944,-0.0285,0.0,0.0,0.0,0.0,0.0,0.0,0.7674,0.9763,0.0,1.2481,1.4688,1.5509,1.6137,0.0,0.0,1.6968,1.6612,1.6753,1.6611,1.6015,1.5887,1.5692,1.5423,1.522,1.4959,1.4619,1.4564,1.3722,1.2047,1.1463,1.0342,0.8627,0.8187,0.7988,0.7988,0.7988,0.7988,0.7988,0.0,0.7988,0.7988,0.7988,0.7988,0.7988,0.7988,0.7988,0.7988,0.7988,0.7988,0.7988,0.7988,0.6933,0.5479,0.4974,0.3674,0.222,0.1768,0.1617,0.1617,0.1617,0.1617,0.1617,0.1617,0.1617,0.1617,0.1617,0.1617,0.1617,0.1617,0.1617,0.1617,0.1617,0.1617,0.1617,0.1617,0.1617,0.1617,0.1617,0.1617,0.1617,0.1617,0.1617,0.1617,0.1617,0.1617,0.1611,0.1597,0.1596,0.1563,0.1485,0.1466,0.145,0.1391,0.1391,0.1391,0.1391,0.1391,0.1391,0.1391,0.1391,0.1391,0.1391,0.1391,0.1391,-0.2814,-0.2958,-0.2934,-0.2599,0.0,-0.1094,-0.0198,0.0444,0.0,0.0,0.0,0.0,0.0,0.739,0.0,1.1665,1.2665,1.3661,1.5171,1.5878,1.6433,1.6961,1.6954,1.7088,1.7542,1.7582,1.7555,1.7482,1.7326,1.7072,1.672,1.6433,1.6166,1.5939,1.5621,1.4573,1.2727,1.195,1.0632,0.8775,0.8237,0.7988,0.7988,0.7988,0.7988,0.7988,0.7988,0.7988,0.7988,0.7988,0.7988,0.7988,0.7988,0.7988,0.7988,0.7988,0.7988,0.7988,0.7988,0.6781,0.5177,0.5177,0.3725,0.1969,0.1969,0.1818,0.1617,0.1617,0.1617,0.1617,0.1617,0.1617,0.1617,0.1617,0.1617,0.1667,0.1919,0.1768,0.1667,0.1919,0.1768,0.1617,0.1617,0.1617,0.1617,0.1617,0.1617,0.1617,0.1617,0.1617,0.1617,0.1617,0.1617,0.1617,0.1617,0.161,0.1577,0.1506,0.1473,0.1408,0.1401,0.1401,0.1397,0.1391,0.1391,0.1391,0.1391,0.1391,0.1391,0.1391,0.1391,0.1391,-0.0896,-0.1154,-0.1046,0.0427,-0.0524,0.0,-0.0249,0.1054,0.0,0.4155,0.0,0.0,0.0,0.8787,1.0542,1.1475,1.3415,1.5241,1.6318,0.0,1.7582,1.7856,1.7695,1.7535,1.7582,1.7582,1.7521,1.7253,1.7213,1.7072,1.672,1.6433,1.6308,1.6246,1.5053,1.3854,1.2732,1.1219,0.9948,0.8775,0.8237,0.7988,0.7988,0.7988,0.7988,0.7988,0.7988,0.7988,0.7988,0.7988,0.7988,0.7988,0.7988,0.7988,0.7988,0.7988,0.7988,0.7988,0.7988,0.7238,0.6284,0.6284,0.483,0.3073,0.3073,0.2371,0.1617,0.1617,0.1617,0.1617,0.1617,0.1617,0.1617,0.1617,0.1617,0.1869,0.2873,0.2321,0.1918,0.2873,0.227,0.1617,0.1617,0.1617,0.1617,0.1617,0.1617,0.1617,0.1617,0.1617,0.1617,0.1617,0.1617,0.1617,0.1617,0.1591,0.1621,0.1614,0.1536,0.1507,0.1478,0.1478,0.1464,0.1391,0.1391,0.1391,0.1391,0.1391,0.1391,0.1391,0.1391,0.1391,0.0774,0.0886,0.1148,0.2542,0.2291,0.0,0.0,0.3093,0.4018,0.5174,0.6017,0.0,0.0,0.0,1.1836,1.4039,1.5099,1.6118,1.7312,1.7575,1.7622,1.7742,1.7495,1.7367,1.7367,1.7148,1.6994,1.6881,1.6707,1.6603,1.644,1.6159,1.5999,1.5999,1.5504,1.443,1.2732,1.1799,1.0485,0.8775,0.8237,0.7988,0.7988,0.7988,0.7988,0.7988,0.7988,0.7988,0.7988,0.7988,0.7988,0.7988,0.7988,0.7988,0.7988,0.7988,0.7988,0.7988,0.7988,0.7288,0.6284,0.5629,0.4425,0.3074,0.2422,0.1919,0.1617,0.1617,0.1617,0.1617,0.1617,0.1617,0.1768,0.2422,0.2572,0.2873,0.3974,0.3374,0.2722,0.3123,0.2321,0.1617,0.1617,0.1617,0.1617,0.1617,0.1617,0.1617,0.1617,0.1617,0.1617,0.1617,0.1617,0.1617,0.1617,0.1607,0.16,0.16,0.1553,0.1513,0.1482,0.148,0.1466,0.1391,0.1391,0.1391,0.1391,0.1391,0.1391,0.1391,0.1391,0.1391,0.1657,0.2062,0.2536,0.4166,0.0,0.0,0.522,0.5263,0.543,0.6412,0.704,0.0,0.0,0.0,0.0,0.0,1.6244,1.6902,1.7735,1.7716,1.7549,1.7455,1.7326,1.7166,1.7072,1.682,1.6667,1.6573,1.6386,1.6233,1.6139,1.5939,1.5784,1.5784,1.5146,1.4082,1.2581,1.1458,1.0141,0.8676,0.8237,0.7988,0.7988,0.7988,0.7988,0.7988,0.7988,0.7988,0.7988,0.7988,0.7988,0.7988,0.7988,0.7988,0.7988,0.7988,0.7988,0.7988,0.7988,0.7537,0.6736,0.5679,0.4576,0.3524,0.2422,0.1869,0.1617,0.1617,0.1617,0.1617,0.1617,0.1617,0.1768,0.2521,0.2671,0.2973,0.4074,0.3473,0.2772,0.3123,0.2321,0.1617,0.1617,0.1617,0.1617,0.1617,0.1617,0.1617,0.1617,0.1617,0.1617,0.1617,0.1617,0.1617,0.1617,0.1617,0.1617,0.1617,0.1578,0.1541,0.151,0.15,0.148,0.1451,0.1395,0.1391,0.1391,0.1391,0.1391,0.1391,0.1391,0.1391,0.1709,0.2201,0.2991,0.0,0.0,0.0,0.7944,0.728,0.6725,0.8059,0.8647,0.9328,1.067,1.2161,0.0,1.5023,1.6541,1.7582,1.7582,1.7575,1.7468,1.7233,1.7192,1.7072,1.6734,1.67,1.658,1.6342,1.6321,1.6139,1.5798,1.5778,1.5778,1.5778,1.3794,1.2581,1.229,0.9998,0.8676,0.8382,0.8137,0.7988,0.7988,0.7988,0.7988,0.7988,0.7988,0.7988,0.7988,0.7988,0.7988,0.7988,0.7988,0.7988,0.7988,0.7988,0.7988,0.7988,0.7988,0.7988,0.7789,0.6736,0.5679,0.4574,0.3524,0.2421,0.1617,0.1617,0.1617,0.1617,0.1617,0.1617,0.1617,0.1617,0.1617,0.1919,0.2973,0.2371,0.1919,0.2973,0.2321,0.1617,0.1617,0.1617,0.1617,0.1617,0.1617,0.1617,0.1617,0.1617,0.1617,0.1617,0.1617,0.1617,0.1617,0.1617,0.1617,0.1617,0.1617,0.1603,0.1621,0.1542,0.1512,0.148,0.1451,0.1391,0.1391,0.1391,0.1391,0.1391,0.1391,0.1391,0.3037,0.4063,0.0,0.6918,0.0,0.0,0.0,0.8711,0.0,0.0,0.965,1.0783,1.2284,0.0,0.0,1.638,1.7005,1.7333,1.7333,1.7101,1.6934,1.6847,1.666,1.6549,1.6413,1.6213,1.6052,1.5965,1.5965,1.5919,1.5832,1.5112,1.4729,1.4729,1.3409,1.2242,1.1268,1.0391,0.941,0.8382,0.8137,0.7988,0.7988,0.7988,0.7988,0.7988,0.7988,0.7988,0.7988,0.7988,0.7988,0.7988,0.7988,0.7988,0.7988,0.7988,0.7537,0.6989,0.7739,0.7033,0.5677,0.5377,0.4526,0.3473,0.2422,0.1869,0.1617,0.1617,0.1617,0.1617,0.1617,0.1617,0.1768,0.2521,0.2723,0.3022,0.4074,0.3473,0.2822,0.3123,0.2321,0.1617,0.1617,0.1617,0.1617,0.1617,0.1617,0.1617,0.1617,0.1617,0.1617,0.1617,0.1617,0.1516,0.1314,0.1314,0.1263,0.1061,0.1061,0.1195,0.1494,0.1531,0.1455,0.145,0.1395,0.1391,0.1391,0.1391,0.1391,0.1391,0.1391,0.1345,0.3755,0.504,0.0,0.7899,0.8528,0.9195,1.0681,0.0,0.0,0.0,1.1151,1.2032,1.3515,1.4585,0.0,1.6662,1.7045,1.7159,1.7038,1.682,1.666,1.6547,1.638,1.6274,1.6106,1.5932,1.5784,1.5784,1.5784,1.5635,1.5207,1.4634,1.41,1.3661,1.2533,1.1512,1.0636,0.9948,0.9167,0.8233,0.8088,0.7988,0.7988,0.7988,0.7988,0.7988,0.7988,0.7988,0.7988,0.7988,0.7988,0.7988,0.7988,0.7988,0.7988,0.7988,0.7338,0.6487,0.7138,0.6232,0.4724,0.4323,0.3723,0.3024,0.1919,0.1516,0.1465,0.1566,0.1516,0.1465,0.1566,0.1617,0.1768,0.2422,0.2572,0.2723,0.3374,0.3022,0.2572,0.2572,0.2019,0.1617,0.1617,0.1617,0.1617,0.1617,0.1617,0.1617,0.1617,0.1516,0.1465,0.1465,0.1364,0.1212,0.1061,0.1061,0.096,0.0808,0.0808,0.0944,0.1194,0.1287,0.1367,0.1426,0.1402,0.1391,0.1391,0.1391,0.1391,0.1391,0.1391,0.1345,0.4153,0.5417,0.6752,0.8271,0.9507,0.0,1.1859,1.2565,1.2956,1.2835,0.0,1.3163,1.4348,1.4969,1.5563,1.6206,1.679,1.7025,1.67,1.6647,1.6526,1.6266,1.6233,1.6126,1.5804,1.5784,1.5784,1.5784,1.5737,1.5255,1.4346,1.41,1.3565,1.2581,1.1317,1.0489,1.0243,0.9019,0.8283,0.7988,0.7988,0.7988,0.7988,0.7988,0.7988,0.7988,0.7988,0.7988,0.7988,0.7988,0.7988,0.7988,0.7988,0.7988,0.7988,0.7889,0.7188,0.6234,0.6234,0.5479,0.4323,0.3473,0.3073,0.2822,0.1817,0.1364,0.1212,0.1465,0.1364,0.1212,0.1465,0.1516,0.1516,0.1566,0.1566,0.1617,0.1617,0.1617,0.1617,0.1617,0.1617,0.1617,0.1617,0.1617,0.1617,0.1617,0.1617,0.1566,0.1566,0.1364,0.1212,0.1162,0.096,0.0808,0.0758,0.0758,0.0758,0.0707,0.0707,0.0746,0.0768,0.0955,0.119,0.1471,0.1372,0.1345,0.139,0.139,0.1345,0.1345,0.1345,0.1345,0.5407,0.6613,0.0,0.8336,1.0495,1.277,1.373,1.4924,1.5218,1.3092,1.3645,1.4589,1.485,1.5733,1.6437,1.657,1.6526,1.6489,1.6422,1.6166,1.5992,1.5932,1.5925,1.5899,1.5791,1.5784,1.5784,1.5784,1.5064,1.4538,1.4298,1.2732,1.1658,1.1219,1.0109,0.9324,0.8825,0.8528,0.8283,0.7988,0.7988,0.7988,0.7988,0.7988,0.7988,0.7988,0.7988,0.7988,0.7988,0.7988,0.7988,0.7988,0.7988,0.7988,0.7889,0.7039,0.6082,0.5127,0.5127,0.3775,0.2068,0.2669,0.2168,0.1262,0.1061,0.0909,0.0909,0.096,0.0909,0.0909,0.096,0.096,0.101,0.1212,0.1465,0.1617,0.1617,0.1617,0.1617,0.1617,0.1617,0.1617,0.1617,0.1617,0.1617,0.1617,0.1617,0.1516,0.1314,0.1212,0.1111,0.0909,0.0859,0.0707,0.0505,0.0505,0.0404,0.0202,0.0152,0.0252,0.0499,0.0727,0.0986,0.1182,0.0946,0.0942,0.1166,0.1166,0.1076,0.0852,0.1076,0.0987,0.0,0.0,0.0,1.0648,0.0,1.4092,1.4912,1.5735,1.5843,1.4406,1.479,1.543,1.5569,1.609,1.6453,1.6306,1.6279,1.6226,1.6079,1.5925,1.5784,1.5784,1.5784,1.5784,1.5784,1.5784,1.5784,1.5784,1.4873,1.41,1.3559,1.2047,1.0832,1.0055,0.9373,0.8829,0.8382,0.8283,0.81,0.788,0.7955,0.7988,0.7988,0.7988,0.7988,0.7988,0.7988,0.7988,0.7988,0.7988,0.7988,0.7988,0.7988,0.7942,0.7693,0.6584,0.5429,0.4323,0.382,0.2468,0.1111,0.1665,0.1363,0.0808,0.0808,0.0707,0.0657,0.0758,0.0707,0.0657,0.0758,0.0808,0.0859,0.096,0.1111,0.1263,0.1364,0.1415,0.1415,0.1415,0.1516,0.1617,0.1617,0.1617,0.1617,0.1617,0.1516,0.1364,0.1212,0.096,0.0758,0.0606,0.0505,0.0354,0.0202,0.0202,0.0152,0.0,0.0,0.005,0.0199,0.0339,0.0567,0.097,0.077,0.0762,0.0897,0.0897,0.0852,0.0718,0.0852,0.0762,0.0,0.9202,1.0637,1.3341,1.4314,0.0,1.5671,1.5905,1.5892,1.5791,1.5784,1.5905,1.6152,1.6192,1.6112,1.5872,1.6039,1.6112,1.5865,1.5784,1.5784,1.5784,1.5784,1.5784,1.5784,1.5784,1.5784,1.5784,1.4723,1.3661,1.2732,1.1517,1.035,0.9183,0.8852,0.8601,0.8333,0.8086,0.7864,0.7814,0.7891,0.7951,0.7951,0.7978,0.7988,0.7988,0.7988,0.7988,0.7988,0.7988,0.7992,0.7942,0.7942,0.764,0.7141,0.6032,0.4826,0.3572,0.2517,0.1513,0.0707,0.0707,0.0707,0.0657,0.0657,0.0505,0.0354,0.0606,0.0505,0.0404,0.0606,0.0657,0.0657,0.0707,0.0707,0.0758,0.1061,0.1111,0.1111,0.1111,0.1314,0.1465,0.1465,0.1465,0.1465,0.1465,0.1263,0.1111,0.1061,0.0657,0.0404,0.0354,0.0152,0.0,0.0,0.0,0.0,0.0,0.0,0.0,0.0,0.0,0.019,0.0668,0.0596,0.0583,0.0628,0.0628,0.0628,0.0583,0.0628,0.0628,0.0,0.0,1.2356,0.0,1.466,1.4974,0.0,0.0,1.6139,0.0,1.5784,1.5791,1.5879,1.5885,1.5831,1.5791,1.5865,1.5872,1.5791,1.5784,1.5784,1.5784,1.5784,1.5784,1.5784,1.5784,1.5784,1.5784,1.3992,1.2829,1.2732,1.0645,0.9278,0.8874,0.8499,0.8203,0.8038,0.7787,0.7709,0.7811,0.7831,0.7841,0.7845,0.7931,0.7988,0.7988,0.7988,0.7988,0.7988,0.7988,0.7842,0.7646,0.7646,0.6936,0.5724,0.4676,0.3571,0.2467,0.1362,0.0757,0.0455,0.0455,0.0303,0.0101,0.0101,0.0101,0.0051,0.0101,0.0101,0.0051,0.0101,0.0101,0.0152,0.0404,0.0253,0.0253,0.0758,0.0859,0.0859,0.0859,0.0859,0.0909,0.0909,0.0909,0.0909,0.0909,0.0859,0.0758,0.0556,0.0455,0.0303,0.0101,0.0,0.0,0.0,0.0,0.0,0.0,0.0,0.0,0.0,0.0,0.0047,0.0095,0.0092,0.0224,0.0448,0.0448,0.0314,0.009,0.0314,0.0314,1.0456,1.2497,1.4218,0.0,1.5345,1.5441,1.5923,1.6025,1.5985,1.5804,1.5784,1.5784,1.5784,1.5784,1.5784,1.5784,1.5784,1.5784,1.5784,1.5784,1.5784,1.5784,1.5784,1.5784,1.5784,1.5784,1.5784,1.5784,1.389,1.263,1.2484,1.0404,0.8992,0.8454,0.8292,0.8056,0.7794,0.7665,0.7631,0.7692,0.7604,0.7651,0.7814,0.7882,0.7911,0.7988,0.7988,0.7988,0.7988,0.7988,0.7942,0.7743,0.6989,0.6229,0.5372,0.3569,0.2467,0.1814,0.0707,0.0253,0.0152,0.0152,0.0101,0.0,0.0,0.0,0.0,0.0,0.0,0.0,0.0,0.0,0.0051,0.0152,0.0101,0.0051,0.0303,0.0455,0.0606,0.0758,0.0808,0.0808,0.0808,0.0808,0.0808,0.0808,0.0657,0.0556,0.0404,0.0404,0.0303,0.0051,0.0152,0.0152,0.0,0.0,0.0,0.0,0.0,0.0,0.0,0.0,0.0,0.0,0.0,0.0045,0.018,0.018,0.0135,0.0,0.0135,0.0135,0.0,0.0,1.5357,1.5645,1.5718,1.5758,0.0,0.0,1.5804,0.0,1.5879,1.5784,1.5784,1.5784,1.5784,1.5784,1.5784,1.5784,1.5784,1.5784,1.5784,1.5784,1.5784,1.5784,1.5784,1.5784,1.5784,1.5784,1.389,1.2581,1.229,1.0252,0.8829,0.8268,0.8093,0.7921,0.7655,0.758,0.7522,0.7482,0.7407,0.7485,0.7699,0.774,0.7821,0.788,0.7917,0.7955,0.7985,0.7948,0.7905,0.7793,0.6786,0.6029,0.5275,0.3468,0.2316,0.1462,0.0707,0.0252,0.0,0.0,0.0,0.0,0.0,0.0,0.0,0.0,0.0,0.0,0.0,0.0,0.0,0.0,0.0,0.0,0.0,0.0152,0.0354,0.0556,0.0606,0.0606,0.0606,0.0606,0.0606,0.0606,0.0505,0.0354,0.0303,0.0354,0.0303,0.0051,0.0202,0.0202,0.0,0.0,0.0,0.0,0.0,0.0,0.0,0.0,0.0,0.0,0.0,0.0,0.0,0.0,0.0,0.0,0.0,0.0,0.0,1.4218,0.0,1.5344,1.5418,1.5565,0.0,0.0,1.5912,1.6192,1.6025,1.5784,1.5784,1.5784,1.5784,1.5784,1.5784,1.5784,1.5784,1.5784,1.5784,1.5784,1.5784,1.5784,1.5784,1.5784,1.5784,1.5784,1.389,1.2581,1.229,1.0096,0.8673,0.8421,0.79,0.7672,0.7797,0.7522,0.7309,0.7122,0.7305,0.7426,0.7446,0.7546,0.7614,0.7631,0.7767,0.7906,0.7978,0.7882,0.7713,0.7596,0.7547,0.6587,0.5229,0.5079,0.3572,0.1613,0.1513,0.0858,0.0,0.0,0.0,0.0,0.0,0.0,0.0,0.0,0.0,0.0,0.0,0.0,0.0,0.0,0.0,0.0,0.0,0.0,0.0,0.0051,0.0051,0.0051,0.0051,0.0051,0.0051,0.0051,0.0253,0.0303,0.0051,0.0253,0.0303,0.0051,0.0,0.0,0.0,0.0,0.0,0.0,0.0,0.0,0.0,0.0,0.0,0.0,0.0,0.0,0.0,0.0,0.0,0.0,0.0,0.0,0.0,0.0,0.0,1.5142,1.5257,1.5451,1.5665,1.5772,1.5811,1.5965,1.5905,1.5784,1.5784,1.5784,1.5784,1.5784,1.5784,1.5784,1.5784,1.5784,1.5784,1.5784,1.5784,1.5784,1.5784,1.5784,1.5784,1.5784,1.3746,1.2339,1.2047,0.9746,0.8243,0.7904,0.7607,0.7431,0.7334,0.7275,0.7149,0.7095,0.7152,0.7275,0.7419,0.7428,0.7506,0.7597,0.755,0.7668,0.7896,0.7891,0.7892,0.7739,0.6734,0.5977,0.5225,0.3522,0.2317,0.1513,0.0807,0.0303,0.0,0.0,0.0,0.0,0.0,0.0,0.0,0.0,0.0,0.0,0.0,0.0,0.0,0.0,0.0,0.0,0.0,0.0,0.0,0.0,0.0,0.0,0.0,0.0,0.0049,0.0244,0.0197,0.0248,0.0496,0.0602,0.0556,0.0303,0.0404,0.0354,0.0051,0.0,0.0,0.0,0.0,0.0,0.0,0.0,0.0,0.0,0.0,0.0,0.0,0.0,0.0,0.0,0.0,0.0,1.4295,0.0,0.0,0.0,1.5037,1.5177,1.5478,1.5618,1.5738,1.5939,1.5899,1.5784,1.5784,1.5784,1.5784,1.5784,1.5784,1.5784,1.5784,1.5784,1.5784,1.5784,1.5784,1.5784,1.5784,1.5493,1.5445,1.5784,1.3301,0.0,1.1896,0.9542,0.7944,0.7455,0.7397,0.7275,0.7028,0.7071,0.7095,0.7095,0.7095,0.7149,0.7292,0.7292,0.735,0.7441,0.7302,0.7373,0.7596,0.7649,0.768,0.7615,0.6517,0.5844,0.5225,0.347,0.2317,0.1513,0.0807,0.0303,0.0,0.0,0.0,0.0,0.0,0.0,0.0,0.0,0.0,0.0,0.0,0.0,0.0,0.0,0.0,0.0,0.0,0.0,0.0,0.0,0.0,0.0,0.0,0.0,0.0097,0.0337,0.0243,0.0246,0.0644,0.0651,0.0556,0.0303,0.0404,0.0404,0.0051,0.0,0.0,0.0,0.0,0.0,0.0,0.0,0.0,0.0,0.0,0.0,0.0,0.0,0.0,0.0,0.0,0.0,0.0,0.0,0.0,0.0,0.0,0.0,1.5611,1.5598,1.5571,1.6132,1.6025,1.5784,1.5784,1.5784,1.5784,1.5784,1.5784,1.5784,1.5784,1.5784,1.5784,1.5784,1.5784,1.5784,1.5784,1.4921,1.4729,1.5683,1.2721,1.1121,1.1799,0.9534,0.7846,0.7109,0.7285,0.7227,0.6896,0.7028,0.7095,0.7095,0.7095,0.7095,0.7095,0.7095,0.7095,0.7061,0.6986,0.6987,0.7095,0.702,0.7035,0.7027,0.7033,0.6273,0.5125,0.5129,0.3623,0.1613,0.1563,0.0858,0.0,0.0,0.0,0.0,0.0,0.0,0.0,0.0,0.0,0.0,0.0,0.0,0.0,0.0,0.0,0.0,0.0,0.0,0.0,0.0,0.0,0.0,0.0,0.0,0.0096,0.0342,0.0392,0.0395,0.0402,0.0404,0.0303,0.005,0.0,0.0,0.0,0.0,0.0,0.0,0.0,0.0,0.0,0.0,0.0,0.0,-0.0045,-0.0045,0.0,0.0,0.0,0.0,0.0,0.0,1.5061,0.0,0.0,0.0,0.0,0.0,0.0,1.5464,1.5698,1.5645,1.5738,1.5784,1.5784,1.5784,1.5784,1.5784,1.5784,1.5784,1.5784,1.5784,1.5784,1.5784,1.5784,1.5784,1.5784,1.554,1.5207,0.0,1.2775,1.1365,1.0828,0.8892,0.7549,0.7105,0.7136,0.7122,0.7038,0.7078,0.7095,0.7095,0.7095,0.7095,0.7095,0.7095,0.665,0.5849,0.5841,0.5243,0.4462,0.6206,0.6543,0.5942,0.5734,0.4999,0.3948,0.2954,0.2166,0.1513,0.0707,0.0252,0.0,0.0,0.0,0.0,0.0,0.0,0.0,0.0,0.0,0.0,0.0,0.0,0.0,0.0,0.0,0.0,0.0,0.0,0.0,0.0,0.0,0.0,0.0,0.0,0.0093,0.0376,0.0238,0.0241,0.063,0.0497,0.0352,0.0297,0.0301,0.0202,0.0,0.0,0.0,0.0,0.0,0.0,0.0,0.0,0.0,0.0,-0.0675,-0.0673,0.0,0.0,0.0,0.0,0.0,0.0,0.0,0.0,0.0,0.0,0.0,0.0,1.5169,1.5503,1.5779,1.5585,1.5759,1.5927,1.5825,1.5784,1.5784,1.5784,1.5784,1.5784,1.5784,1.5784,1.5784,1.5784,1.5784,1.5784,1.5784,1.5397,1.4867,1.419,1.2339,1.0657,0.93,0.8208,0.7431,0.7021,0.7065,0.7068,0.7007,0.7065,0.7095,0.7095,0.7095,0.7095,0.7095,0.6605,0.6027,0.5359,0.4734,0.3976,0.3314,0.4682,0.4937,0.442,0.4305,0.3617,0.2648,0.1902,0.1311,0.0858,0.0202,0.0,0.0,0.0,0.0,0.0,0.0,0.0,0.0,0.0,0.0,0.0,0.0,0.0,0.0,0.0,0.0,0.0,0.0,0.0,0.0,0.0,0.0,0.0,0.0,0.0,0.0092,0.037,0.0187,0.0142,0.0571,0.0392,0.0248,0.0243,0.0247,0.0149,0.0,0.0,0.0,0.0,0.0,0.0,0.0,-0.0362,-0.0581,-0.0532,-0.1461,-0.163,-0.1048,-0.075,-0.0395,0.0,-0.072,-0.0866,0.0,0.0,0.0,0.0,0.0,0.0,1.5271,1.5635,1.5848,1.5819,1.6021,1.6123,1.5873,1.5752,1.5745,1.5724,1.5785,1.5792,1.5778,1.5784,1.5784,1.5784,1.5784,1.5784,1.5784,1.4873,1.4142,1.3734,1.1502,0.9405,0.7708,0.76,0.74,0.6923,0.7031,0.7038,0.691,0.7034,0.7095,0.7095,0.6962,0.6918,0.6874,0.5714,0.5134,0.4912,0.3619,0.2952,0.2818,0.2648,0.2679,0.2823,0.2836,0.2248,0.1425,0.1402,0.0807,0.0,0.0,0.0,0.0,0.0,0.0,0.0,0.0,0.0,0.0,0.0,0.0,0.0,0.0,0.0,0.0,0.0,0.0,0.0,0.0,0.0,0.0,0.0,0.0,0.0,0.0,0.0,0.009,0.0323,0.0139,0.0093,0.0332,0.0145,0.0,0.0,0.0,0.0,0.0,0.0,0.0,0.0,0.0,0.0,0.0,-0.0808,-0.1244,-0.1304,-0.2208,-0.2696,-0.2684,-0.1884,-0.1102,-0.0325,-0.1823,-0.2106,0.0,0.0,0.0,0.0,0.0,0.0,1.5317,1.5713,1.6049,1.6058,1.6072,1.6118,1.6072,1.5558,1.5211,1.5444,1.5478,1.5565,1.5751,1.5784,1.5784,1.5784,1.5784,1.5784,1.5784,1.4873,1.3854,1.2721,1.0239,0.8443,0.7661,0.76,0.7444,0.7065,0.7082,0.7082,0.7055,0.7082,0.7095,0.7095,0.616,0.5714,0.5669,0.4508,0.3438,0.2504,0.2192,0.1523,0.0629,0.0594,0.1013,0.1712,0.1706,0.116,0.0295,0.0301,0.0202,0.0,0.0,0.0,0.0,0.0,0.0,0.0,0.0,0.0,0.0,0.0,0.0,0.0,0.0,0.0,0.0,0.0,0.0,0.0,0.0,0.0,0.0,0.0,0.0,0.0,0.0,0.0,0.0,0.0092,0.0046,0.0,0.0093,0.0047,0.0,0.0,0.0,0.0,0.0,0.0,0.0,0.0,0.0,0.0,0.0,-0.018,-0.0578,-0.1304,-0.2132,-0.2949,-0.3775,-0.278,-0.2207,-0.2027,-0.2362,-0.2418,0.0,0.0,0.0,1.3572,0.0,0.0,0.0,1.5443,1.5663,1.5579,1.5748,1.5904,1.5759,1.5454,1.5224,1.5371,1.5398,1.5398,1.5398,1.5645,1.5784,1.5784,1.5784,1.5784,1.5784,1.4765,1.3258,1.1317,0.9312,0.8007,0.7614,0.76,0.7458,0.7105,0.7095,0.7095,0.7095,0.7024,0.6762,0.6248,0.5591,0.4986,0.4461,0.3268,0.239,0.1745,0.1165,0.0539,0.0,0.0,0.0275,0.0694,0.0709,0.0431,0.0,0.0,0.0,0.0,0.0,0.0,0.0,0.0,0.0,0.0,0.0,0.0,0.0,0.0,0.0,0.0,0.0,0.0,0.0,0.0,0.0,0.0,0.0,0.0,0.0,0.0,0.0,0.0,0.0,0.0,0.0,0.0,0.0,0.0,0.0,0.0,0.0,0.0,0.0,0.0,0.0,0.0,0.0,0.0,0.0,0.0,0.0,-0.0449,-0.1281,-0.2561,-0.3344,-0.4017,-0.4544,-0.4017,-0.3304,-0.2509,-0.3347,-0.3523,0.0,0.0,0.0,0.0,0.0,1.4456,0.0,0.0,0.0,1.5174,0.0,0.0,0.0,0.0,0.0,1.5217,0.0,0.0,0.0,1.5418,0.0,1.5698,1.5751,1.5784,1.5784,1.4411,1.2469,0.9899,0.8627,0.7864,0.7614,0.76,0.7458,0.7105,0.7095,0.7085,0.7055,0.6897,0.6316,0.5334,0.4914,0.4201,0.3194,0.2017,0.1454,0.1388,0.0404,0.0,0.0,0.0,0.0,0.0,0.0,0.0,0.0,0.0,0.0,0.0,0.0,0.0,0.0,0.0,0.0,0.0,0.0,0.0,0.0,0.0,0.0,0.0,0.0,0.0,0.0,0.0,0.0,0.0,0.0,0.0,0.0,0.0,0.0,0.0,0.0,0.0,0.0,0.0,0.0,0.0,0.0,0.0,0.0,0.0,0.0,0.0,0.0,0.0,0.0,0.0,-0.0179,-0.0269,-0.0266,-0.128,-0.2514,-0.3859,-0.4614,-0.5029,-0.505,-0.5029,-0.4309,-0.3012,-0.4387,-0.4659,0.0,0.0,0.0,0.0,1.3377,0.0,0.0,0.0,1.5336,1.5564,0.0,0.0,0.0,0.0,0.0,0.0,0.0,0.0,1.4975,1.5244,1.5444,1.5444,1.5671,1.5784,1.5784,1.3547,1.1116,0.8775,0.8233,0.7864,0.7614,0.76,0.7458,0.7105,0.7095,0.7038,0.691,0.6718,0.6132,0.5097,0.3852,0.281,0.1958,0.0754,0.0224,0.018,0.0045,0.0,0.0,0.0,0.0,0.0,0.0,0.0,0.0,0.0,0.0,0.0,0.0,0.0,0.0,0.0,0.0,0.0,0.0,0.0,0.0,0.0,0.0,0.0,0.0,0.0,0.0,0.0,0.0,0.0,0.0,0.0,0.0,0.0,0.0,0.0,0.0,0.0,0.0,0.0,0.0,0.0,0.0,0.0,0.0,0.0,0.0,0.0,0.0,0.0,0.0,0.0,-0.08,-0.1235,-0.1145,-0.2694,-0.3634,-0.3899,-0.4614,-0.5067,-0.5167,-0.5067,-0.4898,-0.4701,-0.4898,-0.4937,0.0,0.0,0.0,0.0,0.0,0.0,1.42,0.0,1.4644,0.0,0.0,0.0,0.0,0.0,0.0,0.0,1.5546,0.0,0.0,0.0,1.5585,1.5418,0.0,0.0,1.3884,1.263,1.0925,0.8577,0.8137,0.7864,0.7614,0.76,0.7458,0.7105,0.7095,0.6981,0.6711,0.6066,0.5107,0.3849,0.2713,0.1693,0.0739,0.022,0.0,0.0,0.0,0.0,0.0,0.0,0.0,0.0,0.0,0.0,0.0,0.0,0.0,0.0,0.0,0.0,0.0,0.0,0.0,0.0,0.0,0.0,0.0,0.0,0.0,0.0,0.0,0.0,0.0,0.0,0.0,0.0,0.0,0.0,0.0,0.0,0.0,0.0,0.0,0.0,0.0,0.0,0.0,0.0,0.0,0.0,0.0,0.0,-0.0494,-0.0808,-0.0808,-0.1346,-0.1697,-0.1682,-0.2052,-0.2198,-0.2018,-0.3281,-0.393,-0.3823,-0.4681,-0.5105,-0.5089,-0.504,-0.5018,-0.5018,-0.5018,-0.5018,0.791,0.0,0.0,0.0,0.0,0.0,0.0,0.0,0.0,0.0,0.0,0.0,0.0,0.0,0.0,1.5661,0.0,1.5055,0.0,1.4682,0.0,0.0,0.0,0.0,0.0,1.1958,1.0925,0.8482,0.8088,0.7864,0.7614,0.76,0.7458,0.7105,0.7095,0.6917,0.6561,0.5524,0.4325,0.2918,0.197,0.1002,0.0,0.0,0.0,0.0,0.0,0.0,0.0,0.0,0.0,0.0,0.0,0.0,0.0,0.0,0.0,0.0,0.0,0.0,0.0,0.0,0.0,0.0,0.0,0.0,0.0,0.0,0.0,0.0,0.0,0.0,0.0,0.0,0.0,0.0,0.0,0.0,0.0,0.0,0.0,-0.009,-0.0359,-0.018,-0.009,-0.0359,-0.0404,-0.0494,-0.0763,-0.0808,-0.0808,-0.0808,-0.1391,-0.1789,-0.1779,-0.2443,-0.2975,-0.3197,-0.3205,-0.3189,-0.3275,-0.3958,-0.4281,-0.4137,-0.4846,-0.5129,-0.5018,-0.5048,-0.5048,-0.5018,-0.5018,-0.5018,0.0,0.0,0.0,0.9562,0.0,0.0,0.0,0.0,1.2208,0.0,0.0,0.0,0.0,0.0,0.0,1.5002,1.3416,0.0,0.0,0.0,0.0,0.0,0.0,0.0,0.0,1.1766,1.0828,0.8187,0.7988,0.7864,0.7614,0.76,0.7458,0.7105,0.7095,0.6867,0.6411,0.536,0.414,0.2787,0.1808,0.0841,0.0,0.0,0.0,0.0,0.0,0.0,0.0,0.0,0.0,0.0,0.0,0.0,0.0,0.0,0.0,0.0,0.0,0.0,0.0,0.0,0.0,0.0,0.0,0.0,0.0,0.0,0.0,0.0,0.0,0.0,0.0,0.0,0.0,0.0,0.0,0.0,0.0,0.0,0.0,-0.0269,-0.1211,-0.0584,-0.0314,-0.1211,-0.1345,-0.1704,-0.2688,-0.2823,-0.2823,-0.2823,-0.2822,-0.2799,-0.2653,-0.2691,-0.3081,-0.3992,-0.3958,-0.4308,-0.528,-0.5074,-0.4953,-0.4943,-0.5129,-0.5129,-0.5018,-0.5127,-0.5124,-0.5018,-0.5018,-0.5018,0.0,0.0,0.5535,0.7543,0.0,0.0,0.0,0.0,0.0,0.0,0.0,0.0,0.0,0.0,1.4052,1.3593,1.318,1.2652,0.0,0.0,0.0,0.0,0.0,0.0,0.0,0.0,0.9862,0.8375,0.8041,0.7804,0.7611,0.76,0.7458,0.7105,0.7095,0.687,0.6342,0.4769,0.3591,0.2726,0.116,0.0295,0.0,0.0,0.0,0.0,0.0,0.0,0.0,0.0,0.0,0.0,0.0,0.0,0.0,0.0,0.0,0.0,0.0,0.0,0.0,0.0,0.0,0.0,0.0,0.0,0.0,0.0,0.0,0.0,0.0,0.0,0.0,0.0,0.0,0.0,0.0,0.0,0.0,0.0,-0.0494,-0.1032,-0.1345,-0.1704,-0.2017,-0.2331,-0.2374,-0.251,-0.2867,-0.2911,-0.2911,-0.2911,-0.3361,-0.3692,-0.3763,-0.4341,-0.4798,-0.499,-0.5002,-0.5037,-0.5254,-0.5249,-0.5175,-0.5021,-0.5251,-0.5331,-0.5207,-0.5367,-0.5445,-0.5404,-0.5404,-0.5326,0.2814,0.2884,0.0,0.5256,0.5794,0.0,0.8015,0.0,0.0,0.0,0.0,0.0,0.0,0.0,0.0,1.1918,1.1593,1.1196,0.0,1.0978,0.0,0.0,0.0,0.0,0.0,0.9805,0.8687,0.7621,0.73,0.7288,0.0,0.7675,0.756,0.7267,0.7251,0.6751,0.5825,0.4329,0.3146,0.2177,0.0716,0.0,0.0,0.0,0.0,0.0,0.0,0.0,0.0,0.0,0.0,0.0,0.0,0.0,0.0,0.0,0.0,0.0,0.0,0.0,0.0,0.0,0.0,0.0,0.0,0.0,0.0,0.0,0.0,0.0,0.0,0.0,0.0,0.0,0.0,0.0,0.0,-0.0269,-0.0494,-0.0494,-0.1256,-0.2017,-0.2374,-0.2956,-0.3403,-0.3403,-0.3403,-0.3539,-0.3851,-0.3896,-0.3885,-0.3811,-0.4285,-0.4608,-0.4681,-0.5246,-0.5591,-0.5513,-0.5467,-0.5457,-0.5382,-0.5368,-0.5373,-0.5382,-0.5534,-0.5614,-0.5576,-0.565,-0.5644,-0.5598,-0.5676,-0.5631]},{"header":{"parameterUnit":"m.s-1","parameterCategory":1,"la1":30.6,"la2":29.2853,"lo1":-89.7004,"lo2":-87.6739,"dy":0.0162,"dx":0.0183,"nx":112,"ny":82,"refTime":"2023-03-05T06:00:00:Z","depth":0,"parameterNumber":3,"parameterNumberName":"V-component_of_WINDS"},"data":[0.0,0.0,0.0,0.0,0.0,0.0,0.0,0.0,0.0,0.0,0.0,0.0,0.0,0.0,0.0,0.0,0.0,0.0,0.0,0.0,0.0,0.0,0.0,0.0,0.0,0.0,0.0,0.0,0.0,0.0,0.0,0.0,0.0,0.0,0.0,0.0,0.0,0.0,0.0,0.0,0.0,0.0,0.0,0.0,0.0,0.0,0.0,0.0,0.0,0.0,0.0,0.0,0.0,0.0,0.0,0.0,0.0,0.0,0.0,0.0,0.0,0.0,0.0,0.0,0.0,0.0,0.0,0.0,0.0,0.0,0.0,0.0,0.0,0.0,0.0,0.0,0.0,0.0,0.0,0.0,0.0,0.0,0.0,0.0,0.0,0.0,0.0,0.0,0.0,0.0,1.7611,1.3735,0.4107,-0.3938,-0.8653,-0.8504,-0.6121,-0.1277,0.0,0.0,0.0,0.0,0.0,0.0,0.0,0.0,0.0,0.0,0.0,0.0,0.0,0.0,0.0,0.0,0.0,0.0,0.0,0.0,0.0,0.0,0.0,0.0,0.0,0.0,0.0,0.0,0.0,0.0,0.0,0.0,0.0,0.0,0.0,0.0,0.0,0.0,0.0,0.0,0.0,0.0,0.0,0.0,0.0,0.0,0.0,0.0,0.0,0.0,0.0,0.0,0.0,0.0,0.0,0.0,0.0,0.0,0.0,0.0,0.0,0.0,0.0,0.0,0.0,0.0,0.0,0.0,0.0,0.0,0.0,0.0,0.0,0.0,0.0,0.0,0.0,0.0,0.0,0.0,0.0,0.0,0.0,0.0,0.0,0.0,0.0,0.0,0.0,0.0,0.0,0.0,0.0,0.0,0.0,0.0,0.0,0.0,0.0,0.0,0.0,0.0,0.0,0.0,1.6099,0.7187,0.0901,-0.4579,-0.9352,-0.9248,-0.7265,-0.3381,0.0,0.0,0.0,0.0,0.0,0.0,0.0,0.0,0.0,0.0,0.0,0.0,0.0,0.0,0.0,0.0,0.0,0.0,0.0,0.0,0.0,0.0,0.0,0.0,0.0,0.0,0.0,0.0,0.0,0.0,0.0,0.0,0.0,0.0,0.0,0.0,0.0,0.0,0.0,0.0,0.0,0.0,0.0,0.0,0.0,0.0,0.0,0.0,0.0,0.0,0.0,0.0,0.0,0.0,0.0,0.0,0.0,0.0,0.0,0.0,0.0,0.0,0.0,0.0,0.0,0.0,0.0,0.0,0.0,0.0,0.0,0.0,0.0,0.0,0.0,0.0,0.0,0.0,0.0,0.0,0.0,0.0,0.0,0.0,0.0,0.0,0.0,0.0,0.0,0.0,0.0,0.0,0.0,0.0,0.0,0.0,0.0,0.0,0.0,0.0,0.0,0.0,0.0,1.7716,1.2844,0.4699,-0.0021,-0.4645,-0.9739,-0.9202,-0.7035,-0.3342,0.1684,0.0,0.0,0.0,0.0,0.0,0.0,0.0,0.0,0.0,0.0,0.0,0.0,0.0,0.0,0.0,0.0,0.0,0.0,0.0,0.0,0.0,0.0,0.0,0.0,0.0,0.0,0.0,0.0,0.0,0.0,0.0,0.0,0.0,0.0,0.0,0.0,0.0,0.0,0.0,0.0,0.0,0.0,0.0,0.0,0.0,0.0,0.0,0.0,0.0,0.0,0.0,0.0,0.0,0.0,0.0,0.0,0.0,0.0,0.0,0.0,0.0,0.0,0.0,0.0,0.0,0.0,0.0,0.0,0.0,0.0,0.0,0.0,0.0,0.0,0.0,0.0,0.0,0.0,0.0,0.0,0.0,0.0,0.0,0.0,0.0,0.0,0.0,0.0,0.0,0.0,0.0,0.0,0.0,0.0,0.0,0.0,0.0,0.0,0.0,0.0,0.0,0.0,1.5739,1.1035,0.4395,0.017,-0.4283,-0.9502,-0.9012,-0.6915,-0.3375,0.0849,0.0,0.0,0.0,0.0,0.0,0.0,0.0,0.0,0.0,0.0,0.0,0.0,0.0,0.0,0.0,0.0,0.0,0.0,0.0,0.0,0.0,0.0,0.0,0.0,0.0,0.0,0.0,0.0,0.0,0.0,0.0,0.0,0.0,0.0,0.0,0.0,0.0,0.0,0.0,0.0,0.0,0.0,0.0,0.0,0.0,0.0,0.0,0.0,0.0,0.0,0.0,0.0,0.0,0.0,0.0,0.0,0.0,0.0,0.0,0.0,0.0,0.0,0.0,0.0,0.0,0.0,0.0,0.0,0.0,0.0,0.0,0.0,0.0,0.0,0.0,0.0,0.0,0.0,0.0,0.0,0.0,0.0,0.0,0.0,0.0,0.0,0.0,0.0,0.0,0.0,0.0,0.0,0.0,0.0,0.0,0.0,0.0,0.0,0.0,0.0,0.0,0.0,1.7104,1.2978,0.6158,0.1282,-0.3417,-0.8211,-0.8937,-0.7785,-0.4659,0.0023,0.0,0.0,0.0,0.0,0.0,0.0,0.0,0.0,0.0,0.0,0.0,0.0,0.0,0.0,0.0,0.0,0.0,0.0,0.0,0.0,0.0,0.0,0.0,0.0,0.0,0.0,0.0,0.0,0.0,0.0,0.0,0.0,0.0,0.0,0.0,0.0,0.0,0.0,0.0,0.0,0.0,0.0,0.0,0.0,0.0,0.0,0.0,0.0,0.0,0.0,0.0,0.0,0.0,0.0,0.0,0.0,0.0,0.0,0.0,0.0,0.0,0.0,0.0,0.0,0.0,0.0,0.0,0.0,0.0,0.0,0.0,0.0,0.0,0.0,0.0,0.0,0.0,0.0,0.0,0.0,0.0,0.0,0.0,0.0,0.0,0.0,0.0,0.0,0.0,0.0,0.0,0.0,0.0,0.0,0.0,0.0,0.0,0.0,0.0,0.0,0.0,0.0,1.6743,1.2776,0.0,0.2592,-0.1641,-0.5958,-0.5641,-0.4813,-0.3917,0.0,0.0,0.0,0.0,0.0,0.0,0.0,0.0,0.0,0.0,0.0,0.0,0.0,0.0,0.0,0.0,0.0,0.0,0.0,0.0,0.0,0.0,0.0,0.0,0.0,0.0,0.0,0.0,0.0,0.0,0.0,0.0,0.0,0.0,0.0,0.0,0.0,0.0,0.0,0.0,0.0,0.0,0.0,0.0,0.0,0.0,0.0,0.0,0.0,0.0,0.0,0.0,0.0,0.0,0.0,0.0,0.0,0.0,0.0,0.0,0.0,0.0,0.0,0.0,0.0,0.0,0.0,0.0,0.0,0.0,0.0,0.0,0.0,0.0,0.0,0.0,0.0,0.0,0.0,0.0,0.0,0.0,0.0,0.0,0.0,0.0,0.0,0.0,0.0,0.0,0.0,0.0,0.0,0.0,0.0,0.0,0.0,0.0,0.0,0.0,0.0,0.0,1.9262,1.6728,1.3293,0.0,0.4491,0.0753,-0.3003,-0.272,-0.2363,-0.2477,0.0,0.0,0.0,0.0,0.0,0.0,0.0,0.0,0.0,0.0,0.0,0.0,0.0,0.0,0.0,0.0,0.0,0.0,0.0,0.0,0.0,0.0,0.0,0.0,0.0,0.0,0.0,0.0,0.0,0.0,0.0,0.0,0.0,0.0,0.0,0.0,0.0,0.0,0.0,0.0,0.0,0.0,0.0,0.0,0.0,0.0,0.0,0.0,0.0,0.0,0.0,0.0,0.0,0.0,0.0,0.0,0.0,0.0,0.0,0.0,0.0,0.0,0.0,0.0,0.0,0.0,0.0,0.0,0.0,0.0,0.0,0.0,0.0,0.0,0.0,0.0,0.0,0.0,0.0,0.0,0.0,0.0,0.0,0.0,0.0,0.0,0.0,0.0,0.0,0.0,0.0,0.0,0.0,0.0,0.0,0.0,0.0,0.0,0.0,0.0,0.0,0.0,1.8838,1.7357,1.4928,1.0507,0.7034,0.3751,0.0629,-0.0635,-0.1017,0.0,0.0,0.0,0.0,0.0,0.0,0.0,0.0,0.0,0.0,0.0,0.0,0.0,0.0,0.0,0.0,0.0,0.0,0.0,0.0,0.0,0.0,0.0,0.0,0.0,0.0,0.0,0.0,0.0,0.0,0.0,0.0,0.0,0.0,0.0,0.0,0.0,0.0,0.0,0.0,0.0,0.0,0.0,0.0,0.0,0.0,0.0,0.0,0.0,0.0,0.0,0.0,0.0,0.0,0.0,0.0,0.0,0.0,0.0,0.0,0.0,0.0,0.0,0.0,0.0,0.0,0.0,0.0,0.0,0.0,0.0,0.0,0.0,0.0,0.0,0.0,0.0,0.0,0.0,0.0,0.0,0.0,0.0,0.0,0.0,0.0,0.0,0.0,0.0,0.0,0.0,0.0,0.0,0.0,0.0,0.0,0.0,0.0,0.0,0.0,0.0,0.0,0.0,1.9647,1.8299,1.6306,1.2977,0.9191,0.6002,0.3802,0.2488,0.1851,0.196,0.0,0.0,0.0,0.0,0.0,0.0,0.0,0.0,0.0,0.0,0.0,0.0,0.0,0.0,0.0,0.0,0.0,0.0,0.0,0.0,0.0,0.0,0.0,0.0,0.0,0.0,0.0,0.0,0.0,0.0,0.0,0.0,0.0,0.0,0.0,0.0,0.0,0.0,0.0,0.0,0.0,0.0,0.0,0.0,0.0,0.0,0.0,0.0,0.0,0.0,0.0,0.0,0.0,0.0,0.0,0.0,0.0,0.0,0.0,0.0,0.0,0.0,0.0,0.0,0.0,0.0,0.0,0.0,0.0,0.0,0.0,0.0,0.0,0.0,0.0,0.0,0.0,0.0,0.0,0.0,0.0,0.0,0.0,0.0,0.0,0.0,0.0,0.0,0.0,0.0,0.0,0.0,0.0,0.0,0.0,0.0,0.0,0.0,0.0,0.0,0.0,0.0,2.0316,1.9246,1.7714,1.5094,1.1772,0.9008,0.7188,0.5791,0.4835,0.4382,0.0,0.0,0.0,0.0,0.0,0.0,0.0,0.0,0.0,0.0,0.0,0.0,0.0,0.0,0.0,0.0,0.0,0.0,0.0,0.0,0.0,0.0,0.0,0.0,0.0,0.0,0.0,0.0,0.0,0.0,0.0,0.0,0.0,0.0,0.0,0.0,0.0,0.0,0.0,0.0,0.0,0.0,0.0,0.0,0.0,0.0,0.0,0.0,0.0,0.0,0.0,0.0,0.0,0.0,0.0,0.0,0.0,0.0,0.0,0.0,0.0,0.0,0.0,0.0,0.0,0.0,0.0,0.0,0.0,0.0,0.0,0.0,0.0,0.0,0.0,0.0,0.0,0.0,0.0,0.0,0.0,0.0,0.0,0.0,0.0,0.0,0.0,0.0,0.0,0.0,0.0,0.0,0.0,0.0,0.0,0.0,0.0,0.0,0.0,0.0,0.0,0.0,2.0837,2.0209,1.9092,1.6912,1.4497,1.2288,1.0423,0.893,0.7667,0.6679,0.0,0.0,0.0,0.0,0.0,0.0,0.0,0.0,0.0,0.0,0.0,0.0,0.0,0.0,0.0,0.0,0.0,0.0,0.0,0.0,0.0,0.0,0.0,0.0,0.0,0.0,0.0,0.0,0.0,0.0,0.0,0.0,0.0,0.0,0.0,0.0,0.0,0.0,0.0,0.0,0.0,0.0,0.0,0.0,0.0,0.0,0.0,0.0,0.0,0.0,0.0,0.0,0.0,0.0,0.0,0.0,0.0,0.0,0.0,0.0,2.2804,0.0,0.0,0.0,0.0,0.0,0.0,0.0,0.0,0.0,0.0,0.0,0.0,0.0,0.0,0.0,0.0,0.0,0.0,0.0,0.0,0.0,0.0,0.0,0.0,0.0,0.0,0.0,0.0,0.0,0.0,0.0,0.0,0.0,0.0,0.0,0.0,0.0,0.0,0.0,0.0,0.0,2.1406,2.0974,2.0098,1.8186,1.6066,1.3883,1.1694,1.0314,0.917,0.8277,0.9511,0.0,0.0,0.0,0.0,0.0,0.0,0.0,0.0,0.0,0.0,0.0,0.0,0.0,0.0,0.0,0.0,0.0,0.0,0.0,0.0,0.0,0.0,0.0,0.0,0.0,0.0,0.0,0.0,0.0,0.0,0.0,0.0,0.0,0.0,0.0,0.0,0.0,0.0,0.0,0.0,0.0,0.0,0.0,0.0,0.0,0.0,0.0,0.0,0.0,0.0,0.0,0.0,0.0,0.0,0.0,0.0,0.0,0.0,0.0,0.0,2.5218,0.0,0.0,0.0,0.0,0.0,0.0,0.0,0.0,0.0,0.0,0.0,0.0,0.0,0.0,0.0,0.0,0.0,0.0,0.0,0.0,0.0,0.0,0.0,0.0,0.0,0.0,0.0,0.0,0.0,0.0,0.0,0.0,0.0,0.0,0.0,0.0,0.0,0.0,0.0,0.0,2.2448,2.1976,2.1136,1.9619,1.7675,1.573,1.3837,1.2512,1.1354,1.0352,1.1087,0.0,0.0,0.0,0.0,0.0,0.0,0.0,0.0,0.0,0.0,0.0,0.0,0.0,0.0,0.0,0.0,0.0,0.0,0.0,0.0,0.0,0.0,0.0,0.0,0.0,0.0,0.0,0.0,0.0,0.0,0.0,0.0,0.0,0.0,0.0,0.0,0.0,0.0,0.0,0.0,0.0,0.0,0.0,0.0,0.0,0.0,0.0,0.0,0.0,0.0,0.0,0.0,0.0,2.9446,3.0079,3.061,3.061,3.091,3.1317,2.9153,2.8862,2.9871,2.8292,0.0,0.0,0.0,0.0,0.0,0.0,0.0,0.0,0.0,0.0,0.0,0.0,0.0,0.0,0.0,0.0,0.0,0.0,0.0,0.0,0.0,0.0,0.0,0.0,3.0242,3.0511,2.8577,0.0,0.0,0.0,0.0,0.0,0.0,0.0,0.0,0.0,0.0,0.0,2.3395,2.2848,2.2006,2.0751,1.9162,1.7581,1.6033,1.4845,1.3674,1.2546,1.2957,1.3244,0.0,0.0,0.0,0.0,0.0,0.0,0.0,0.0,0.0,0.0,0.0,0.0,0.0,0.0,0.0,0.0,0.0,0.0,0.0,0.0,0.0,0.0,0.0,0.0,0.0,0.0,0.0,0.0,0.0,0.0,0.0,0.0,3.0293,3.1765,0.0,0.0,0.0,0.0,0.0,0.0,0.0,0.0,0.0,0.0,0.0,0.0,0.0,3.2012,3.1771,3.3123,3.3815,3.3858,3.5075,3.571,3.5805,3.5805,3.6172,3.6729,3.5827,0.0,3.0682,3.072,0.0,0.0,0.0,0.0,0.0,0.0,0.0,0.0,0.0,0.0,0.0,0.0,0.0,0.0,0.0,0.0,0.0,0.0,0.0,0.0,0.0,0.0,3.2006,3.2154,3.149,3.0991,0.0,3.0547,2.9515,2.9349,2.8621,0.0,0.0,0.0,0.0,0.0,0.0,0.0,2.3544,2.3117,2.2348,2.0844,2.0146,1.9057,1.7242,1.6443,1.5558,1.4428,1.4858,1.4954,1.4474,1.661,0.0,0.0,0.0,0.0,0.0,0.0,0.0,0.0,0.0,0.0,0.0,0.0,0.0,0.0,0.0,0.0,0.0,0.0,0.0,0.0,0.0,0.0,0.0,0.0,0.0,0.0,0.0,0.0,0.0,2.9928,3.1351,3.285,3.2948,3.3354,0.0,0.0,0.0,0.0,0.0,0.0,0.0,0.0,0.0,3.1687,3.3036,3.3762,3.3762,3.441,3.5145,3.5915,3.6513,3.6998,3.737,3.737,3.7502,3.7761,3.7498,3.6508,3.5074,3.4195,3.3826,3.3724,0.0,0.0,0.0,0.0,3.2209,3.2073,3.2687,3.3269,3.3632,3.3127,0.0,0.0,0.0,0.0,0.0,0.0,0.0,0.0,0.0,0.0,3.3788,3.3824,3.3407,3.3005,3.3044,3.2453,3.1702,0.0,3.0337,2.987,2.9639,0.0,0.0,0.0,0.0,2.5074,2.4436,2.359,2.2715,2.1818,2.0988,1.9991,1.8739,1.8099,1.7463,1.6762,1.6913,1.6802,1.6288,1.7562,1.8528,0.0,0.0,0.0,0.0,0.0,0.0,0.0,0.0,0.0,0.0,0.0,0.0,0.0,0.0,0.0,0.0,0.0,0.0,0.0,0.0,0.0,0.0,0.0,0.0,0.0,0.0,0.0,0.0,3.1711,3.3213,3.4298,3.4929,3.5603,0.0,0.0,0.0,0.0,0.0,0.0,3.4545,3.5226,3.5262,3.4356,3.5509,3.6161,3.6161,3.6388,3.7034,3.8091,3.8091,3.8345,3.8809,3.8809,3.8809,3.8809,3.8809,3.9027,3.92,3.7321,3.662,3.6629,3.567,3.5293,3.5293,3.5293,3.5409,3.5667,3.6481,3.7211,3.7593,3.6416,3.6008,3.571,3.4296,0.0,0.0,0.0,0.0,3.4346,3.4723,3.4938,3.5064,3.5242,3.4906,3.4445,3.404,3.3772,3.3288,0.0,3.1898,3.1539,3.0912,0.0,0.0,0.0,0.0,2.5541,2.5196,2.3983,2.2915,2.2323,2.1539,2.0703,1.9871,1.9588,1.9319,1.9067,1.9211,1.9071,1.8596,1.9137,1.9668,2.0146,0.0,0.0,0.0,0.0,0.0,0.0,0.0,0.0,0.0,0.0,0.0,0.0,0.0,0.0,0.0,0.0,0.0,0.0,0.0,0.0,0.0,0.0,0.0,0.0,0.0,0.0,0.0,0.0,0.0,3.6699,3.7719,0.0,0.0,0.0,0.0,3.8327,3.8362,3.8624,3.9221,3.866,3.8608,3.9226,3.9982,4.0385,4.04,4.11,4.1462,4.1551,4.1551,4.1568,4.1603,4.1603,4.1603,4.1603,4.1603,4.1603,4.1472,3.9412,3.8816,3.9227,3.9269,3.931,3.931,3.931,3.9749,4.0259,3.9626,3.9891,4.0244,3.8744,3.6932,3.555,3.6719,3.5706,0.0,0.0,3.6385,3.5869,3.7472,3.6767,3.586,3.6683,3.5481,3.4281,3.4816,3.4179,3.3313,0.0,3.2261,3.1801,3.094,0.0,2.9754,2.8048,2.7124,2.6315,2.5413,2.4118,2.2864,2.176,2.166,2.1241,2.0168,2.0759,2.1169,2.1149,2.1849,2.2046,2.1521,2.2001,2.2441,2.2721,2.2877,0.0,0.0,0.0,0.0,0.0,0.0,0.0,0.0,0.0,0.0,0.0,0.0,0.0,0.0,0.0,0.0,0.0,0.0,0.0,0.0,0.0,0.0,0.0,0.0,0.0,0.0,0.0,0.0,3.7905,3.8637,0.0,3.9544,3.966,3.9931,4.0453,4.0936,4.0942,4.0337,4.0509,4.0314,3.9627,4.0316,4.0435,3.9937,4.0698,4.1067,4.1025,4.1541,4.181,4.181,4.181,4.181,4.181,4.181,4.1979,4.2172,4.0937,4.0651,4.0959,4.1004,4.102,4.102,4.102,4.1176,4.1371,4.1106,4.0858,4.0435,3.9204,3.8216,3.7577,3.7673,3.7586,3.7563,3.7965,3.771,3.7359,3.7446,3.6652,3.5777,3.5578,3.4996,3.4549,3.4761,3.4536,3.4048,3.3235,3.2859,3.2236,3.0902,3.0583,3.0142,2.8996,2.7602,2.6567,2.6242,2.4508,2.3141,2.2735,2.2401,2.1984,2.1367,2.2129,2.262,2.2591,2.3909,2.453,2.4212,2.4854,2.5243,2.5332,2.523,2.5468,0.0,0.0,0.0,0.0,0.0,0.0,0.0,0.0,0.0,0.0,0.0,0.0,0.0,0.0,0.0,0.0,0.0,0.0,0.0,0.0,0.0,0.0,0.0,0.0,0.0,0.0,3.9554,3.9124,4.0207,4.1009,4.1171,4.1389,4.1808,4.2421,4.2937,4.2832,4.1922,4.2431,4.2305,4.1321,4.1633,4.1633,4.1232,4.1614,4.1811,4.1811,4.2353,4.2606,4.2606,4.2606,4.2664,4.274,4.274,4.2905,4.3171,4.269,4.2573,4.2685,4.2181,4.197,4.1988,4.2277,4.2366,4.235,4.2201,4.1685,4.0925,3.992,3.9364,3.9007,3.8595,3.8908,3.9327,3.8923,3.855,3.8169,3.7645,3.6721,3.5778,3.5251,3.4922,3.4763,3.4851,3.4643,3.4178,3.3336,3.3106,3.2556,3.0966,3.0642,3.0329,2.9549,2.815,2.7163,2.7142,2.5477,2.4151,2.3785,2.3567,2.3251,2.2784,2.3693,2.4397,2.4713,2.6068,2.6795,2.6595,2.6949,2.7022,2.6769,2.6621,2.7023,2.8004,0.0,0.0,0.0,0.0,0.0,0.0,0.0,0.0,0.0,0.0,0.0,0.0,0.0,0.0,0.0,0.0,0.0,0.0,0.0,0.0,0.0,0.0,0.0,3.8958,4.0726,4.1719,4.0492,4.2521,4.3633,4.2671,4.3328,4.3929,4.421,4.4206,4.4206,4.4206,4.4465,4.4593,4.4593,4.4219,4.4186,4.4555,4.4204,4.4076,4.4169,4.4188,4.4206,4.4206,4.4206,4.436,4.4593,4.4593,4.4593,4.4593,4.4574,4.4555,4.4414,4.2937,4.2373,4.2465,4.3218,4.3475,4.3379,4.29,4.244,4.1926,4.1053,4.0236,3.9599,3.9611,3.9622,3.9622,3.9634,3.8988,3.8335,3.8335,3.7128,3.5941,3.6012,3.5408,3.4879,3.5149,3.453,3.367,3.2856,3.2967,3.2695,3.1148,3.0721,3.0336,2.9636,2.8705,0.0,2.8028,2.7002,2.5876,2.4766,2.5049,2.5028,2.4305,2.5346,2.6465,2.7454,2.8347,2.8795,2.8596,2.8304,2.7792,2.705,2.708,2.8012,2.9821,0.0,0.0,0.0,0.0,0.0,0.0,0.0,0.0,0.0,0.0,0.0,0.0,0.0,0.0,0.0,0.0,0.0,0.0,0.0,0.0,0.0,0.0,4.2532,4.1817,4.2988,4.3782,4.3426,4.4015,4.4345,4.4127,4.4279,4.4443,4.4546,4.4519,4.4493,4.4493,4.4572,4.4593,4.4593,4.4487,4.4167,4.3662,4.418,4.4127,4.3565,4.4191,4.4493,4.4493,4.4493,4.4533,4.4593,4.4593,4.4593,4.4555,4.3926,4.3662,4.3674,4.389,4.3976,4.3919,4.3517,4.2964,4.2309,4.1597,4.1268,4.1028,4.021,3.9811,3.9709,3.9901,4.0002,4.0072,4.0212,3.9655,3.9023,3.9023,3.7751,3.6468,3.6503,3.589,3.5339,3.541,3.4733,3.3876,3.3012,3.284,3.2298,3.0609,3.0277,3.017,2.9981,2.8973,0.0,2.8213,2.7093,2.6172,2.5864,2.5763,2.5648,2.5447,2.641,2.7277,2.7904,2.9394,3.0358,3.0588,3.1022,3.0918,3.0191,2.9846,2.994,0.0,0.0,0.0,0.0,0.0,0.0,0.0,0.0,0.0,0.0,0.0,0.0,0.0,0.0,0.0,0.0,0.0,0.0,0.0,0.0,0.0,0.0,4.2981,4.4266,4.4566,4.4661,4.4688,4.4688,4.4688,4.4751,4.4884,4.4776,4.4751,4.4896,4.4872,4.4861,4.4861,4.4954,4.5011,4.5011,4.4884,4.4637,4.4271,4.4618,4.4571,4.4113,4.4614,4.4861,4.4861,4.4861,4.4919,4.5011,4.5011,4.5011,4.4984,4.447,4.4271,0.0,0.0,0.0,0.0,0.0,4.3076,4.2586,4.1412,4.1103,4.1087,4.0241,4.0004,4.0072,4.0223,4.0285,4.0347,4.0465,3.9919,3.9304,3.9304,3.8041,3.674,3.674,3.6137,3.5534,3.5534,3.486,3.409,3.3551,3.3102,0.0,3.1448,3.1159,3.11,3.1174,3.0203,2.9603,2.997,2.9017,2.8217,2.8011,2.8134,2.8082,2.7658,2.8382,0.0,0.0,0.0,3.1642,3.1966,3.2018,0.0,0.0,0.0,3.1513,3.2126,0.0,0.0,0.0,3.2978,3.3187,0.0,0.0,0.0,0.0,0.0,0.0,0.0,0.0,0.0,0.0,0.0,0.0,0.0,0.0,0.0,0.0,4.4854,4.5735,4.6851,4.5812,4.4928,4.4889,4.4908,4.4988,4.5223,4.5033,4.5011,4.5264,4.5274,4.5265,4.5275,0.0,0.0,0.0,0.0,4.5303,4.5603,4.5332,4.5211,4.5253,4.5253,4.5243,4.5243,4.5243,4.5362,4.5594,4.5594,4.5594,4.5594,4.5594,4.5594,4.5463,4.3996,4.3357,4.3269,4.3169,4.3259,4.3221,4.1722,0.0,0.0,4.0746,4.0496,4.0496,4.0504,4.0516,4.0496,4.0504,3.9942,3.9314,3.9314,3.8078,3.682,3.682,3.6195,3.5601,3.5601,3.4925,3.4301,3.4253,3.3657,3.3138,3.3088,3.2725,3.2491,3.2582,3.1848,3.1528,3.221,3.1581,3.0922,3.044,0.0,0.0,3.0191,3.0518,3.1245,3.2352,3.2535,3.2681,3.2853,3.1894,3.1745,3.2541,3.2181,3.2601,3.3794,3.4432,3.469,3.4586,3.3731,3.3882,0.0,0.0,0.0,0.0,0.0,0.0,0.0,0.0,0.0,0.0,0.0,0.0,0.0,0.0,0.0,4.5389,4.6288,4.6885,4.713,4.6305,4.5661,4.5533,4.5537,4.5554,4.5607,4.5563,4.5574,4.5677,4.5671,4.5699,4.577,4.5757,4.5751,4.5751,4.565,4.5616,4.5684,4.5616,4.5582,4.5594,0.0,0.0,4.5513,4.5513,4.5559,4.5594,4.5594,4.5594,4.5594,4.5594,4.5631,4.558,4.4525,4.3703,4.3042,4.2343,4.1688,4.1097,4.077,4.0707,4.0727,4.0554,4.0496,4.0504,4.0565,4.0539,0.0,4.0571,4.0004,3.9386,3.9454,3.8219,3.6968,3.6968,3.6312,3.5679,3.5679,3.5041,3.4462,3.4439,3.4262,3.4124,3.412,3.3388,3.2595,3.1994,3.218,3.2199,3.1665,3.1306,3.1057,3.0959,3.0415,3.0246,3.0762,3.0273,3.0863,3.3043,3.321,3.3229,3.3281,3.1854,3.1487,3.2345,3.2477,3.2338,3.1922,3.3535,3.3984,3.3377,3.4335,3.4901,0.0,0.0,0.0,0.0,0.0,0.0,0.0,0.0,0.0,0.0,0.0,4.2974,0.0,0.0,4.6265,4.7719,4.7918,4.7899,4.7903,4.7182,4.6439,4.5871,4.5789,4.5789,4.5789,4.5789,4.5819,4.5861,4.5841,4.5867,4.5899,4.5872,4.5841,4.5841,4.5825,4.5789,4.5789,4.5789,4.5802,4.5809,4.5809,4.5777,4.5738,4.5738,4.5738,4.5738,4.5738,4.5736,4.5703,4.5657,4.5671,4.5626,4.4781,4.4152,4.3643,4.2803,4.1956,4.1147,4.0711,4.0557,4.0557,4.0557,4.0568,4.061,4.0643,4.0648,4.0651,4.0679,4.0407,4.0024,3.9646,3.8921,3.8091,3.7251,3.6716,3.6278,3.5849,3.5421,3.5148,3.5158,3.5129,3.5096,3.5065,3.4622,3.4142,3.3672,3.3525,3.3444,3.3444,3.2969,3.2619,3.2512,3.2072,3.1938,3.2276,3.2306,3.2637,3.345,3.359,3.3446,3.3019,3.1938,3.176,3.263,3.2342,3.2192,3.2212,3.3147,3.3395,3.3016,3.3789,3.4134,0.0,0.0,0.0,0.0,0.0,0.0,0.0,0.0,4.4094,4.4272,4.4904,4.5749,4.6828,4.7492,4.8438,5.016,4.9582,4.8847,4.8677,4.7959,4.7072,4.6089,4.5955,4.5931,4.5931,4.5931,4.5939,4.5955,4.5959,4.5963,4.5981,4.5967,4.5959,4.5959,4.5944,4.5931,4.5931,4.5931,4.5931,4.5927,4.5927,4.5903,4.5899,4.5899,4.5899,4.5899,4.5899,4.5877,4.5819,4.575,4.5747,4.5703,4.5103,4.4711,4.4362,4.3369,4.2427,4.159,4.0881,4.0636,4.0636,4.0636,4.0684,4.0722,4.0727,4.0766,4.0821,4.0828,4.0723,4.0438,3.9795,3.951,3.9065,3.7715,3.7259,3.6957,3.6233,3.596,3.5838,3.5848,3.5838,3.5808,3.5755,3.572,3.5624,3.5358,3.4839,3.4661,3.5207,3.4629,3.4134,3.3968,3.3819,3.3658,3.3492,3.4265,3.4324,3.3308,3.339,3.3161,3.2453,3.1808,3.1863,3.2734,3.206,3.1975,3.2519,3.2673,3.269,3.2538,3.2763,3.2926,3.9889,4.0178,4.1829,4.513,4.6004,4.6767,0.0,0.0,4.979,4.9168,4.92,4.9647,5.0538,5.0259,5.0428,5.2108,5.1054,4.9746,4.8984,4.8125,4.7246,4.6367,4.615,4.6075,4.6075,4.6075,4.6102,4.615,4.6173,4.6188,4.6247,4.6191,4.6173,4.6173,4.6108,4.6075,4.6075,4.6075,4.6045,4.5987,4.5987,4.5959,4.5899,4.5899,4.5899,4.5899,4.5899,4.5894,4.5885,4.5872,4.59,4.5962,4.5873,4.5398,4.455,4.2855,4.1667,4.0904,4.0807,4.0788,4.0788,4.0788,4.0777,4.0809,4.0867,4.0848,4.0824,4.0938,4.041,3.9815,3.9788,3.9245,3.8651,3.8475,3.7831,3.7245,3.7147,3.6522,3.5975,3.5975,3.5925,3.5887,3.5887,3.5829,3.5525,3.4736,3.5085,3.5209,3.4525,3.4297,3.4193,3.4166,3.3532,3.3095,3.3069,3.3814,3.3635,3.2106,3.1979,3.1902,3.1804,3.1056,3.1009,3.1832,3.1755,3.1394,3.0774,3.1562,3.156,3.0894,3.1662,3.2413,4.2574,4.3137,4.4333,0.0,4.8268,4.9468,5.0761,5.1403,5.1641,5.1367,5.1722,5.2054,5.1917,5.1625,5.1492,0.0,5.1177,5.0238,4.8856,4.8349,4.7638,4.6337,4.6579,4.6697,4.6252,4.621,4.6235,4.6264,4.6265,4.6267,4.6308,4.6268,4.6265,4.6265,4.6237,4.621,4.621,4.621,4.6209,4.6167,4.6167,4.6165,4.6122,4.6122,4.6122,4.612,4.6094,4.6078,4.6075,4.6036,4.6022,4.6052,4.6095,4.5604,4.4768,4.3962,4.3123,4.236,4.236,4.2048,4.1617,4.1617,4.1311,4.0972,4.1015,4.1014,4.1048,4.1094,4.0848,4.0462,3.9976,3.9999,3.9863,3.8848,3.8711,3.8672,3.8164,3.7363,3.6758,3.6758,3.6737,3.6714,3.6714,3.7118,3.7305,3.6933,3.6195,3.5514,3.5117,3.5034,3.482,3.4313,3.441,3.4306,3.3803,3.4524,3.4499,3.334,3.275,3.2243,3.1791,3.1449,3.1191,3.1066,3.2062,3.1917,3.0559,3.1472,3.1451,3.0602,3.1005,3.1378,4.4258,0.0,0.0,4.7964,4.9926,5.1396,5.1423,5.2249,5.2965,5.2769,5.3006,5.3121,5.2737,5.2271,5.1848,5.1483,5.105,5.0228,4.8715,4.8528,4.8023,4.6632,4.7268,4.7581,4.7026,4.6777,4.666,4.666,4.6445,4.6308,4.6308,4.6308,4.6308,4.6308,4.6308,4.6308,4.6308,4.6308,4.6308,4.6308,4.6308,4.6308,4.6308,4.6308,4.6308,4.6308,4.6243,4.6235,4.6215,4.6186,4.6153,4.6158,4.6207,4.5845,4.5276,4.5232,4.4519,4.3563,4.3563,4.2975,4.2293,4.2546,4.2098,4.1453,4.1453,4.1481,4.1484,4.1269,4.1191,4.1055,4.043,4.0723,4.0879,3.9629,3.9629,3.9726,3.9082,3.8262,3.7656,3.7656,3.7656,3.7656,3.7656,3.8184,3.8594,3.8594,3.74,3.6393,3.6079,3.5806,3.5397,3.4768,3.5253,3.5372,3.4745,3.5035,3.4979,3.4367,3.3525,3.2787,3.2217,3.2193,3.1937,3.1368,3.234,3.225,3.0999,3.1434,3.1303,3.065,3.0947,3.0968,0.0,0.0,4.5355,4.8794,5.0874,5.211,5.2232,5.3589,5.4577,5.3744,5.2907,5.2582,5.3409,5.2242,5.1386,5.213,5.0904,4.9527,4.8633,4.8612,4.8352,4.7476,4.8232,4.8785,0.0,4.7981,4.7558,4.7558,4.6777,4.6308,4.6308,4.6308,4.6308,4.6308,4.6308,4.6308,4.6308,4.6308,4.6308,4.6308,4.6308,4.6308,4.6308,4.6308,4.6308,4.6308,4.6308,4.6308,4.6308,4.6289,4.6289,4.6289,4.6308,4.6289,4.6269,4.6269,4.5176,4.3691,4.3691,4.3125,4.2539,4.3379,4.3066,4.2363,4.2363,4.2363,4.2207,4.1426,4.1191,4.1191,4.1172,4.1172,4.1191,4.1133,4.0508,3.9883,3.9863,3.918,3.8555,3.8555,3.8555,3.8555,3.8555,3.8574,3.8594,3.8594,3.8555,3.818,3.7273,3.6298,3.5707,3.5743,3.5714,3.5687,3.565,3.485,3.4362,3.4389,3.3634,3.3176,3.3161,3.3215,3.3249,3.3212,3.2447,3.2019,3.196,3.114,3.0769,3.0817,3.1659,3.1631,0.0,0.0,4.7725,5.0688,5.2278,5.3395,5.4492,5.5163,5.5307,5.4384,5.3039,5.181,5.1017,5.0467,4.9847,4.9048,4.9421,4.9496,4.8628,4.853,4.8487,4.8293,4.8992,0.0,0.0,0.0,0.0,4.834,4.8139,4.8027,4.8027,4.8025,4.8024,4.8024,4.7457,4.7164,4.7164,4.7164,4.6872,4.6305,4.6305,4.6306,4.6308,4.6308,4.6308,4.6308,4.6308,4.6308,4.6308,4.6308,4.6308,4.6308,4.6308,4.6308,4.6308,4.6308,4.5937,4.543,4.543,4.4844,4.418,4.4473,4.3965,4.3262,4.3262,4.2851,4.2344,4.207,4.1601,4.1191,4.1191,4.1191,4.1191,4.1191,4.0976,4.0762,4.0762,4.0078,3.9453,3.9453,3.9453,3.9453,3.9453,3.9941,4.0137,3.9551,3.8922,3.8424,3.81,3.7223,3.664,3.6665,3.6116,3.5772,3.5778,3.5479,3.529,3.5336,3.4562,3.413,3.4133,3.4155,3.3906,3.3386,3.4165,3.3755,3.2077,3.2936,3.2469,3.0821,3.2299,3.2538,0.0,4.6931,4.9107,5.1262,5.2646,5.3807,5.4959,5.5422,5.5403,5.468,5.2925,5.1101,4.9811,4.9121,4.8296,4.6948,4.7681,4.8316,4.8069,4.8076,4.8362,4.9084,5.0146,5.0859,0.0,0.0,0.0,4.9153,4.8931,4.8811,4.8753,4.8764,4.8604,4.8296,4.7747,4.7318,4.7008,4.6989,4.6743,4.623,4.6279,4.6303,4.6305,4.6305,4.6306,4.6307,4.6307,4.6307,4.6307,4.6307,4.6307,4.6308,4.6308,4.6308,4.6308,4.6308,4.6308,4.6308,4.6308,4.5723,4.5058,4.5351,4.4863,4.416,4.416,4.3769,4.3262,4.2949,4.2266,4.1621,4.1621,4.1426,4.1191,4.1191,4.1191,4.1191,4.1191,4.0762,4.0351,4.0351,4.0351,4.0351,4.0351,4.082,4.1016,4.0449,3.9841,3.9248,3.8624,3.8006,3.7525,3.7191,3.6651,3.6172,3.5858,3.5802,3.5791,3.5791,3.5344,3.5063,3.5063,3.5098,3.4861,3.4348,3.5088,3.4678,3.3039,3.3847,3.3378,3.177,3.287,3.3125,4.6055,4.7885,4.9473,5.0656,5.2128,5.3402,5.3788,5.4478,5.4912,5.4495,5.2368,5.0366,0.0,0.0,4.6868,4.5988,4.6002,4.6409,4.7231,4.7495,4.8222,0.0,0.0,0.0,0.0,0.0,0.0,4.998,0.0,4.8756,4.8623,4.8599,4.8195,4.7368,4.7291,4.6863,4.6031,4.5992,4.6037,4.6162,4.6245,4.6278,4.6279,4.6279,4.6279,4.6279,4.6279,4.6279,4.6279,4.6279,4.6279,4.6279,4.6284,4.6286,4.6287,4.6289,4.6289,4.6308,4.6308,4.5723,4.5137,4.6016,4.5703,4.5019,4.5058,4.5039,4.4824,4.4004,4.3105,4.2402,4.2402,4.1797,4.1191,4.1191,4.1191,4.1191,4.1191,4.1191,4.1191,4.1191,4.1191,4.1191,4.1191,4.1191,4.1191,4.1191,4.1191,4.0605,3.8945,3.8691,3.8359,3.7519,3.7297,3.6873,3.6034,3.5867,3.5799,3.5799,3.588,3.5917,3.5917,3.5974,3.5996,3.5996,3.5195,3.4746,3.4707,3.3906,3.3496,3.3398,3.3496,3.3516,4.6007,4.8144,5.051,5.1479,5.2477,5.3498,5.4531,5.444,5.3675,5.2091,4.9734,4.7372,0.0,0.0,0.0,4.5343,4.7366,0.0,4.9394,4.9984,0.0,5.0857,0.0,5.2105,5.1379,5.1308,0.0,0.0,5.0434,5.0393,5.0358,4.9798,4.9365,4.9132,4.8505,4.8058,4.7844,4.7197,4.6882,4.6916,4.6297,4.6006,4.6002,4.6002,4.601,4.6004,4.6004,4.6004,4.6004,4.6004,4.6004,4.6004,4.6008,4.6059,4.6154,4.6156,4.6216,4.6307,4.6307,4.5722,4.5137,4.6016,4.5703,4.5117,4.5762,4.5527,4.4941,4.4726,4.3574,4.2402,4.2402,4.1797,4.1191,4.1191,4.1191,4.1191,4.1191,4.1191,4.1191,4.1191,4.1191,4.1191,4.1191,4.1191,4.1191,4.1191,4.1191,4.1035,4.0586,3.9961,3.9473,3.9258,3.8066,3.7186,3.6952,3.6324,3.5951,3.5951,3.5974,3.5975,3.5975,3.5996,3.5996,3.5996,3.5781,3.5351,3.4707,3.5137,3.4668,3.3437,3.4726,3.498,4.6622,4.8578,5.0678,5.1359,5.213,5.2808,5.3095,5.2779,5.1834,4.9668,4.7449,0.0,4.3835,4.4617,0.0,0.0,0.0,0.0,4.9928,5.0369,5.0904,0.0,5.2047,0.0,5.158,5.146,5.1401,0.0,5.1097,5.0921,5.0877,5.0088,4.9454,4.9074,4.8576,4.8324,4.8324,4.7527,4.7107,4.71,4.6286,4.589,4.5906,4.5906,4.5896,4.5906,0.0,4.5906,4.5906,4.5906,4.5906,4.5915,4.5963,4.6027,4.6103,4.6171,4.6234,4.6305,4.6305,4.5739,4.5135,4.6015,4.5976,4.5663,4.6151,4.5682,4.4999,4.4999,4.3749,4.2401,4.2401,4.1776,4.1151,4.1151,4.1445,4.1621,4.125,4.1465,4.1621,4.1269,4.1191,4.1308,4.168,4.1738,4.1855,4.2246,4.1973,4.1738,4.1738,4.0996,4.0312,3.9941,3.9023,3.8281,3.7891,3.707,3.6562,3.6562,3.6211,3.6172,3.6543,3.6191,3.6172,3.6562,3.6191,3.5762,3.5273,3.5762,3.5508,3.4551,3.5547,3.5742,4.7329,4.8829,5.0173,5.0538,5.127,5.1656,5.0761,5.0508,4.9765,4.734,0.0,4.4106,4.3364,4.4019,4.4489,4.3843,0.0,4.8997,4.9916,5.0052,5.0592,5.2108,5.2383,5.238,5.2265,5.215,5.2061,5.2061,5.1339,5.083,5.0702,4.9875,4.9048,4.8298,4.8163,4.8105,4.8105,4.7463,4.7032,4.6808,4.628,4.5972,4.5856,4.5856,4.5856,4.5856,4.5856,4.5856,4.5856,4.5856,4.5856,4.5867,4.5985,4.6045,4.6066,4.6189,4.6248,4.6252,4.6252,4.5743,4.5258,4.603,4.6226,4.6145,4.6262,4.5696,4.5013,4.5149,4.3919,4.2592,4.2729,4.2103,4.1458,4.1458,4.2027,4.2361,4.1619,4.2031,4.2363,4.168,4.1523,4.1758,4.2441,4.2578,4.2832,4.3594,4.2969,4.2402,4.2402,4.1699,4.0918,4.0156,3.9961,3.9551,3.8672,3.7793,3.7246,3.7129,3.6426,3.6348,3.7109,3.6406,3.6367,3.7109,3.6387,3.5996,3.5996,3.5996,3.5996,3.5996,3.5996,3.5996,4.6779,4.7822,4.9079,4.9138,5.0017,5.0657,4.9961,4.9459,0.0,0.0,4.418,4.2992,4.1556,4.3167,4.4872,4.5373,4.7786,5.0101,5.1624,5.1847,5.1913,0.0,0.0,0.0,0.0,5.1953,0.0,0.0,5.1193,5.0712,5.0693,4.9875,4.9336,4.9183,4.849,4.8105,4.8105,4.796,4.7208,4.5849,4.6433,4.6353,4.5648,4.5648,4.5648,4.5648,4.5648,0.0,4.5648,4.5648,4.5648,4.5648,4.5688,4.5747,4.5854,4.5879,4.5929,4.5978,4.5978,4.5862,4.5807,4.617,4.5814,4.5364,4.6087,4.5696,4.5149,4.5872,4.4817,4.3646,4.4368,4.3899,4.3254,4.3254,4.3353,4.3432,4.3275,4.3376,4.3436,4.3281,4.3262,4.3301,4.3457,4.3476,4.3535,4.3672,4.2969,4.2402,4.2402,4.1699,4.1133,4.0996,4.0332,3.9551,3.8672,3.7793,3.6992,3.6269,3.6074,3.6074,3.6211,3.6074,3.6074,3.6211,3.6074,3.5996,3.5996,3.5996,3.5996,3.5996,3.5996,3.5996,4.6588,4.7338,4.8242,4.8899,4.9707,4.9889,4.8167,0.0,0.0,0.0,4.217,4.159,4.0872,4.2455,0.0,4.4938,4.7609,5.0185,5.1854,5.209,0.0,0.0,0.0,0.0,0.0,5.1529,5.1279,5.1279,5.0914,5.0712,5.0712,4.9875,4.9394,4.9394,4.899,4.899,4.9452,4.8548,4.7702,4.6894,4.6432,4.599,4.5594,4.5594,4.5594,4.5594,4.5594,4.5594,4.5594,4.5594,4.5594,4.5603,4.5676,4.5742,4.5794,4.5848,4.5861,4.5901,4.5901,4.5901,4.592,4.6056,4.5806,4.5553,4.5966,4.5538,4.4972,4.5404,4.4639,4.3793,4.4203,4.4008,4.3696,4.3696,4.3697,4.3818,4.4289,4.4017,4.3707,4.3709,4.3709,4.3845,4.4295,4.4373,4.4373,4.4373,4.3631,4.2908,4.246,4.1679,4.1152,4.1191,4.082,4.041,3.998,3.9141,3.8476,3.8066,3.7598,3.7559,3.8008,3.7168,3.6894,3.7344,3.6465,3.5996,3.5996,3.5996,3.5996,3.5996,3.5996,3.5995,4.6415,4.7066,4.771,4.8618,4.9455,4.9356,4.6544,4.5997,0.0,0.0,4.0595,4.0523,4.0643,0.0,4.3085,0.0,4.6432,4.9029,5.1077,5.1192,5.1788,0.0,0.0,0.0,5.1846,5.1337,0.0,5.0952,5.0808,5.0616,5.0442,4.9952,4.9586,4.9413,4.9394,4.9644,5.0144,4.8779,4.7913,4.7548,4.6413,4.5787,4.5594,4.5594,4.5594,4.5594,4.5594,4.5594,4.5594,4.5594,4.5594,4.5603,4.5723,4.5757,4.5752,4.5828,4.5846,4.5846,4.5846,4.5846,4.5846,4.5846,4.5861,4.5899,4.5899,4.5351,4.4803,4.4978,4.4507,4.3984,4.4179,4.4245,4.4252,4.4252,4.4255,4.4436,4.5127,4.4737,4.4269,4.425,4.425,4.4466,4.5169,4.5286,4.5286,4.5286,4.4544,4.3666,4.279,4.1911,4.1326,4.1191,4.1191,4.1113,4.0937,4.0293,3.9824,3.9629,3.8984,3.8906,3.959,3.8301,3.7812,3.8301,3.6973,3.6191,3.5996,3.5996,3.5996,3.5996,3.619,3.6287,4.5965,4.6804,4.778,4.747,4.8697,4.9181,4.6012,0.0,0.0,4.1375,4.0598,4.0504,4.0519,0.0,0.0,0.0,0.0,4.5913,4.9163,4.8952,4.9375,0.0,0.0,0.0,5.1885,5.1827,5.1788,5.1788,5.1106,5.0346,4.9548,5.0183,5.0231,4.9433,4.9394,4.9067,4.8355,4.8182,4.7336,4.5845,4.649,4.6374,4.5594,4.5594,4.5594,4.5594,4.5594,4.5594,0.0,4.5594,4.5594,4.5594,4.5612,4.562,4.562,4.5637,4.5627,4.5627,4.5627,4.5627,4.5627,4.5627,4.5749,4.5899,4.5899,4.5302,4.4778,4.5585,4.5265,4.4878,4.566,4.5977,4.6066,4.6066,4.6067,4.6088,4.6156,4.6118,4.6061,4.6066,4.6067,4.6087,4.6165,4.6184,4.6184,4.6184,4.5442,4.4563,4.3685,4.2825,4.1987,4.1189,4.1152,4.0879,4.0098,3.9941,3.9551,3.8769,3.8633,3.8633,3.8711,3.8574,3.8144,3.7422,3.7266,3.6797,3.5995,3.5995,3.5994,3.6011,3.6811,3.7179,4.5744,4.7159,4.8413,4.8263,4.8564,4.8296,4.5912,0.0,4.3429,4.1077,4.0546,4.0496,4.0496,4.0785,4.147,4.2874,4.3374,0.0,4.7377,4.7501,4.8423,5.1425,5.0879,0.0,0.0,0.0,5.1124,5.1164,5.0875,5.0327,4.9452,5.0231,5.0308,4.9433,4.9394,4.8971,4.8105,4.7625,4.7048,4.6374,4.6201,4.5932,4.5594,4.5594,4.5594,4.5594,4.5594,4.5594,0.0,4.5594,4.5594,4.5594,4.5594,4.5594,4.5594,4.5594,4.5594,4.5594,4.5594,4.5594,4.5594,4.5594,4.5648,4.5718,4.5718,4.5524,4.5396,4.5731,4.5716,4.567,4.6001,4.6206,4.63,4.63,4.63,4.6302,4.6305,4.6305,4.6306,4.629,4.6291,4.6291,4.6291,4.6291,4.6116,4.5607,4.4787,4.3891,4.3035,4.2157,4.1476,4.113,4.1112,4.1015,4.0703,4.0684,4.0527,4.0195,4.0156,4.0156,4.0156,3.9668,3.9219,3.8867,3.8359,3.7655,3.6776,3.6774,3.6519,3.6011,3.6359,3.6513,4.4707,4.6691,4.8479,4.8523,4.8365,4.7718,0.0,0.0,4.2604,4.0862,4.0496,4.0496,4.0496,4.0496,4.0997,4.247,4.272,4.3475,4.5659,4.5995,4.6944,0.0,0.0,4.8924,0.0,5.0903,5.0477,5.0268,5.0509,5.0259,4.9384,4.9942,4.9904,4.9048,4.9029,4.8606,4.7759,4.7173,4.6778,4.6509,4.5893,4.5594,4.5594,4.5594,4.5594,4.5594,4.5594,4.5594,0.0,4.5594,4.5594,4.5594,4.5594,4.5594,4.5594,4.5594,4.5594,4.5594,4.5594,4.5594,4.5594,4.5594,4.5594,4.5594,4.5594,4.566,4.5749,4.5793,4.5933,4.6105,4.6144,4.6238,4.63,4.63,4.63,4.63,4.63,4.63,4.63,4.63,4.63,4.63,4.63,4.63,4.6085,4.548,4.4855,4.4156,4.3282,4.2403,4.1764,4.1519,4.1246,4.113,4.1191,4.1172,4.1172,4.1172,4.1171,4.1171,4.1171,4.0585,4.0136,3.9902,3.9295,3.8551,3.7672,3.7689,3.7375,3.6769,3.7018,3.6997,4.255,4.4973,4.7706,4.7632,4.7915,4.7745,0.0,0.0,4.2604,4.0862,4.0496,4.0496,4.0496,4.0496,4.0785,4.1681,4.1808,4.2379,4.399,4.423,4.4451,0.0,0.0,4.5946,4.7507,4.9376,5.0136,4.9292,5.0002,0.0,4.9254,4.9276,4.8952,4.8135,4.8105,4.774,4.6923,4.6904,4.6471,4.5614,4.5594,4.5594,4.5594,4.5594,4.5594,4.5594,4.5594,4.5594,0.0,4.5594,4.5594,4.5594,4.5594,4.5594,4.5594,4.5594,4.5594,4.5594,4.5594,4.5594,4.5594,4.5594,4.5594,4.5594,4.5594,4.5594,4.5637,4.5764,4.5933,4.6135,4.6251,4.63,4.63,4.63,4.63,4.63,4.63,4.63,4.63,4.63,4.63,4.63,4.63,4.63,4.63,4.628,4.628,4.5968,4.509,4.4211,4.3338,4.2485,4.1607,4.1125,4.1191,4.1132,4.1092,4.1092,4.1109,4.1108,4.1108,4.1088,4.0716,3.9916,3.9896,3.9465,3.858,3.858,3.8578,3.8591,3.939,3.9331,4.237,4.4132,4.5758,4.5659,4.5308,4.4811,4.4066,0.0,4.117,4.0612,4.0496,4.0496,4.0496,4.0496,4.0785,4.1662,4.1296,4.1248,0.0,0.0,0.0,4.5477,4.777,4.9321,0.0,0.0,5.0342,5.0117,5.0347,5.0385,5.0097,4.9533,4.8854,4.8049,4.7548,4.6874,4.6009,4.6009,4.5874,4.5594,4.5594,4.5594,4.5594,4.5594,4.5594,4.5594,4.5594,4.5594,4.5594,4.5594,4.5594,4.5594,4.5594,4.5594,4.5594,4.5594,4.5594,4.5594,4.5594,4.5594,4.5594,4.5594,4.5594,4.5594,4.5594,4.5594,4.5635,4.5822,4.5973,4.6135,4.6271,4.63,4.63,4.63,4.63,4.63,4.63,4.63,4.63,4.63,4.63,4.63,4.63,4.63,4.63,4.63,4.5792,4.5304,4.5049,4.3723,4.2711,4.2427,4.1626,4.1102,4.113,4.111,4.1109,4.1109,4.1108,4.1107,4.1107,4.1107,4.097,4.0736,4.0713,4.0301,3.9499,3.9435,3.9139,3.8611,3.8864,3.8513,0.0,4.3012,4.4345,4.4483,4.3825,0.0,0.0,0.0,4.0604,4.0604,4.0604,4.0616,4.0568,4.0579,4.0831,4.1662,4.1311,4.1283,0.0,0.0,0.0,4.5259,0.0,0.0,0.0,4.9854,5.0228,5.0404,5.0416,5.0416,5.0416,4.9335,4.862,4.8431,4.7405,4.6443,4.5568,4.5586,4.5594,4.5594,4.5594,4.5594,4.5594,4.5594,4.5594,4.5594,4.5594,4.5594,0.0,4.5594,4.5594,4.5594,4.5594,4.5594,4.5594,4.5594,4.5594,4.5594,4.5594,4.5594,4.5594,4.5594,4.5637,4.5676,4.5676,4.5696,4.5742,4.5934,4.6064,4.6187,4.6275,4.63,4.63,4.63,4.63,4.63,4.63,4.63,4.63,4.63,4.63,4.63,4.63,4.63,4.63,4.63,4.5831,4.55,4.55,4.427,4.3374,4.3378,4.2306,4.1585,4.1589,4.1299,4.1104,4.1104,4.1102,4.1101,4.1101,4.1101,4.1101,4.1101,4.1098,4.0842,4.0355,4.031,4.0034,3.9548,3.9548,3.9079,0.0,0.0,0.0,0.0,0.0,0.0,0.0,0.0,0.0,4.0797,4.0803,4.0786,4.0715,4.0707,4.091,4.1601,4.1645,4.2161,0.0,4.3844,0.0,0.0,4.5851,0.0,4.7696,4.8992,4.9942,5.0259,5.0302,5.0283,5.0225,4.8857,4.8335,4.889,4.7596,4.6465,4.56,4.5587,4.5605,4.5594,4.5594,4.5594,4.5594,4.5594,4.5594,0.0,4.5594,4.5594,4.5594,4.5594,4.5594,4.5594,4.5594,4.5594,4.5594,4.5594,4.5594,4.5594,4.5594,4.5594,4.5594,4.5612,4.5708,4.5807,4.5808,4.5865,4.5935,4.6061,4.6206,4.63,4.63,4.63,4.63,4.63,4.63,4.63,4.63,4.63,4.63,4.63,4.63,4.63,4.63,4.63,4.63,4.63,4.63,4.63,4.63,4.5539,4.499,4.499,4.3509,4.2474,4.2415,4.1602,4.1098,4.1098,4.1093,4.1109,4.1109,4.1109,4.1109,4.1109,4.1109,4.1109,4.1109,4.1109,4.1109,4.1109,4.1109,4.062,0.0,0.0,0.0,0.0,0.0,0.0,0.0,0.0,0.0,0.0,0.0,4.0786,4.0715,4.0707,4.0724,4.0781,4.1253,4.1961,4.2958,0.0,0.0,4.6818,4.7694,4.8277,4.8383,4.9237,4.9942,5.0259,5.0302,5.0034,4.9404,4.9606,4.893,4.7171,4.7465,4.7269,4.6512,4.5859,4.5559,4.5594,4.5594,4.5594,4.5594,4.5594,4.5594,4.5594,4.5594,4.5594,4.5594,4.5594,4.5594,4.5594,4.5594,4.5594,4.5594,4.5594,4.5594,4.5594,4.5594,4.5594,4.5612,4.5712,4.5778,4.5828,4.5979,4.6037,4.6057,4.6095,4.6206,4.63,4.63,4.63,4.63,4.63,4.63,4.63,4.63,4.63,4.63,4.63,4.63,4.63,4.63,4.63,4.63,4.63,4.63,4.63,4.63,4.5539,4.499,4.499,4.4036,4.3118,4.2454,4.1597,4.1091,4.1091,4.109,4.1109,4.1109,4.1109,4.1109,4.1109,4.1109,4.1109,4.1109,4.1109,4.1109,4.1109,4.1109,4.062,0.0,0.0,4.029,4.0523,4.0701,4.0869,4.0962,0.0,0.0,0.0,0.0,4.1018,4.1281,4.1637,4.1718,4.1174,4.2356,0.0,0.0,0.0,4.5854,4.6917,4.7305,4.7863,0.0,4.9194,4.9468,4.9817,4.9844,4.9483,4.8681,4.87,4.8112,4.6733,4.6429,4.6245,4.6158,4.5726,4.5513,4.554,4.5586,4.5594,4.5594,4.5594,4.5594,4.5594,4.5594,4.5594,4.5594,4.5594,4.5594,4.5594,4.5594,4.5594,4.5594,4.5594,4.5594,4.5594,4.5594,4.5646,4.5688,4.5778,4.5854,4.5968,4.6072,4.6141,4.6184,4.6184,4.6243,4.63,4.63,4.63,4.63,4.63,4.63,4.63,4.63,4.63,4.63,4.63,4.63,4.63,4.63,4.63,4.63,4.63,4.63,4.63,4.63,4.589,4.5597,4.5597,4.4816,4.4114,4.3626,4.2786,4.1949,4.1148,4.1109,4.1109,4.1109,4.1109,4.1109,4.1109,4.1109,4.1109,4.1109,4.1109,4.1109,4.1109,4.1109,4.0855,4.0828,4.0894,4.0931,4.0839,4.0898,4.1032,4.1132,0.0,0.0,0.0,0.0,0.0,4.2167,4.2634,0.0,0.0,0.0,0.0,4.5321,4.498,4.521,4.652,4.6431,0.0,4.8858,4.8874,4.8951,4.9268,4.9299,4.8961,4.8134,4.7458,4.697,4.6703,4.5317,4.4827,4.5298,4.539,4.5448,4.5504,4.5568,4.5594,4.5594,4.5594,4.5594,4.5594,0.0,0.0,4.5594,4.5594,4.5594,4.5594,4.5594,4.5594,4.5594,4.5594,4.5594,4.5594,4.5594,4.5692,4.5807,4.5815,4.5938,4.6102,4.6112,4.6211,4.63,4.63,4.63,4.63,4.63,4.63,4.63,4.63,4.63,4.63,4.63,4.63,4.63,4.63,4.63,4.63,4.63,4.63,4.63,4.63,4.63,4.63,4.63,4.63,4.63,4.63,4.5636,4.5148,4.501,4.4328,4.3157,4.1402,4.1304,4.1246,4.1109,4.1109,4.1109,4.1109,4.1109,4.1109,4.1109,4.1109,4.1109,4.1109,4.1109,4.1109,4.0898,4.1944,4.2676,4.1179,4.0898,4.1012,4.1028,0.0,0.0,0.0,0.0,0.0,0.0,4.2044,4.1491,0.0,0.0,4.6031,0.0,0.0,4.8045,4.8016,0.0,4.7924,4.788,4.8423,4.8951,4.9268,4.9299,4.8945,4.8142,4.7969,4.727,4.5852,4.5618,4.5294,4.4898,4.5019,4.5222,4.5504,4.5568,4.5594,4.5594,4.5594,4.5594,4.5594,0.0,4.5594,4.5594,4.5594,4.5594,4.5594,4.5594,4.5594,4.5594,4.5594,4.5594,4.5594,4.5594,4.5692,4.5808,4.5863,4.5978,4.6112,4.6221,4.6277,4.63,4.63,4.63,4.63,4.63,4.63,4.63,4.63,4.63,4.63,4.63,4.63,4.63,4.63,4.63,4.63,4.63,4.63,4.63,4.63,4.63,4.63,4.63,4.63,4.63,4.63,4.6183,4.5792,4.5068,4.4875,4.4055,4.2318,4.2201,4.1869,4.1129,4.1109,4.1109,4.1109,4.1109,4.1109,4.1109,4.1109,4.1109,4.1109,4.1109,4.1109,4.0863,4.1778,4.2658,4.2307,4.3031,4.3748,4.3271,4.3495,0.0,0.0,0.0,0.0,0.0,0.0,4.4955,4.7722,0.0,4.6175,4.8611,4.7205,4.6209,0.0,0.0,4.7261,4.7905,4.831,4.8586,4.8745,4.8355,4.7762,4.6945,4.6498,4.57,4.4496,4.4493,4.4535,4.4572,4.4726,4.5019,4.5438,4.5559,4.5594,4.5594,4.5594,4.5594,4.5594,0.0,4.5594,4.5594,4.5594,4.5594,4.5594,4.5594,4.5594,4.5594,4.5594,4.5594,4.5594,4.5594,4.5708,4.5865,4.5883,4.6045,4.6216,4.6275,4.63,4.63,4.63,4.63,4.63,4.63,4.63,4.63,4.63,4.63,4.63,4.63,4.63,4.63,4.63,4.63,4.63,4.63,4.63,4.63,4.63,4.63,4.63,4.63,4.63,4.63,4.63,4.63,4.6144,4.5734,4.5695,4.4758,4.2533,4.1967,4.1518,4.1129,4.1109,4.1109,4.1109,4.1109,4.1109,4.1109,4.1109,4.1109,4.1109,4.1109,4.1109,4.088,4.1653,4.2633,4.3262,0.0,4.5592,4.5292,4.5252,0.0,0.0,0.0,0.0,0.0,4.6012,0.0,5.0526,4.8107,4.6491,4.8298,4.6277,4.5149,4.6599,4.6581,4.6948,4.8196,4.8306,4.8233,4.8031,4.7443,4.6746,4.5938,4.5149,4.4415,4.3791,4.3657,4.3873,4.4383,4.4599,4.4931,4.541,4.555,4.5594,4.5594,4.5594,4.5594,4.5594,4.5594,4.5594,4.5594,4.5594,4.5594,4.5594,4.5594,4.5594,4.5594,4.5594,4.5594,4.5594,4.5594,4.5711,4.5881,4.5881,4.6041,4.6247,4.6247,4.6273,4.63,4.63,4.63,4.63,4.63,4.63,4.63,4.63,4.63,4.6298,4.6269,4.6275,4.6298,4.6269,4.6275,4.63,4.63,4.63,4.63,4.63,4.63,4.63,4.63,4.63,4.63,4.63,4.63,4.63,4.63,4.6105,4.5148,4.3138,4.2181,4.1617,4.1402,4.1402,4.1304,4.1109,4.1109,4.1109,4.1109,4.1109,4.1109,4.1109,4.1109,4.1109,4.1084,4.2308,4.3562,4.3513,4.3649,0.0,4.5605,4.5984,0.0,4.5769,0.0,0.0,0.0,4.6561,4.6355,4.6455,4.64,4.7436,5.0598,0.0,4.8306,4.9225,4.8618,4.8177,4.8306,4.8306,4.7975,4.7241,4.7131,4.6746,4.5938,4.5149,4.4654,4.4635,4.4186,4.4106,4.4402,4.4788,4.5107,4.541,4.555,4.5594,4.5594,4.5594,4.5594,4.5594,4.5594,4.5594,4.5594,4.5594,4.5594,4.5594,4.5594,4.5594,4.5594,4.5594,4.5594,4.5594,4.5594,4.57,4.5801,4.5801,4.5958,4.6109,4.6109,4.6209,4.63,4.63,4.63,4.63,4.63,4.63,4.63,4.63,4.63,4.6271,4.6141,4.6211,4.6249,4.6141,4.6214,4.63,4.63,4.63,4.63,4.63,4.63,4.63,4.63,4.63,4.63,4.63,4.63,4.63,4.63,4.5558,4.501,4.4815,4.3997,4.3157,4.2337,4.2318,4.1927,4.1129,4.1109,4.1109,4.1109,4.1109,4.1109,4.1109,4.1109,4.1109,4.1711,4.2725,4.3852,4.4772,4.4648,0.0,0.0,4.7184,4.7114,4.5409,4.6093,0.0,0.0,0.0,4.8599,4.8558,4.8628,4.9061,5.0101,4.9118,4.8416,4.8746,4.8067,4.7553,4.7553,4.7113,4.6691,4.6379,4.5902,4.5461,4.5168,4.4397,4.3956,4.3956,4.3781,4.3921,4.4402,4.4618,4.4966,4.541,4.555,4.5594,4.5594,4.5594,4.5594,4.5594,4.5594,4.5594,4.5594,4.5594,4.5594,4.5594,4.5594,4.5594,4.5594,4.5594,4.5594,4.5594,4.5594,4.5692,4.5801,4.5847,4.5959,4.6128,4.6206,4.6269,4.63,4.63,4.63,4.63,4.63,4.63,4.6275,4.6206,4.6178,4.6141,4.6,4.6087,4.615,4.6105,4.6211,4.63,4.63,4.63,4.63,4.63,4.63,4.63,4.63,4.63,4.63,4.63,4.63,4.63,4.63,4.6007,4.5812,4.5812,4.4484,4.3313,4.2435,4.2396,4.1986,4.1129,4.1109,4.1109,4.1109,4.1109,4.1109,4.1109,4.1109,4.1109,4.2174,4.2919,4.3813,4.4807,0.0,0.0,4.6721,4.7581,4.766,4.6355,4.6758,0.0,0.0,0.0,0.0,0.0,4.9081,4.9437,4.9227,4.8673,4.8214,4.7957,4.7443,4.7003,4.6746,4.6214,4.5792,4.5535,4.5021,4.4599,4.4342,4.3791,4.3515,4.3515,4.3679,4.3992,4.4425,4.4707,4.5044,4.5429,4.555,4.5594,4.5594,4.5594,4.5594,4.5594,4.5594,4.5594,4.5594,4.5594,4.5594,4.5594,4.5594,4.5594,4.5594,4.5594,4.5594,4.5594,4.5594,4.5651,4.5757,4.5841,4.5944,4.6057,4.6206,4.6271,4.63,4.63,4.63,4.63,4.63,4.63,4.6275,4.6181,4.6153,4.6135,4.5992,4.6061,4.6147,4.6105,4.6211,4.63,4.63,4.63,4.63,4.63,4.63,4.63,4.63,4.63,4.63,4.63,4.63,4.63,4.63,4.63,4.63,4.63,4.5187,4.4133,4.3255,4.2962,4.2396,4.1537,4.1246,4.1109,4.1109,4.1109,4.1109,4.1109,4.1109,4.1109,4.2329,4.2893,4.3452,0.0,0.0,0.0,4.6534,4.6958,4.7475,4.9148,4.8731,4.771,4.6446,4.6603,0.0,4.5226,4.6874,4.8306,4.8306,4.8288,4.7994,4.7186,4.7076,4.6746,4.5975,4.5883,4.5553,4.4746,4.4691,4.4342,4.3551,4.3496,4.3496,4.3496,4.4084,4.4425,4.4506,4.5096,4.5429,4.5504,4.5568,4.5594,4.5594,4.5594,4.5594,4.5594,4.5594,4.5594,4.5594,4.5594,4.5594,4.5594,4.5594,4.5594,4.5594,4.5594,4.5594,4.5594,4.5594,4.5594,4.5629,4.5757,4.5841,4.5925,4.6057,4.6187,4.63,4.63,4.63,4.63,4.63,4.63,4.63,4.63,4.63,4.6269,4.6135,4.6209,4.6269,4.6135,4.6211,4.63,4.63,4.63,4.63,4.63,4.63,4.63,4.63,4.63,4.63,4.63,4.63,4.63,4.63,4.63,4.63,4.63,4.63,4.5909,4.501,4.4153,4.3294,4.2396,4.1537,4.1109,4.1109,4.1109,4.1109,4.1109,4.1109,4.1109,4.2763,4.3188,0.0,4.4623,0.0,0.0,0.0,4.6714,0.0,0.0,4.7965,4.6941,4.75,0.0,0.0,4.6579,4.704,4.7461,4.7461,4.6985,4.6526,4.6287,4.5773,4.5315,4.5094,4.4544,4.4103,4.3864,4.3864,4.3736,4.3497,4.3732,4.3862,4.3862,4.4202,4.4519,4.4776,4.5007,4.5243,4.5504,4.5568,4.5594,4.5594,4.5594,4.5594,4.5594,4.5594,4.5594,4.5594,4.5594,4.5594,4.5594,4.5594,4.5594,4.5594,4.5594,4.5651,4.5739,4.5637,4.5692,4.5821,4.5858,4.5949,4.6061,4.6206,4.6271,4.63,4.63,4.63,4.63,4.63,4.63,4.6275,4.6181,4.617,4.6112,4.5992,4.6061,4.6144,4.6105,4.6211,4.63,4.63,4.63,4.63,4.63,4.63,4.63,4.63,4.63,4.63,4.63,4.63,4.6303,4.6309,4.6309,4.6291,4.6296,4.6296,4.5629,4.4154,4.384,4.3003,4.1518,4.1226,4.1109,4.1109,4.1109,4.1109,4.1109,4.1109,4.1091,4.3471,4.3813,0.0,4.567,4.5735,4.5446,4.5582,0.0,0.0,0.0,4.7357,4.6314,4.7327,4.7335,0.0,4.625,4.6672,4.6984,4.6654,4.6214,4.5773,4.5461,4.5002,4.4563,4.425,4.3773,4.3515,4.3515,4.3515,4.3548,4.3699,4.3894,4.4048,4.4166,4.4438,4.4714,4.495,4.5107,4.5312,4.5531,4.5577,4.5594,4.5594,4.5594,4.5594,4.5594,4.5594,4.5594,4.5594,4.5594,4.5594,4.5594,4.5594,4.5594,4.5594,4.5594,4.5684,4.5793,4.5715,4.5789,4.591,4.5949,4.6021,4.6131,4.6269,4.6303,4.6305,4.6302,4.6303,4.6305,4.6302,4.63,4.6275,4.6206,4.6178,4.617,4.6087,4.6112,4.6178,4.6178,4.6245,4.63,4.63,4.63,4.63,4.63,4.63,4.63,4.63,4.6303,4.6305,4.6305,4.6308,4.6293,4.6296,4.6296,4.6299,4.6301,4.6301,4.5517,4.3773,4.3692,4.3201,4.2144,4.1441,4.1109,4.1109,4.1109,4.1109,4.1109,4.1109,4.1091,4.4141,4.4515,4.4846,4.6318,4.596,0.0,4.4845,4.5889,4.7118,4.79,0.0,4.5904,4.6386,4.6415,4.6013,4.4982,4.5975,4.6617,4.5883,4.5736,4.5406,4.469,4.4599,4.4305,4.357,4.3515,4.3515,4.3515,4.3532,4.3682,4.3989,4.4048,4.4196,4.4425,4.4763,4.4985,4.5041,4.5342,4.5522,4.5594,4.5594,4.5594,4.5594,4.5594,4.5594,4.5594,4.5594,4.5594,4.5594,4.5594,4.5594,4.5594,4.5594,4.5594,4.5594,4.5612,4.5708,4.5808,4.5808,4.5865,4.5949,4.6061,4.6109,4.6144,4.6253,4.6308,4.6293,4.6305,4.6308,4.6293,4.6305,4.6303,4.6303,4.6302,4.6302,4.63,4.63,4.63,4.63,4.63,4.63,4.63,4.63,4.63,4.63,4.63,4.63,4.6302,4.6302,4.6308,4.6293,4.6294,4.6299,4.6301,4.6302,4.6302,4.6302,4.6303,4.6303,4.5599,4.3997,4.3779,4.3636,4.3471,4.1911,4.1091,4.109,4.109,4.1091,4.1091,4.1091,4.1091,4.3257,4.3919,0.0,4.5532,4.6146,4.644,4.6166,4.6102,4.6149,4.6229,4.6252,4.627,4.6392,4.6183,4.5937,4.5681,4.5406,4.515,4.4966,4.4415,4.3938,4.3773,4.3754,4.3681,4.3533,4.3515,4.3515,4.3515,4.3749,4.3926,4.4005,4.4402,4.4676,4.4788,4.5132,4.532,4.54,4.5457,4.5522,4.5594,4.5594,4.5594,4.5594,4.5594,4.5594,4.5594,4.5594,4.5594,4.5594,4.5594,4.5594,4.5594,4.5594,4.5594,4.5612,4.5731,4.5809,4.5886,4.5886,4.6037,4.6204,4.6114,4.618,4.6252,4.6296,4.63,4.63,4.6299,4.63,4.63,4.6299,4.6299,4.6297,4.6293,4.6305,4.63,4.63,4.63,4.63,4.63,4.63,4.63,4.63,4.63,4.63,4.63,4.63,4.6303,4.6309,4.6293,4.6295,4.63,4.6301,4.6303,4.6306,4.6306,4.6307,4.6308,4.6308,4.6132,4.5759,4.4428,4.3055,4.1682,4.1298,4.1102,4.1097,4.1097,4.1099,4.1104,4.1099,4.1101,0.0,0.0,0.0,4.4566,0.0,4.5913,4.5222,4.4901,4.4739,4.4668,4.4851,4.513,4.5537,4.5438,4.5204,4.48,4.4727,4.458,4.4176,4.3754,4.3515,4.3515,4.3515,4.3515,4.3515,4.3515,4.3515,4.3515,4.3814,4.4048,4.4177,4.4572,4.4903,4.5124,4.531,4.5419,4.5504,4.5522,4.5357,4.4979,4.5402,4.5594,4.5594,4.5594,4.5594,4.5594,4.5594,4.5594,4.5594,4.5594,4.5594,4.5594,4.5594,4.5622,4.5665,4.5759,4.5871,4.5949,4.5974,4.6125,4.6295,4.622,4.6249,4.6301,4.6301,4.6303,4.6304,4.6302,4.6303,4.6304,4.6302,4.6301,4.6301,4.6299,4.6295,4.6291,4.6308,4.6306,4.6306,4.6306,4.6303,4.63,4.63,4.63,4.63,4.63,4.6303,4.6308,4.6293,4.6299,4.6302,4.6305,4.6306,4.6307,4.6308,4.6308,4.6308,4.6308,4.6308,4.6113,4.5683,4.4393,4.3277,4.2352,4.1536,4.1106,4.1103,4.1103,4.1104,4.1107,4.1104,4.1106,0.0,4.3291,4.3061,4.3978,4.4718,0.0,4.395,4.3699,4.3663,4.3533,4.3515,4.3699,4.4378,4.4488,4.4268,4.3608,4.4066,4.4268,4.3589,4.3515,4.3515,4.3515,4.3515,4.3515,4.3515,4.3515,4.3515,4.3515,4.3844,4.4166,4.4402,4.4733,4.5057,4.5389,4.5275,4.5304,4.5513,4.528,4.4883,4.4316,4.5037,4.5383,4.5383,4.5537,4.5594,4.5594,4.5594,4.5594,4.5594,4.5594,4.5614,4.5622,4.5622,4.5654,4.5735,4.5815,4.5919,4.6033,4.6103,4.6206,4.6303,4.6303,4.6303,4.6304,4.6304,4.6306,4.6307,4.6305,4.6306,4.6307,4.6305,4.6304,4.6304,4.6303,4.6303,4.6302,4.6296,4.6295,4.6295,4.6295,4.6309,4.6305,4.6305,4.6305,4.6305,4.6305,4.6291,4.6295,4.6296,4.6304,4.6307,4.6307,4.6308,4.6308,4.6308,4.6308,4.6308,4.6308,4.6152,4.582,4.5254,4.4101,4.3554,4.3706,4.2007,4.1109,4.1108,4.1108,4.1108,4.1129,4.1108,4.1108,0.0,0.0,4.4366,0.0,4.5119,4.5078,0.0,0.0,4.4342,0.0,4.3515,4.3533,4.3626,4.3644,4.3643,4.3533,4.3589,4.3608,4.3533,4.3515,4.3515,4.3515,4.3515,4.3515,4.3515,4.3515,4.3515,4.3515,4.4042,4.4374,4.4402,4.4988,4.535,4.539,4.4767,4.4802,4.5586,4.4162,4.372,4.4297,4.4412,4.447,4.4489,4.5267,4.5594,4.5594,4.5594,4.5594,4.5594,4.5594,4.564,4.5693,4.5693,4.5727,4.5796,4.5934,4.6014,4.6106,4.623,4.6283,4.6306,4.6306,4.6307,4.6308,4.6308,4.6308,4.6308,4.6308,4.6308,4.6308,4.6308,4.6308,4.6308,4.6307,4.6308,4.6308,4.6302,4.6301,4.6301,4.6301,4.6301,4.63,4.63,4.63,4.63,4.63,4.6301,4.6302,4.6305,4.6306,4.6307,4.6308,4.6308,4.6308,4.6308,4.6308,4.6308,4.6308,4.5586,4.5469,4.6094,4.3848,4.293,4.3691,4.2051,4.1152,4.1091,4.1091,4.1132,4.1191,4.1132,4.1132,4.1939,4.2701,4.3435,0.0,4.4251,4.4217,4.4046,4.403,4.392,4.357,4.3515,4.3515,4.3515,4.3515,4.3515,4.3515,4.3515,4.3515,4.3515,4.3515,4.3515,4.3515,4.3515,4.3515,4.3515,4.3515,4.3515,4.3515,4.4053,4.4411,4.4452,4.5065,4.5208,4.4795,4.4468,4.4273,4.4201,4.347,4.3278,4.3624,4.3124,4.3393,4.4316,4.4701,4.5152,4.5594,4.5594,4.5594,4.5594,4.5594,4.5622,4.5657,4.5739,4.5769,4.5819,4.5994,4.6106,4.6175,4.6264,4.6308,4.6308,4.6308,4.6308,4.6308,4.6308,4.6308,4.6308,4.6308,4.6308,4.6308,4.6308,4.6308,4.6308,4.6308,4.6308,4.6308,4.6307,4.6306,4.6305,4.6302,4.6301,4.6301,4.6301,4.6301,4.6301,4.6301,4.6304,4.6305,4.6307,4.6307,4.6307,4.6308,4.6308,4.6308,4.6308,4.6308,4.6308,4.6308,4.5937,4.5898,4.6289,4.4258,4.3301,4.3691,4.2051,4.1191,4.1152,4.1152,4.1172,4.1191,4.1172,4.1172,0.0,0.0,4.2194,4.2983,4.3185,4.3296,0.0,0.0,4.357,0.0,4.3626,4.3515,4.3515,4.3515,4.3515,4.3515,4.3515,4.3515,4.3515,4.3515,4.3515,4.3515,4.3515,4.3515,4.3515,4.3515,4.3515,4.3515,4.4053,4.4425,4.4506,4.5079,4.516,4.4611,4.4207,4.3801,4.3412,4.2989,4.2662,4.2431,4.2008,4.245,4.3662,4.3893,4.4355,4.4979,4.519,4.5402,4.5575,4.5364,4.5411,4.5648,4.5749,4.5796,4.585,4.5983,4.6114,4.6207,4.6264,4.6288,4.6308,4.6308,4.6308,4.6308,4.6308,4.6308,4.6308,4.6308,4.6308,4.6308,4.6308,4.6308,4.6308,4.6308,4.6308,4.6308,4.6308,4.6308,4.6307,4.6305,4.6305,4.6305,4.6305,4.6305,4.6305,4.6305,4.6306,4.6307,4.6307,4.6307,4.6307,4.6308,4.6308,4.6308,4.6308,4.6094,4.5976,4.5976,4.5547,4.5508,4.5957,4.4101,4.3262,4.3691,4.2051,4.1191,4.1191,4.1191,4.1191,4.1191,4.0976,4.0996,0.0,4.0714,0.0,4.2158,4.2359,4.2763,0.0,0.0,4.3718,4.4488,4.403,4.3515,4.3515,4.3515,4.3515,4.3515,4.3515,4.3515,4.3515,4.3515,4.3515,4.3515,4.3515,4.3515,4.3515,4.3515,4.3515,4.3515,4.4053,4.4425,4.4506,4.5074,4.541,4.5437,4.3964,4.3508,4.422,4.2662,4.145,4.065,4.1431,4.1846,4.1962,4.2797,4.3181,4.3278,4.4047,4.4836,4.5537,4.4701,4.4889,4.5701,4.5709,4.5778,4.5894,4.5911,4.6033,4.6202,4.6206,4.6242,4.6308,4.6308,4.6308,4.6308,4.6308,4.6308,4.6308,4.6308,4.6308,4.6308,4.6308,4.6308,4.6308,4.6308,4.6308,4.6308,4.6308,4.6308,4.6308,4.6308,4.6308,4.6308,4.6308,4.6308,4.6308,4.6308,4.6308,4.6307,4.6308,4.6308,4.6307,4.6308,4.6308,4.6308,4.6308,4.5547,4.5078,4.5078,4.3516,4.334,4.5,4.2656,4.207,4.3672,4.2051,4.1191,4.1191,4.1191,4.1191,4.1172,4.0351,4.041,0.0,0.0,0.0,4.1462,4.1919,4.2451,4.3039,4.3332,4.3588,4.3864,4.3699,4.3515,4.3515,4.3515,4.3515,4.3515,4.3515,4.3515,4.3515,4.3515,4.3515,4.3515,4.3515,4.3515,4.3515,4.3515,4.3515,4.3515,4.4099,4.4493,4.4572,4.4652,4.4477,4.3983,4.2865,4.2143,4.1862,4.1258,4.0804,4.0496,4.0823,4.1258,4.1808,4.2124,4.2566,4.3085,4.2816,4.3489,4.4778,4.5037,4.5334,4.5637,4.5737,4.5783,4.5856,4.6037,4.6133,4.6206,4.6243,4.6288,4.6308,4.6308,4.6308,4.6308,4.6308,4.6308,4.6308,4.6308,4.6308,4.6308,4.6308,4.6308,4.6308,4.6308,4.6308,4.6152,4.5586,4.5918,4.6308,4.6308,4.6308,4.6113,4.5566,4.5469,4.5273,4.4726,4.5117,4.5468,4.5466,4.5953,4.6305,4.6307,4.6307,4.6307,4.6308,4.6016,4.582,4.582,4.4726,4.4355,4.4961,4.3047,4.2246,4.2851,4.1777,4.1191,4.1191,4.1191,4.1191,4.1172,4.0312,4.0078,4.1369,0.0,0.0,0.0,4.1313,4.1699,4.2525,4.291,4.324,4.3791,4.3681,4.3515,4.3515,4.3515,4.3515,4.3515,4.3515,4.3515,4.3515,4.3515,4.3515,4.3515,4.3515,4.3515,4.3515,4.3599,4.3615,4.3515,4.4194,0.0,4.4593,4.4416,4.3658,4.2277,4.195,4.1258,4.0112,4.0362,4.0496,4.0496,4.0496,4.0804,4.1354,4.1354,4.1681,4.22,4.1947,4.2629,4.3918,4.4226,4.4696,4.5203,4.5295,4.5544,4.5856,4.6022,4.6133,4.6206,4.6243,4.6288,4.6308,4.6308,4.6308,4.6308,4.6308,4.6308,4.6308,4.6308,4.6308,4.6308,4.6308,4.6308,4.6308,4.6308,4.6308,4.6055,4.5195,4.5683,4.6133,4.5547,4.5664,4.5586,4.4707,4.4551,4.4472,4.4178,4.4628,4.5116,4.5405,4.5933,4.6305,4.6307,4.6307,4.6307,4.6308,4.6035,4.5742,4.5449,4.4609,4.4121,4.4121,4.2754,4.2129,4.2383,4.1601,4.1191,4.1191,4.1191,4.1191,4.1172,4.0019,3.9316,0.0,0.0,0.0,0.0,0.0,0.0,4.2892,4.2855,4.2782,4.4323,4.403,4.3515,4.3515,4.3515,4.3515,4.3515,4.3515,4.3515,4.3515,4.3515,4.3515,4.3515,4.3515,4.3515,4.3515,4.3798,4.3862,4.3531,4.4364,4.4812,4.4618,4.4378,4.312,4.0573,4.1316,4.0989,3.9361,4.0112,4.0496,4.0496,4.0496,4.0496,4.0496,4.0496,4.0496,4.0562,4.1466,4.2318,4.2973,4.2233,4.2903,4.4369,4.4407,4.4994,4.5867,4.5906,4.6029,4.6202,4.6204,4.6242,4.6308,4.6308,4.6308,4.6308,4.6308,4.6308,4.6308,4.6308,4.6308,4.6308,4.6308,4.6308,4.6289,4.6269,4.6269,4.6016,4.5117,4.5605,4.5723,4.4023,4.4375,4.4687,4.3808,4.3652,4.3945,4.4803,4.4959,4.5272,4.6111,4.6268,4.6288,4.6269,4.6289,4.6308,4.6308,4.5527,4.4668,4.3789,4.293,4.2422,4.2402,4.1621,4.1562,4.2344,4.1601,4.1191,4.1191,4.1191,4.1191,4.1152,3.9414,3.8125,4.2094,0.0,0.0,0.0,0.0,0.0,0.0,4.2488,4.313,4.2983,4.324,4.3515,4.3515,4.3515,4.3515,4.3515,4.3515,4.3515,4.3515,4.3515,4.3515,4.3515,4.3515,4.3515,4.3515,4.3582,4.3699,0.0,4.4369,4.4751,4.4884,4.3953,4.2538,4.0554,4.0727,4.065,4.0169,4.04,4.0496,4.0496,4.0496,4.0496,4.0496,4.0496,4.0552,4.0655,4.0913,4.1211,4.1578,4.2479,4.3139,4.366,4.4298,4.4741,4.5121,4.5842,4.614,4.6206,4.6264,4.6288,4.6308,4.6308,4.6308,4.6308,4.6308,4.6308,4.6308,4.6308,4.6308,4.6308,4.6308,4.6308,4.6133,4.5508,4.5351,4.4941,4.3437,4.3808,4.4277,4.3789,4.3887,4.3789,4.291,4.2754,4.2832,4.3084,4.3652,4.4159,4.439,4.5525,4.6053,4.5429,4.5917,4.6308,4.6308,4.6074,4.5566,4.4707,4.3828,4.3066,4.2422,4.1621,4.1308,4.1523,4.1264,4.1147,4.1191,4.1191,4.1191,4.1152,3.9414,3.7793,0.0,0.0,0.0,0.0,0.0,0.0,4.1535,4.2307,4.2914,4.2818,4.315,4.3463,4.3479,4.3515,4.3515,4.3515,4.3515,4.3515,4.3515,4.3515,4.3515,4.3515,4.3515,4.3515,4.3515,4.3632,4.3795,4.3999,4.4493,4.4604,4.4228,4.349,4.2143,4.0073,4.0323,4.0342,3.9996,4.0323,4.0496,4.0496,4.0496,4.0496,4.0496,4.0559,4.063,4.0703,4.0761,4.0822,4.096,4.1907,4.2507,4.2957,4.4205,4.4717,4.4902,4.5859,4.6212,4.6242,4.6289,4.6308,4.6308,4.6308,4.6308,4.6308,4.6308,4.6308,4.6308,4.6308,4.6035,4.5762,4.5762,4.5488,4.5098,4.457,4.4453,4.4082,4.2695,4.2793,4.3066,4.2715,4.293,4.2891,4.2031,4.1894,4.2012,4.2342,4.2832,4.3281,4.3649,4.4901,4.5429,4.455,4.5234,4.5605,4.5254,4.5215,4.4844,4.3965,4.3437,4.2773,4.1933,4.1424,4.0992,4.0621,4.056,4.0358,4.0025,4.0423,4.0252,3.9551,3.8841,3.7783,0.0,0.0,0.0,0.0,0.0,0.0,4.1956,4.2238,4.2388,4.3169,4.3282,4.3265,4.3316,4.3277,4.3259,4.3349,4.3369,4.3387,4.3496,4.3515,4.3515,4.3515,4.3515,4.3515,4.3515,4.3814,4.4014,4.4061,4.4676,4.4485,4.3165,4.3104,4.197,3.9515,4.0131,4.0169,3.9438,4.015,4.0496,4.0496,4.0519,4.0527,4.0534,4.0655,4.0713,4.074,4.0856,4.0929,4.0938,4.1087,4.1574,4.2367,4.401,4.4768,4.5016,4.5896,4.6243,4.6289,4.6191,4.6211,4.6289,4.6191,4.6211,4.6308,4.6308,4.6308,4.6289,4.6172,4.5605,4.498,4.4883,4.4277,4.3672,4.3574,4.3555,4.332,4.2441,4.2266,4.2051,4.1348,4.1777,4.2031,4.1328,4.1191,4.1465,4.2284,4.2402,4.2676,4.3456,4.4316,4.4512,4.3652,4.4336,4.4531,4.3769,4.3691,4.332,4.2461,4.2402,4.2031,4.123,4.1144,4.0704,3.9822,3.9646,3.9165,3.8383,3.9232,3.8832,3.7284,3.7944,3.7812,0.0,0.0,0.0,0.0,0.0,0.0,4.2084,4.2167,4.2083,4.2246,4.2283,4.2265,4.2283,4.1891,4.1791,4.2433,4.2525,4.2763,4.3423,4.3515,4.3515,4.3515,4.3515,4.3515,4.3515,4.3814,4.4106,4.4364,4.5022,4.4737,4.3173,4.3104,4.222,4.0323,4.0419,4.0419,4.0265,4.0419,4.0496,4.0496,4.061,4.0655,4.0661,4.0747,4.0832,4.0939,4.0976,4.1046,4.1187,4.1851,4.2195,4.2387,4.3423,4.4301,4.5097,4.5956,4.6289,4.6191,4.5508,4.5703,4.6172,4.5488,4.5723,4.6308,4.6308,4.6308,4.6152,4.5449,4.5137,4.4844,4.4141,4.3828,4.3516,4.2812,4.2656,4.2422,4.1601,4.1426,4.1387,4.123,4.1328,4.1387,4.123,4.1191,4.1465,4.2285,4.2402,4.2461,4.2637,4.3418,4.3613,4.2754,4.3437,4.3887,4.3711,4.3691,4.332,4.2461,4.2402,4.2031,4.123,4.1191,4.0758,3.9822,3.9043,3.854,3.833,3.8552,3.8139,3.7132,3.7288,3.6893,0.0,0.0,0.0,4.116,0.0,0.0,0.0,4.158,4.1477,4.1529,4.1841,4.2117,4.215,4.1889,4.1827,4.2231,4.2304,4.2304,4.2304,4.2983,4.3515,4.3515,4.3515,4.3515,4.3515,4.3809,4.4227,4.4763,4.5263,4.4837,4.3181,4.3104,4.2297,4.0554,4.0496,4.0496,4.0496,4.0092,4.0137,4.0596,3.9785,3.9885,4.0733,4.0395,4.0535,4.0998,4.1077,4.1149,4.123,4.1641,4.2011,4.2436,4.3314,4.3943,4.4394,4.4844,4.5273,4.5527,4.4648,4.4922,4.5586,4.5137,4.5293,4.5644,4.5644,4.5351,4.4902,4.4473,4.4043,4.3594,4.3164,4.2754,4.2344,4.1914,4.1797,4.1699,4.1289,4.1191,4.1191,4.1191,4.1191,4.1191,4.1191,4.1191,4.1348,4.1738,4.1797,4.1797,4.1797,4.2539,4.2734,4.1894,4.2558,4.2891,4.248,4.2441,4.2266,4.1836,4.1797,4.1621,4.1211,4.1169,4.0487,3.9076,3.7743,3.7048,3.7007,3.7048,3.6844,3.6457,3.6428,3.6176,0.0,0.0,0.0,0.0,0.0,3.9717,0.0,0.0,0.0,4.0993,0.0,0.0,0.0,0.0,0.0,4.1809,0.0,0.0,0.0,4.2359,0.0,4.3276,4.3423,4.3515,4.3515,4.3865,4.4395,4.5118,4.5438,4.4883,4.3181,4.3104,4.2297,4.0554,4.0496,4.0439,4.0265,3.9619,3.9597,4.0175,3.8969,3.915,4.0578,4.0164,4.0364,4.1031,4.115,4.1191,4.1191,4.1191,4.1582,4.2246,4.3105,4.3652,4.3926,4.3769,4.4258,4.4883,4.4004,4.416,4.4746,4.4746,4.4746,4.4746,4.4746,4.4258,4.3672,4.3496,4.2949,4.2363,4.2207,4.1699,4.1191,4.1191,4.1191,4.1191,4.1191,4.1191,4.1191,4.1191,4.1191,4.1191,4.1191,4.1191,4.1191,4.1191,4.1191,4.1191,4.1191,4.1777,4.1914,4.1269,4.1777,4.1914,4.1269,4.1191,4.1133,4.0957,4.1093,4.1034,4.0683,4.0448,3.9686,3.8322,3.6585,3.5781,3.5936,3.5781,3.5737,3.5772,3.5728,3.5693,0.0,0.0,0.0,0.0,3.8442,0.0,0.0,0.0,3.9951,4.0679,0.0,0.0,0.0,0.0,0.0,0.0,0.0,0.0,4.1003,4.1882,4.2433,4.2433,4.3057,4.3515,4.3515,4.414,4.4793,4.541,4.5531,4.4883,4.3181,4.3104,4.2297,4.0554,4.0496,4.0169,3.9438,3.9353,3.8993,3.8393,3.9108,3.9568,3.9854,4.0657,4.1074,4.1171,4.1191,4.1191,4.1191,4.1191,4.125,4.1426,4.2226,4.3496,4.4766,4.3984,4.4258,4.4883,4.4004,4.3769,4.3848,4.3848,4.3848,4.3848,4.3848,4.3789,4.3535,4.2773,4.248,4.2246,4.1523,4.1269,4.1191,4.1191,4.1191,4.1191,4.1191,4.1191,4.1191,4.1191,4.1191,4.1191,4.1191,4.1191,4.1191,4.1191,4.1191,4.1191,4.1191,4.1289,4.1308,4.1211,4.1289,4.1308,4.1211,4.1191,4.0879,4.0098,4.0715,4.0411,3.887,3.7932,3.7736,3.8298,3.6585,3.6052,3.6767,3.6052,3.5701,3.5707,3.5701,3.5695,0.0,0.0,0.0,0.0,0.0,0.0,3.9415,0.0,3.9168,0.0,0.0,0.0,0.0,0.0,0.0,0.0,3.9848,0.0,0.0,0.0,4.2818,4.2359,0.0,0.0,4.4035,4.4411,4.4861,4.5448,4.5568,4.4883,4.3181,4.3104,4.2297,4.0554,4.0496,4.01,3.9314,3.8846,3.8471,3.8225,3.8204,3.8772,3.9837,4.0253,4.0723,4.1191,4.1191,4.1191,4.1191,4.1191,4.1191,4.123,4.1562,4.2441,4.3398,4.2558,4.2773,4.3379,4.2539,4.2558,4.2949,4.2949,4.2949,4.2851,4.2383,4.2246,4.2168,4.1816,4.1699,4.1621,4.1289,4.1191,4.1191,4.1191,4.1191,4.1191,4.1191,4.1191,4.1191,4.1191,4.1191,4.1191,4.1191,4.1191,4.1191,4.1191,4.1191,4.1191,4.1191,4.1191,4.1191,4.1191,4.1169,4.1144,4.1144,4.1111,4.0922,4.0551,4.0866,4.0252,3.8502,3.8474,3.8197,3.756,3.6793,3.6323,3.6207,3.5858,3.5704,3.5704,3.5704,3.5704,3.5136,0.0,0.0,0.0,0.0,0.0,0.0,0.0,0.0,0.0,0.0,0.0,0.0,0.0,0.0,3.852,0.0,3.9869,0.0,4.1751,0.0,0.0,0.0,0.0,0.0,4.4435,4.4861,4.5485,4.5577,4.4883,4.3181,4.3104,4.2297,4.0554,4.0496,3.9992,3.8943,3.8394,3.7957,3.7602,3.7585,3.8249,3.9551,4.0039,4.0605,4.1191,4.1191,4.1191,4.1191,4.1191,4.1191,4.1191,4.1191,4.1562,4.1992,4.1426,4.1719,4.2324,4.1738,4.1914,4.2363,4.2148,4.207,4.1953,4.1387,4.1191,4.1191,4.1191,4.1191,4.1191,4.1191,4.1191,4.1191,4.1191,4.1191,4.1191,4.1191,4.1191,4.1191,4.1191,4.1191,4.1191,4.117,4.1191,4.1191,4.117,4.117,4.1169,4.1145,4.1144,4.1144,4.1144,4.1109,4.0976,4.0742,4.0669,4.0633,4.0616,4.0165,3.9422,3.8396,3.8469,3.7943,3.6662,3.6811,3.6497,3.5704,3.5916,3.5916,3.5704,3.5704,3.5704,0.0,0.0,0.0,3.448,0.0,0.0,0.0,0.0,3.5581,0.0,0.0,0.0,0.0,0.0,0.0,3.6785,3.7496,0.0,0.0,0.0,0.0,0.0,0.0,0.0,0.0,4.4102,4.4884,4.5559,4.5594,4.4883,4.3181,4.3104,4.2297,4.0554,4.0496,3.9703,3.8057,3.8141,3.7428,3.5908,3.7632,3.8526,3.8691,4.0391,4.1172,4.1191,4.1191,4.1191,4.1191,4.1191,4.1191,4.1191,4.1191,4.1211,4.123,4.1211,4.1719,4.2402,4.2363,4.2383,4.2266,4.1484,4.123,4.123,4.1211,4.1191,4.1191,4.1191,4.1191,4.1191,4.1191,4.1191,4.1191,4.1191,4.1191,4.1191,4.1191,4.1191,4.1191,4.1191,4.1191,4.1171,4.1115,4.1168,4.1171,4.1115,4.1091,4.1078,4.1006,4.1016,4.1016,4.1016,4.0997,4.0665,3.9814,3.9733,3.9705,3.9643,3.8056,3.7448,3.8172,3.6682,3.5811,3.5734,3.6497,3.6497,3.5704,3.6477,3.6458,3.5704,3.5704,3.5704,0.0,0.0,3.2639,3.3677,0.0,0.0,0.0,0.0,0.0,0.0,0.0,0.0,0.0,0.0,3.4999,3.541,3.6585,3.809,0.0,0.0,0.0,0.0,0.0,0.0,0.0,0.0,4.4486,4.5465,4.503,4.4259,4.3162,4.3104,4.2297,4.0554,4.0496,3.998,3.894,3.8495,3.772,3.6676,3.7951,3.8573,3.8652,4.041,4.1191,4.1191,4.1191,4.1191,4.1191,4.1191,4.1191,4.1191,4.1191,4.1191,4.1191,4.1191,4.1367,4.1601,4.1601,4.1601,4.1562,4.1289,4.1191,4.1191,4.1191,4.1191,4.1191,4.1191,4.1191,4.1191,4.1191,4.1191,4.1191,4.1191,4.1191,4.1191,4.1191,4.1191,4.1191,4.1191,4.1169,4.1139,4.1091,4.1078,4.1064,4.1047,4.1025,4.1037,4.0994,4.099,4.099,4.099,4.0446,4.0182,4.047,4.0451,4.0164,3.9569,3.8977,3.8263,3.7386,3.7348,3.6826,3.5723,3.6499,3.6488,3.5637,3.591,3.5898,3.5628,3.5628,3.5639,3.1378,3.1391,0.0,3.2725,3.307,0.0,3.3709,0.0,0.0,0.0,0.0,0.0,0.0,0.0,0.0,3.4007,3.5416,3.7199,0.0,3.9924,0.0,0.0,0.0,0.0,0.0,4.3999,4.4691,4.5539,4.5136,4.4445,0.0,4.3528,4.2874,4.1477,4.1123,4.0615,3.987,3.9136,3.8367,3.7613,3.8587,3.9062,3.9101,4.0234,4.0742,4.0742,4.0742,4.0742,4.0762,4.1074,4.1191,4.1191,4.1191,4.1191,4.1191,4.1191,4.1191,4.1191,4.1191,4.1191,4.1191,4.1191,4.1191,4.1191,4.1191,4.0976,4.0742,4.0742,4.0742,4.0664,4.0351,4.0508,4.0742,4.0742,4.0742,4.082,4.1133,4.1171,4.1169,4.1169,4.1114,4.1064,4.1025,4.0987,4.0953,4.0953,4.0953,4.0961,4.0932,4.0928,4.0812,4.0505,3.9927,3.9675,3.9922,4.0186,4.01,3.9539,3.921,3.8522,3.7408,3.7311,3.7054,3.6559,3.6754,3.6741,3.649,3.6183,3.5887,3.5598,3.5585,3.5553]}]]